[[{"header":{"parameterUnit":"m.s-1","parameterCategory":1,"la1":30.6,"la2":29.2853,"lo1":-89.7004,"lo2":-87.6739,"dy":0.0162,"dx":0.0183,"nx":112,"ny":82,"refTime":"2023-10-06T12:00:00:Z","depth":0,"parameterNumber":2,"parameterNumberName":"U-component_of_WINDS"},"data":[0.0,0.0,0.0,0.0,0.0,0.0,0.0,0.0,0.0,0.0,0.0,0.0,0.0,0.0,0.0,0.0,0.0,0.0,0.0,0.0,0.0,0.0,0.0,0.0,0.0,0.0,0.0,0.0,0.0,0.0,0.0,0.0,0.0,0.0,0.0,0.0,0.0,0.0,0.0,0.0,0.0,0.0,0.0,0.0,0.0,0.0,0.0,0.0,0.0,0.0,0.0,0.0,0.0,0.0,0.0,0.0,0.0,0.0,0.0,0.0,0.0,0.0,0.0,0.0,0.0,0.0,0.0,0.0,0.0,0.0,0.0,0.0,0.0,0.0,0.0,0.0,0.0,0.0,0.0,0.0,0.0,0.0,0.0,0.0,0.0,0.0,0.0,0.0,0.0,0.0,-1.135,-1.0556,-1.0744,-1.0578,-0.988,-1.0393,-1.0359,-0.9562,0.0,0.0,0.0,0.0,0.0,0.0,0.0,0.0,0.0,0.0,0.0,0.0,0.0,0.0,0.0,0.0,0.0,0.0,0.0,0.0,0.0,0.0,0.0,0.0,0.0,0.0,0.0,0.0,0.0,0.0,0.0,0.0,0.0,0.0,0.0,0.0,0.0,0.0,0.0,0.0,0.0,0.0,0.0,0.0,0.0,0.0,0.0,0.0,0.0,0.0,0.0,0.0,0.0,0.0,0.0,0.0,0.0,0.0,0.0,0.0,0.0,0.0,0.0,0.0,0.0,0.0,0.0,0.0,0.0,0.0,0.0,0.0,0.0,0.0,0.0,0.0,0.0,0.0,0.0,0.0,0.0,0.0,0.0,0.0,0.0,0.0,0.0,0.0,0.0,0.0,0.0,0.0,0.0,0.0,0.0,0.0,0.0,0.0,0.0,0.0,0.0,0.0,0.0,0.0,-1.0902,-1.0088,-0.928,-0.8787,-0.8641,-0.914,-0.9072,-0.8379,0.0,0.0,0.0,0.0,0.0,0.0,0.0,0.0,0.0,0.0,0.0,0.0,0.0,0.0,0.0,0.0,0.0,0.0,0.0,0.0,0.0,0.0,0.0,0.0,0.0,0.0,0.0,0.0,0.0,0.0,0.0,0.0,0.0,0.0,0.0,0.0,0.0,0.0,0.0,0.0,0.0,0.0,0.0,0.0,0.0,0.0,0.0,0.0,0.0,0.0,0.0,0.0,0.0,0.0,0.0,0.0,0.0,0.0,0.0,0.0,0.0,0.0,0.0,0.0,0.0,0.0,0.0,0.0,0.0,0.0,0.0,0.0,0.0,0.0,0.0,0.0,0.0,0.0,0.0,0.0,0.0,0.0,0.0,0.0,0.0,0.0,0.0,0.0,0.0,0.0,0.0,0.0,0.0,0.0,0.0,0.0,0.0,0.0,0.0,0.0,0.0,0.0,0.0,-0.9772,-0.9685,-0.9311,-0.9225,-0.9015,-0.8566,-0.9093,-0.9036,-0.8327,-0.8475,0.0,0.0,0.0,0.0,0.0,0.0,0.0,0.0,0.0,0.0,0.0,0.0,0.0,0.0,0.0,0.0,0.0,0.0,0.0,0.0,0.0,0.0,0.0,0.0,0.0,0.0,0.0,0.0,0.0,0.0,0.0,0.0,0.0,0.0,0.0,0.0,0.0,0.0,0.0,0.0,0.0,0.0,0.0,0.0,0.0,0.0,0.0,0.0,0.0,0.0,0.0,0.0,0.0,0.0,0.0,0.0,0.0,0.0,0.0,0.0,0.0,0.0,0.0,0.0,0.0,0.0,0.0,0.0,0.0,0.0,0.0,0.0,0.0,0.0,0.0,0.0,0.0,0.0,0.0,0.0,0.0,0.0,0.0,0.0,0.0,0.0,0.0,0.0,0.0,0.0,0.0,0.0,0.0,0.0,0.0,0.0,0.0,0.0,0.0,0.0,0.0,0.0,-0.9079,-0.8703,-0.8703,-0.9236,-0.9387,-0.878,-0.915,-0.9127,-0.8546,-0.8127,0.0,0.0,0.0,0.0,0.0,0.0,0.0,0.0,0.0,0.0,0.0,0.0,0.0,0.0,0.0,0.0,0.0,0.0,0.0,0.0,0.0,0.0,0.0,0.0,0.0,0.0,0.0,0.0,0.0,0.0,0.0,0.0,0.0,0.0,0.0,0.0,0.0,0.0,0.0,0.0,0.0,0.0,0.0,0.0,0.0,0.0,0.0,0.0,0.0,0.0,0.0,0.0,0.0,0.0,0.0,0.0,0.0,0.0,0.0,0.0,0.0,0.0,0.0,0.0,0.0,0.0,0.0,0.0,0.0,0.0,0.0,0.0,0.0,0.0,0.0,0.0,0.0,0.0,0.0,0.0,0.0,0.0,0.0,0.0,0.0,0.0,0.0,0.0,0.0,0.0,0.0,0.0,0.0,0.0,0.0,0.0,0.0,0.0,0.0,0.0,0.0,0.0,-0.8703,-0.8703,-0.8703,-0.878,-0.8775,-0.8703,-0.8765,-0.8756,-0.868,-0.8477,0.0,0.0,0.0,0.0,0.0,0.0,0.0,0.0,0.0,0.0,0.0,0.0,0.0,0.0,0.0,0.0,0.0,0.0,0.0,0.0,0.0,0.0,0.0,0.0,0.0,0.0,0.0,0.0,0.0,0.0,0.0,0.0,0.0,0.0,0.0,0.0,0.0,0.0,0.0,0.0,0.0,0.0,0.0,0.0,0.0,0.0,0.0,0.0,0.0,0.0,0.0,0.0,0.0,0.0,0.0,0.0,0.0,0.0,0.0,0.0,0.0,0.0,0.0,0.0,0.0,0.0,0.0,0.0,0.0,0.0,0.0,0.0,0.0,0.0,0.0,0.0,0.0,0.0,0.0,0.0,0.0,0.0,0.0,0.0,0.0,0.0,0.0,0.0,0.0,0.0,0.0,0.0,0.0,0.0,0.0,0.0,0.0,0.0,0.0,0.0,0.0,0.0,-0.8703,-0.8703,-0.8703,-0.8703,-0.8703,-0.8703,-0.8703,-0.8703,-0.8703,0.0,0.0,0.0,0.0,0.0,0.0,0.0,0.0,0.0,0.0,0.0,0.0,0.0,0.0,0.0,0.0,0.0,0.0,0.0,0.0,0.0,0.0,0.0,0.0,0.0,0.0,0.0,0.0,0.0,0.0,0.0,0.0,0.0,0.0,0.0,0.0,0.0,0.0,0.0,0.0,0.0,0.0,0.0,0.0,0.0,0.0,0.0,0.0,0.0,0.0,0.0,0.0,0.0,0.0,0.0,0.0,0.0,0.0,0.0,0.0,0.0,0.0,0.0,0.0,0.0,0.0,0.0,0.0,0.0,0.0,0.0,0.0,0.0,0.0,0.0,0.0,0.0,0.0,0.0,0.0,0.0,0.0,0.0,0.0,0.0,0.0,0.0,0.0,0.0,0.0,0.0,0.0,0.0,0.0,0.0,0.0,0.0,0.0,0.0,0.0,0.0,0.0,-0.8703,-0.8703,-0.8703,-0.8703,-0.8703,-0.8703,-0.8703,-0.8932,-0.9008,-0.8703,0.0,0.0,0.0,0.0,0.0,0.0,0.0,0.0,0.0,0.0,0.0,0.0,0.0,0.0,0.0,0.0,0.0,0.0,0.0,0.0,0.0,0.0,0.0,0.0,0.0,0.0,0.0,0.0,0.0,0.0,0.0,0.0,0.0,0.0,0.0,0.0,0.0,0.0,0.0,0.0,0.0,0.0,0.0,0.0,0.0,0.0,0.0,0.0,0.0,0.0,0.0,0.0,0.0,0.0,0.0,0.0,0.0,0.0,0.0,0.0,0.0,0.0,0.0,0.0,0.0,0.0,0.0,0.0,0.0,0.0,0.0,0.0,0.0,0.0,0.0,0.0,0.0,0.0,0.0,0.0,0.0,0.0,0.0,0.0,0.0,0.0,0.0,0.0,0.0,0.0,0.0,0.0,0.0,0.0,0.0,0.0,0.0,0.0,0.0,0.0,0.0,0.0,-0.8703,-0.8703,-0.8703,-0.8703,-0.8703,-0.8703,-0.8703,-0.9463,-0.9539,0.0,0.0,0.0,0.0,0.0,0.0,0.0,0.0,0.0,0.0,0.0,0.0,0.0,0.0,0.0,0.0,0.0,0.0,0.0,0.0,0.0,0.0,0.0,0.0,0.0,0.0,0.0,0.0,0.0,0.0,0.0,0.0,0.0,0.0,0.0,0.0,0.0,0.0,0.0,0.0,0.0,0.0,0.0,0.0,0.0,0.0,0.0,0.0,0.0,0.0,0.0,0.0,0.0,0.0,0.0,0.0,0.0,0.0,0.0,0.0,0.0,0.0,0.0,0.0,0.0,0.0,0.0,0.0,0.0,0.0,0.0,0.0,0.0,0.0,0.0,0.0,0.0,0.0,0.0,0.0,0.0,0.0,0.0,0.0,0.0,0.0,0.0,0.0,0.0,0.0,0.0,0.0,0.0,0.0,0.0,0.0,0.0,0.0,0.0,0.0,0.0,0.0,0.0,-0.8703,-0.8703,-0.8703,-0.8703,-0.8703,-0.8703,-0.8703,-0.8932,-0.8932,-0.8703,0.0,0.0,0.0,0.0,0.0,0.0,0.0,0.0,0.0,0.0,0.0,0.0,0.0,0.0,0.0,0.0,0.0,0.0,0.0,0.0,0.0,0.0,0.0,0.0,0.0,0.0,0.0,0.0,0.0,0.0,0.0,0.0,0.0,0.0,0.0,0.0,0.0,0.0,0.0,0.0,0.0,0.0,0.0,0.0,0.0,0.0,0.0,0.0,0.0,0.0,0.0,0.0,0.0,0.0,0.0,0.0,0.0,0.0,0.0,0.0,0.0,0.0,0.0,0.0,0.0,0.0,0.0,0.0,0.0,0.0,0.0,0.0,0.0,0.0,0.0,0.0,0.0,0.0,0.0,0.0,0.0,0.0,0.0,0.0,0.0,0.0,0.0,0.0,0.0,0.0,0.0,0.0,0.0,0.0,0.0,0.0,0.0,0.0,0.0,0.0,0.0,0.0,-0.8703,-0.8703,-0.8703,-0.8703,-0.8703,-0.8703,-0.8703,-0.9008,-0.9003,-0.8699,0.0,0.0,0.0,0.0,0.0,0.0,0.0,0.0,0.0,0.0,0.0,0.0,0.0,0.0,0.0,0.0,0.0,0.0,0.0,0.0,0.0,0.0,0.0,0.0,0.0,0.0,0.0,0.0,0.0,0.0,0.0,0.0,0.0,0.0,0.0,0.0,0.0,0.0,0.0,0.0,0.0,0.0,0.0,0.0,0.0,0.0,0.0,0.0,0.0,0.0,0.0,0.0,0.0,0.0,0.0,0.0,0.0,0.0,0.0,0.0,0.0,0.0,0.0,0.0,0.0,0.0,0.0,0.0,0.0,0.0,0.0,0.0,0.0,0.0,0.0,0.0,0.0,0.0,0.0,0.0,0.0,0.0,0.0,0.0,0.0,0.0,0.0,0.0,0.0,0.0,0.0,0.0,0.0,0.0,0.0,0.0,0.0,0.0,0.0,0.0,0.0,0.0,-0.8703,-0.8703,-0.8703,-0.8703,-0.8703,-0.8703,-0.8703,-0.9463,-0.9539,-0.878,0.0,0.0,0.0,0.0,0.0,0.0,0.0,0.0,0.0,0.0,0.0,0.0,0.0,0.0,0.0,0.0,0.0,0.0,0.0,0.0,0.0,0.0,0.0,0.0,0.0,0.0,0.0,0.0,0.0,0.0,0.0,0.0,0.0,0.0,0.0,0.0,0.0,0.0,0.0,0.0,0.0,0.0,0.0,0.0,0.0,0.0,0.0,0.0,0.0,0.0,0.0,0.0,0.0,0.0,0.0,0.0,0.0,0.0,0.0,0.0,-1.3447,-1.3362,0.0,0.0,0.0,0.0,0.0,0.0,0.0,0.0,0.0,0.0,0.0,0.0,0.0,0.0,0.0,0.0,0.0,0.0,0.0,0.0,0.0,0.0,0.0,0.0,0.0,0.0,0.0,0.0,0.0,0.0,0.0,0.0,0.0,0.0,0.0,0.0,0.0,0.0,0.0,0.0,-0.8703,-0.8703,-0.8703,-0.8703,-0.8703,-0.8703,-0.8703,-0.9463,-0.9539,-0.878,-0.9463,0.0,0.0,0.0,0.0,0.0,0.0,0.0,0.0,0.0,0.0,0.0,0.0,0.0,0.0,0.0,0.0,0.0,0.0,0.0,0.0,0.0,0.0,0.0,0.0,0.0,0.0,0.0,0.0,0.0,0.0,0.0,0.0,0.0,0.0,0.0,0.0,0.0,0.0,0.0,0.0,0.0,0.0,0.0,0.0,0.0,0.0,0.0,0.0,0.0,0.0,0.0,0.0,0.0,0.0,0.0,0.0,0.0,0.0,0.0,-1.3815,-1.3584,0.0,0.0,0.0,0.0,0.0,0.0,0.0,0.0,0.0,0.0,0.0,0.0,0.0,0.0,0.0,0.0,0.0,0.0,0.0,0.0,0.0,0.0,0.0,0.0,0.0,0.0,0.0,0.0,0.0,0.0,0.0,0.0,0.0,0.0,0.0,0.0,0.0,0.0,0.0,0.0,-0.8703,-0.8703,-0.8703,-0.8703,-0.8703,-0.8703,-0.8703,-0.9079,-0.9311,-0.9311,-0.969,0.0,0.0,0.0,0.0,0.0,0.0,0.0,0.0,0.0,0.0,0.0,0.0,0.0,0.0,0.0,0.0,0.0,0.0,0.0,0.0,0.0,0.0,0.0,0.0,0.0,0.0,0.0,0.0,0.0,0.0,0.0,0.0,0.0,0.0,0.0,0.0,0.0,0.0,0.0,0.0,0.0,0.0,0.0,0.0,0.0,0.0,0.0,0.0,0.0,0.0,0.0,0.0,0.0,-1.4649,-1.4824,-1.4824,-1.4824,-1.4824,-1.4784,-1.414,-1.3831,-1.3767,-1.3767,0.0,0.0,0.0,0.0,0.0,0.0,0.0,0.0,0.0,0.0,0.0,0.0,0.0,0.0,0.0,0.0,0.0,0.0,0.0,0.0,0.0,0.0,-1.2463,-1.1902,-1.1927,-1.187,-1.1204,0.0,0.0,0.0,0.0,0.0,0.0,0.0,0.0,0.0,0.0,0.0,-0.9155,-0.9155,-0.9155,-0.9155,-0.9003,-0.8932,-0.8932,-0.8932,-0.916,-0.969,-0.9916,-0.9992,0.0,0.0,0.0,0.0,0.0,0.0,0.0,0.0,0.0,0.0,0.0,0.0,0.0,0.0,0.0,0.0,0.0,0.0,0.0,0.0,0.0,0.0,0.0,0.0,0.0,0.0,0.0,0.0,0.0,0.0,0.0,0.0,-1.5059,-1.3803,0.0,0.0,0.0,0.0,0.0,0.0,0.0,0.0,0.0,0.0,0.0,0.0,0.0,-1.4498,-1.4498,-1.4863,-1.5038,-1.5046,-1.538,-1.5539,-1.5539,-1.5539,-1.5539,-1.5515,-1.5141,0.0,-1.4498,-1.4498,0.0,0.0,0.0,0.0,0.0,0.0,0.0,0.0,0.0,0.0,0.0,0.0,0.0,0.0,0.0,0.0,0.0,0.0,0.0,0.0,0.0,0.0,-1.2943,-1.2803,-1.3042,-1.3266,-1.315,-1.1998,-1.1057,-1.1057,-1.1087,-1.0887,0.0,0.0,0.0,0.0,0.0,0.0,-1.0807,-1.0807,-1.0807,-1.0807,-1.0137,-0.9765,-0.9765,-0.9765,-0.9463,-0.8932,-1.0137,-1.0288,-0.8927,-0.9614,0.0,0.0,0.0,0.0,0.0,0.0,0.0,0.0,0.0,0.0,0.0,0.0,0.0,0.0,0.0,0.0,0.0,0.0,0.0,0.0,0.0,0.0,0.0,0.0,0.0,0.0,0.0,0.0,0.0,-1.5232,-1.4514,-1.4173,-1.3905,-1.381,0.0,0.0,0.0,0.0,0.0,0.0,0.0,0.0,0.0,-1.4712,-1.5046,-1.5221,-1.5221,-1.538,-1.5459,-1.5459,-1.561,-1.5674,-1.5674,-1.5674,-1.5674,-1.5666,-1.5523,-1.5372,-1.5197,-1.48,-1.4474,-1.4411,0.0,0.0,0.0,0.0,-1.4111,-1.401,-1.395,-1.375,-1.359,-1.3478,0.0,0.0,0.0,0.0,0.0,0.0,0.0,-1.3186,-1.3367,-1.3517,-1.363,-1.363,-1.3678,-1.3645,-1.3645,-1.3046,-1.2452,-1.2452,-1.2452,-1.2305,-1.2003,-1.1855,0.0,0.0,0.0,-1.1111,-1.1111,-1.1111,-1.1111,-1.1111,-1.0812,-1.0594,-1.0594,-1.0594,-1.0438,-1.0056,-1.0732,-1.0807,-1.0056,-0.9916,-0.9695,0.0,0.0,0.0,0.0,0.0,0.0,0.0,0.0,0.0,0.0,0.0,0.0,0.0,0.0,0.0,0.0,0.0,0.0,0.0,0.0,0.0,0.0,0.0,0.0,0.0,0.0,0.0,0.0,-1.4845,-1.4196,-1.4336,-1.399,-1.3751,0.0,0.0,0.0,0.0,0.0,0.0,-1.4895,-1.5165,-1.5356,-1.5443,-1.5682,-1.5856,-1.5944,-1.6039,-1.6087,-1.6087,-1.6174,-1.6214,-1.6214,-1.6214,-1.6214,-1.6206,-1.6023,-1.5944,-1.5888,-1.5197,-1.4903,-1.4895,-1.4816,-1.4784,-1.4768,-1.4601,-1.4569,-1.4458,-1.4269,-1.4104,-1.3987,-1.3752,-1.3734,-1.3787,-1.353,0.0,0.0,0.0,0.0,-1.376,-1.4068,-1.4129,-1.4129,-1.4129,-1.4,-1.3863,-1.3863,-1.3783,-1.3637,-1.3492,-1.3492,-1.3419,-1.32,-1.29,0.0,-1.2305,-1.2003,-1.1706,-1.1706,-1.1706,-1.1706,-1.1706,-1.1558,-1.1409,-1.1409,-1.1186,-1.1111,-1.1111,-1.126,-1.1186,-1.0812,-1.0588,-1.0212,-0.9614,0.0,0.0,0.0,0.0,0.0,0.0,0.0,0.0,0.0,0.0,0.0,0.0,0.0,0.0,0.0,0.0,0.0,0.0,0.0,0.0,0.0,0.0,0.0,0.0,0.0,0.0,0.0,0.0,0.0,-1.3709,-1.3878,0.0,0.0,0.0,0.0,-1.557,-1.5594,-1.5602,-1.5626,-1.5642,-1.5801,-1.6142,-1.6174,-1.6341,-1.6675,-1.7024,-1.7199,-1.7199,-1.7517,-1.766,-1.766,-1.766,-1.766,-1.7628,-1.6969,-1.6683,-1.6627,-1.592,-1.5626,-1.5594,-1.5276,-1.5157,-1.5118,-1.4768,-1.4569,-1.4569,-1.4545,-1.4537,-1.4537,-1.4522,-1.445,-1.4378,-1.4307,-1.4227,0.0,0.0,-1.4106,-1.4106,-1.4129,-1.4129,-1.4129,-1.4129,-1.4057,-1.4057,-1.4057,-1.4057,-1.3992,-1.3564,-1.3492,-1.3273,-1.2526,0.0,-1.32,-1.2378,-1.29,-1.3346,-1.3346,-1.3346,-1.3346,-1.3346,-1.2673,-1.2224,-1.2224,-1.1558,-1.1111,-1.1111,-1.1855,-1.1558,-0.9992,-1.1409,-1.1099,-0.8775,-0.9463,0.0,0.0,0.0,0.0,0.0,0.0,0.0,0.0,0.0,0.0,0.0,0.0,0.0,0.0,0.0,0.0,0.0,0.0,0.0,0.0,0.0,0.0,0.0,0.0,0.0,0.0,0.0,0.0,-1.5342,-1.5195,0.0,-1.5292,-1.5427,-1.5554,-1.5666,-1.5888,-1.6015,-1.6015,-1.6452,-1.6762,-1.6897,-1.7104,-1.727,-1.7397,-1.7525,-1.7596,-1.7596,-1.7715,-1.7771,-1.7771,-1.7771,-1.7771,-1.7755,-1.7509,-1.7397,-1.7366,-1.6897,-1.6301,-1.5666,-1.5547,-1.5499,-1.5483,-1.5356,-1.5308,-1.5276,-1.5062,-1.499,-1.4951,-1.4648,-1.4569,-1.4497,-1.4497,-1.4497,-1.4418,-1.4418,-1.4418,-1.4418,-1.4418,-1.4418,-1.4418,-1.4418,-1.4353,-1.4281,-1.4281,-1.4201,-1.4057,-1.392,-1.3783,-1.3572,-1.3119,-1.3346,-1.3419,-1.3119,-1.3346,-1.3492,-1.3492,-1.3492,-1.3492,-1.3492,-1.3273,-1.3046,-1.3046,-1.2826,-1.2452,-1.1929,-1.215,-1.1781,-1.0738,-1.0738,-1.0363,-0.9463,-0.9236,-0.9008,0.0,0.0,0.0,0.0,0.0,0.0,0.0,0.0,0.0,0.0,0.0,0.0,0.0,0.0,0.0,0.0,0.0,0.0,0.0,0.0,0.0,0.0,0.0,0.0,0.0,0.0,-1.6347,-1.6279,-1.6319,-1.6325,-1.6269,-1.6214,-1.6261,-1.6373,-1.6603,-1.673,-1.673,-1.7183,-1.7501,-1.762,-1.7834,-1.8009,-1.8128,-1.8128,-1.8128,-1.8128,-1.8128,-1.8128,-1.8128,-1.8128,-1.8128,-1.812,-1.8001,-1.7946,-1.7922,-1.758,-1.7024,-1.6349,-1.5991,-1.5856,-1.584,-1.5721,-1.5674,-1.5642,-1.5427,-1.5348,-1.5308,-1.507,-1.4911,-1.4824,-1.4824,-1.4736,-1.4569,-1.4569,-1.4569,-1.4569,-1.4569,-1.4569,-1.4569,-1.4569,-1.4497,-1.4497,-1.4497,-1.4353,-1.4274,-1.4201,-1.4072,-1.3855,-1.371,-1.371,-1.3747,-1.3793,-1.3638,-1.3609,-1.3645,-1.3565,-1.3492,-1.3492,-1.3492,-1.3492,-1.3492,-1.3492,-1.3273,-1.2746,-1.2673,-1.2231,-1.1111,-1.0887,-1.0363,-0.9539,-0.9008,-0.8703,-0.8703,0.0,0.0,0.0,0.0,0.0,0.0,0.0,0.0,0.0,0.0,0.0,0.0,0.0,0.0,0.0,0.0,0.0,0.0,0.0,0.0,0.0,0.0,0.0,-1.7548,-1.7495,-1.722,-1.6371,-1.7004,-1.7464,-1.7307,-1.7294,-1.7429,-1.7747,-1.7779,-1.7787,-1.7787,-1.7795,-1.7962,-1.8303,-1.8319,-1.8478,-1.8827,-1.8827,-1.8827,-1.8827,-1.8827,-1.8827,-1.8827,-1.8827,-1.8827,-1.8812,-1.847,-1.8319,-1.8287,-1.793,-1.7787,-1.7683,-1.6643,-1.6238,-1.6198,-1.584,-1.5705,-1.5697,-1.5697,-1.569,-1.5674,-1.5674,-1.5459,-1.5197,-1.5197,-1.4951,-1.4601,-1.4601,-1.4593,-1.4585,-1.4585,-1.4577,-1.4569,-1.4569,-1.4569,-1.4569,-1.4569,-1.4569,-1.4569,-1.4425,-1.4289,-1.4145,-1.4129,-1.4137,-1.4194,-1.4313,-1.4014,0.0,-1.4013,-1.3697,-1.3499,-1.3506,-1.3499,-1.3499,-1.3514,-1.3499,-1.3492,-1.3492,-1.3492,-1.2826,-1.1186,-1.1855,-1.1105,-0.878,-0.8699,-0.8699,-0.8703,0.0,0.0,0.0,0.0,0.0,0.0,0.0,0.0,0.0,0.0,0.0,0.0,0.0,0.0,0.0,0.0,0.0,0.0,0.0,0.0,0.0,0.0,-1.9098,-1.844,-1.7995,-1.7839,-1.8285,-1.792,-1.7661,-1.7698,-1.7636,-1.7676,-1.7763,-1.8009,-1.8152,-1.8152,-1.8398,-1.8581,-1.8676,-1.8684,-1.8732,-1.8827,-1.8827,-1.8827,-1.8827,-1.9188,-1.9188,-1.8827,-1.9188,-1.9188,-1.8819,-1.8724,-1.8684,-1.8653,-1.8295,-1.8152,-1.8073,-1.7286,-1.6984,-1.6937,-1.6579,-1.6277,-1.6063,-1.6063,-1.5888,-1.5674,-1.5674,-1.5618,-1.5539,-1.5539,-1.5467,-1.5396,-1.5396,-1.5221,-1.5038,-1.5038,-1.4839,-1.4569,-1.4569,-1.4569,-1.4569,-1.4569,-1.4569,-1.4569,-1.4569,-1.471,-1.4731,-1.4175,-1.4336,-1.4462,-1.4486,-1.4418,-1.4387,-1.4411,-1.3992,-1.3814,-1.4052,-1.3712,-1.3594,-1.3828,-1.3631,-1.3492,-1.3492,-1.3492,-1.3046,-1.2003,-1.1632,-1.0582,-0.8703,-0.9236,-0.9311,0.0,0.0,0.0,0.0,0.0,0.0,0.0,0.0,0.0,0.0,0.0,0.0,0.0,0.0,0.0,0.0,0.0,0.0,0.0,0.0,0.0,0.0,-2.0244,-2.0064,-2.0236,-2.0014,-1.965,-1.9404,-1.9264,-1.8912,-1.8281,-1.8216,-1.8216,-1.8216,-1.8406,-1.8518,-1.8518,-1.8899,-1.9004,-1.8827,-1.9004,-1.9012,-1.8827,-1.8827,-1.8827,-1.8827,-1.9371,-1.9463,-1.9188,-1.9646,-1.9737,-1.9471,-1.9471,-1.9471,-1.9363,-1.9052,-1.888,-1.8717,0.0,0.0,0.0,0.0,-1.6603,-1.6428,-1.6428,-1.6293,-1.6118,-1.6118,-1.6023,-1.5896,-1.5896,-1.5793,-1.5674,-1.5674,-1.5539,-1.5364,-1.5221,-1.503,-1.4832,-1.4601,-1.4569,-1.4681,-1.4832,-1.4863,-1.4911,-1.5046,-1.5245,0.0,-1.4813,-1.4945,-1.5048,-1.5127,-1.5026,-1.4934,-1.4858,-1.4418,-1.4162,-1.4215,-1.3829,-1.3719,-1.3918,-1.3756,0.0,0.0,0.0,-1.3046,-1.1855,-1.1037,0.0,0.0,0.0,-0.916,-0.8703,-0.8703,0.0,0.0,-0.8529,-0.8388,0.0,0.0,0.0,0.0,0.0,0.0,0.0,0.0,0.0,0.0,0.0,0.0,0.0,0.0,0.0,0.0,-2.1146,-2.132,-2.2573,-2.2766,-2.2088,-2.014,-2.0526,-2.0421,-1.9072,-1.892,-1.8912,-1.8827,-1.8827,-1.8827,-1.892,0.0,0.0,0.0,0.0,-1.9371,-1.8827,-1.8827,-1.892,-1.892,-1.9463,-1.9729,-1.9729,-2.0192,-2.0382,-2.0292,-2.0292,-2.0292,-2.0292,-1.9828,-1.9646,-1.948,-1.8306,-1.7572,-1.7231,-1.6873,-1.673,-1.673,-1.673,0.0,0.0,-1.673,-1.6524,-1.6269,-1.6269,-1.6047,-1.5793,-1.5793,-1.5769,-1.5658,-1.5324,-1.5213,-1.5102,-1.4784,-1.4704,-1.48,-1.5165,-1.5237,-1.5324,-1.5618,-1.5705,-1.5737,-1.5737,-1.5737,-1.5771,-1.5936,-1.5646,-1.5428,-1.5235,-1.485,-1.4528,-1.4221,-1.395,0.0,-1.3923,-1.3885,-1.379,-1.3564,-1.3717,-1.3046,-1.1335,-1.0594,-0.976,-0.8851,-0.8856,-0.878,-0.8703,-0.8703,-0.8703,-0.8703,-0.8703,-0.8703,0.0,0.0,0.0,0.0,0.0,0.0,0.0,0.0,0.0,0.0,0.0,0.0,0.0,0.0,0.0,-2.2168,-2.29,-2.3541,-2.4076,-2.4469,-2.3865,-2.1607,-2.1119,-2.0549,-1.9546,-1.9812,-1.9629,-1.8827,-1.8827,-1.9012,-1.9463,-1.9546,-1.9546,-1.9463,-1.9554,-1.9371,-1.8827,-1.9188,-1.9463,-1.9463,-2.0365,0.0,-2.0201,-2.0637,-2.0645,-2.0292,-2.0292,-2.0292,-2.0292,-2.0201,-1.992,-1.948,-1.8306,-1.7572,-1.7231,-1.6873,-1.673,-1.673,-1.673,-1.673,-1.673,-1.673,-1.6683,-1.6635,-1.6635,-1.6587,0.0,-1.6532,-1.6325,-1.6023,-1.5674,-1.5388,-1.5165,-1.5094,-1.5078,-1.5173,-1.5515,-1.5578,-1.5602,-1.5666,-1.5904,-1.6103,-1.6103,-1.6103,-1.6126,-1.6119,-1.6071,-1.5929,-1.5636,-1.5153,-1.477,-1.4692,-1.4298,-1.4172,-1.4446,-1.4217,-1.4065,-1.3992,-1.3992,-1.3477,-1.215,-1.2077,-1.1335,-0.969,-0.969,-0.9311,-0.8703,-0.8703,-0.8703,-0.8703,-0.8703,-0.8703,0.0,0.0,0.0,0.0,0.0,0.0,0.0,0.0,0.0,0.0,0.0,-2.1235,0.0,0.0,-2.2649,-2.3452,-2.3998,-2.4399,-2.4775,-2.4872,-2.432,-2.2879,-2.1998,-2.115,-2.0158,-1.9812,-1.9363,-1.8827,-1.9012,-1.9279,-1.9554,-2.0093,-2.0093,-1.9637,-1.9828,-1.9737,-1.9188,-1.9463,-1.9737,-1.992,-2.0637,-2.0907,-2.0645,-2.1096,-2.1186,-2.1015,-2.1015,-2.1015,-2.1015,-2.0736,-2.0283,-1.9497,-1.8685,-1.8088,-1.7485,-1.7135,-1.6889,-1.673,-1.673,-1.673,-1.673,-1.673,-1.673,-1.673,-1.673,-1.673,-1.673,-1.673,-1.6603,-1.6389,-1.6031,-1.5825,-1.565,-1.5475,-1.5427,-1.5523,-1.5864,-1.5944,-1.5991,-1.6174,-1.6349,-1.6468,-1.6468,-1.6468,-1.6468,-1.6468,-1.6468,-1.6277,-1.5745,-1.5454,-1.5142,-1.4715,-1.4455,-1.4351,-1.4522,-1.4229,-1.4129,-1.4209,-1.4129,-1.3615,-1.2652,-1.2445,-1.1626,-1.0056,-0.9765,-0.9316,-0.8703,-0.8703,-0.8703,-0.8703,-0.8703,-0.8703,0.0,0.0,0.0,0.0,0.0,0.0,0.0,0.0,-2.107,-2.107,-2.1461,-2.2095,-2.2859,-2.308,-2.3567,-2.4713,-2.482,-2.493,-2.5316,-2.502,-2.4669,-2.4231,-2.2999,-2.1765,-2.0782,-1.9812,-1.9188,-1.9012,-1.9463,-1.9828,-1.9911,-2.0637,-2.0637,-1.9737,-2.0192,-2.0192,-1.9646,-1.982,-2.0093,-2.0464,-2.0907,-2.1177,-2.1177,-2.1553,-2.1741,-2.1741,-2.1741,-2.1741,-2.1651,-2.1177,-2.0546,-1.9704,-1.9232,-1.8628,-1.7826,-1.7429,-1.7048,-1.673,-1.673,-1.673,-1.673,-1.673,-1.673,-1.673,-1.673,-1.673,-1.673,-1.673,-1.673,-1.6651,-1.6301,-1.6206,-1.6134,-1.5848,-1.5777,-1.5872,-1.623,-1.6309,-1.6389,-1.6675,-1.673,-1.673,-1.673,-1.673,-1.673,-1.673,-1.6675,-1.6397,-1.5761,-1.5618,-1.534,-1.4632,-1.4497,-1.4425,-1.4425,-1.4281,-1.4274,-1.4353,-1.4281,-1.3905,-1.3164,-1.2586,-1.1694,-1.0571,-0.9836,-0.9311,-0.9079,-0.8775,-0.878,-0.8927,-0.8775,-0.8703,-1.786,-1.8217,-1.8643,-1.9135,-1.967,-2.0172,0.0,0.0,-2.1505,-2.1505,-2.2226,-2.287,-2.2979,-2.4061,-2.4978,-2.5142,-2.5452,-2.5746,-2.5801,-2.5812,-2.5728,-2.5633,-2.3877,-2.2208,-2.1078,-2.0808,-2.0456,-1.9546,-1.992,-2.0374,-2.0817,-2.0907,-2.0727,-2.0201,-2.0645,-2.0456,-1.9646,-2.0456,-2.0907,-2.0907,-2.1365,-2.1642,-2.1642,-2.1651,-2.1741,-2.1741,-2.1741,-2.1741,-2.1651,-2.1177,-2.0727,-2.0192,-1.9687,-1.8995,-1.816,-1.7517,-1.7048,-1.673,-1.673,-1.673,-1.673,-1.673,-1.673,-1.673,-1.673,-1.673,-1.673,-1.673,-1.673,-1.6651,-1.6301,-1.6206,-1.6198,-1.6158,-1.615,-1.6246,-1.6595,-1.6675,-1.6683,-1.6722,-1.673,-1.673,-1.673,-1.673,-1.673,-1.673,-1.6468,-1.6118,-1.5729,-1.5419,-1.5086,-1.4681,-1.4569,-1.4569,-1.4569,-1.4569,-1.4497,-1.4433,-1.4497,-1.4346,-1.3985,-1.339,-1.2652,-1.1855,-1.0645,-1.0201,-1.0288,-0.9231,-0.9084,-0.9765,-0.9008,-0.8703,-1.8331,-1.896,0.0,0.0,-2.0413,-2.1035,-2.1243,-2.1658,-2.2084,-2.2357,-2.2947,-2.3602,-2.4159,-2.476,-2.5262,0.0,-2.5764,-2.5895,-2.5895,-2.5895,-2.5822,-2.5738,-2.4402,-2.3173,-2.2306,-2.1606,-2.0808,-2.0102,-2.0464,-2.0817,-2.0997,-2.1275,-2.1186,-2.0736,-2.0907,-2.0808,-2.0456,-2.0817,-2.1177,-2.1365,-2.1642,-2.1741,-2.1741,-2.1741,-2.1741,-2.1741,-2.1741,-2.1741,-2.1651,-2.1463,-2.1096,-2.0645,-2.0192,-1.9422,-1.8596,-1.7834,-1.735,-1.7024,-1.681,-1.673,-1.673,-1.673,-1.673,-1.673,-1.673,-1.673,-1.673,-1.673,-1.673,-1.6698,-1.6555,-1.6516,-1.6516,-1.6516,-1.6516,-1.6555,-1.6706,-1.673,-1.673,-1.673,-1.6563,-1.6428,-1.6428,-1.6254,-1.6118,-1.6118,-1.6166,-1.6007,-1.5459,-1.5268,-1.5046,-1.4609,-1.4569,-1.4569,-1.4569,-1.4569,-1.4569,-1.4497,-1.4569,-1.4569,-1.4425,-1.3833,-1.3091,-1.2211,-1.1316,-1.0657,-1.0143,-0.9392,-0.9241,-0.9549,-0.8932,-0.8703,-1.8978,0.0,0.0,-2.0511,-2.1177,-2.1789,-2.1789,-2.216,-2.2597,-2.2936,-2.3504,-2.4148,-2.4858,-2.5196,-2.5491,-2.5841,-2.5895,-2.5895,-2.5895,-2.5895,-2.5822,-2.5728,-2.502,-2.4317,-2.3627,-2.2306,-2.1248,-2.0555,-2.0916,-2.1177,-2.1177,-2.1553,-2.1454,-2.0988,-2.1087,-2.1087,-2.0997,-2.1087,-2.1365,-2.1741,-2.1741,-2.1741,-2.1741,-2.1741,-2.1741,-2.1741,-2.1741,-2.1741,-2.1741,-2.1741,-2.1365,-2.0727,-2.0464,-1.976,-1.8856,-1.8226,-1.7644,-1.7223,-1.6857,-1.673,-1.673,-1.673,-1.673,-1.673,-1.673,-1.673,-1.673,-1.673,-1.673,-1.673,-1.673,-1.673,-1.673,-1.673,-1.673,-1.6706,-1.6611,-1.6587,-1.6555,-1.646,-1.6238,-1.6063,-1.6063,-1.5848,-1.5642,-1.5554,-1.5761,-1.5745,-1.5245,-1.5102,-1.4935,-1.4593,-1.4569,-1.4569,-1.4569,-1.4569,-1.4569,-1.4569,-1.4569,-1.4569,-1.4569,-1.4201,-1.3535,-1.2505,-1.1916,-1.1329,-1.0663,-0.9997,-0.9846,-1.0218,-0.9387,-0.9008,-1.9781,0.0,-2.0948,-2.1428,-2.1931,-2.2302,-2.2302,-2.2652,-2.299,-2.3001,-2.3787,-2.4476,-2.4508,-2.5262,-2.5884,-2.5895,-2.5895,-2.5895,-2.5895,-2.5895,-2.5895,-2.5906,-2.5895,-2.5549,0.0,-2.3096,-2.1686,-2.0988,-2.1365,-2.1651,-2.1651,-2.1731,-2.1454,-2.0988,-2.1454,-2.1454,-2.0997,-2.1463,-2.1651,-2.1741,-2.1741,-2.1741,-2.1741,-2.1741,-2.1741,-2.1741,-2.1741,-2.1741,-2.1741,-2.1741,-2.1195,-2.0292,-2.0292,-1.9646,-1.8772,-1.8414,-1.7858,-1.7223,-1.6857,-1.673,-1.673,-1.673,-1.673,-1.673,-1.673,-1.673,-1.673,-1.673,-1.673,-1.673,-1.673,-1.673,-1.673,-1.673,-1.673,-1.6643,-1.6293,-1.6222,-1.6118,-1.5777,-1.5697,-1.5697,-1.5697,-1.569,-1.557,-1.5245,-1.5205,-1.5205,-1.5189,-1.4879,-1.4585,-1.4569,-1.4569,-1.4569,-1.4569,-1.4569,-1.4569,-1.4569,-1.4569,-1.4569,-1.4569,-1.4569,-1.4057,-1.2893,-1.2505,-1.2358,-1.2526,-1.1111,-1.1186,-1.2452,-1.0663,-0.9846,-2.0445,0.0,-2.1865,-2.2029,-2.2422,-2.2772,-2.2772,-2.2892,-2.3088,-2.3416,-2.3744,-2.4093,-2.4421,-2.4749,-2.5065,-2.5371,-2.5415,-2.5524,-2.5852,-2.5895,-2.5895,-2.5895,-2.5895,0.0,0.0,0.0,0.0,-2.2255,-2.1909,-2.1741,-2.1741,-2.1741,-2.1642,-2.1463,-2.1642,-2.1642,-2.1463,-2.1642,-2.1741,-2.1741,-2.1741,-2.1741,-2.1741,-2.1741,-2.1741,-2.1741,-2.1741,-2.1741,-2.1741,-2.1741,-2.1553,-2.1195,-2.0564,-2.011,-1.9695,-1.906,-1.8274,-1.7556,-1.7215,-1.6937,-1.673,-1.673,-1.673,-1.673,-1.673,-1.673,-1.673,-1.673,-1.673,-1.673,-1.673,-1.673,-1.6675,-1.6436,-1.6381,-1.6285,-1.5936,-1.5856,-1.5817,-1.5697,-1.5499,-1.5348,-1.5348,-1.5149,-1.4951,-1.4839,-1.4824,-1.4824,-1.4824,-1.4648,-1.4569,-1.4569,-1.4569,-1.4569,-1.4569,-1.4569,-1.4569,-1.4569,-1.4569,-1.4569,-1.4569,-1.4569,-1.4274,-1.3542,-1.339,-1.3098,-1.282,-1.1929,-1.1706,-1.215,-1.1186,-1.0443,-2.1155,-2.1843,-2.2357,-2.2521,-2.2783,-2.3001,-2.3001,-2.3001,-2.3088,-2.3405,-2.3613,-2.3831,-2.4159,-2.4366,-2.4585,-2.488,-2.5065,-2.5284,-2.56,-2.5786,-2.5895,-2.5895,-2.5895,-2.5728,0.0,0.0,0.0,-2.2882,-2.2087,-2.1741,-2.1741,-2.1741,-2.1741,-2.1741,-2.1741,-2.1741,-2.1741,-2.1741,-2.1741,-2.1741,-2.1741,-2.1741,-2.1741,-2.1741,-2.182,-2.2097,-2.2097,-2.2255,-2.2422,-2.2422,-2.2157,-2.1713,-2.1168,-2.0645,-2.0266,-1.9659,-1.8982,-1.8251,-1.773,-1.7199,-1.673,-1.673,-1.673,-1.673,-1.673,-1.673,-1.673,-1.673,-1.673,-1.673,-1.673,-1.673,-1.6643,-1.6285,-1.6206,-1.6079,-1.5602,-1.5499,-1.5459,-1.5332,-1.5133,-1.499,-1.499,-1.4792,-1.4569,-1.4569,-1.4569,-1.4569,-1.4569,-1.4569,-1.4569,-1.4569,-1.4569,-1.4569,-1.4569,-1.4569,-1.4569,-1.4569,-1.4569,-1.4569,-1.4569,-1.4569,-1.4346,-1.3833,-1.3833,-1.3615,-1.3185,-1.2673,-1.2526,-1.2732,-1.1632,-1.0812,-2.1942,-2.2335,-2.2455,-2.2892,-2.3001,-2.3001,-2.3001,-2.2979,-2.2968,-2.2968,-2.3318,-2.3624,0.0,0.0,-2.4388,-2.441,-2.4803,-2.512,-2.5164,-2.5568,-2.5874,0.0,0.0,0.0,0.0,0.0,0.0,-2.2969,0.0,-2.1741,-2.1741,-2.1741,-2.1741,-2.1741,-2.1741,-2.1741,-2.1741,-2.1741,-2.1741,-2.1741,-2.1741,-2.1731,-2.182,-2.182,-2.2176,-2.2882,-2.2882,-2.3212,-2.38,-2.38,-2.3086,-2.212,-2.2031,-2.1338,-2.0374,-2.0382,-1.9812,-1.9119,-1.833,-1.754,-1.6738,-1.6738,-1.6738,-1.673,-1.673,-1.673,-1.6738,-1.6738,-1.673,-1.673,-1.673,-1.673,-1.6643,-1.6269,-1.6174,-1.5991,-1.53,-1.5157,-1.5054,-1.4632,-1.4569,-1.4569,-1.4569,-1.4569,-1.4569,-1.4569,-1.4569,-1.4569,-1.4569,-1.4569,-1.4569,-1.4569,-1.4569,-1.4569,-1.4569,-1.4569,-1.4569,-1.4569,-1.4569,-1.4569,-1.4569,-1.4569,-1.4346,-1.3833,-1.3833,-1.3833,-1.3833,-1.3404,-1.3484,-1.3985,-1.207,-1.1111,-2.2116,-2.2564,-2.2859,-2.2968,-2.3001,-2.3001,-2.3001,-2.2739,-2.2488,-2.2488,-2.2302,-2.2138,0.0,0.0,0.0,-2.3329,-2.3787,0.0,-2.5065,-2.5273,0.0,-2.5852,0.0,-2.5895,-2.5895,-2.5295,0.0,0.0,-2.3222,-2.2264,-2.1731,-2.1741,-2.1909,-2.253,-2.1998,-2.2008,-2.2539,-2.1998,-2.2008,-2.253,-2.253,-2.2784,-2.328,-2.328,-2.3377,-2.3551,-2.3551,-2.3627,-2.38,-2.38,-2.3617,-2.326,-2.2385,-2.1854,-2.1516,-2.0988,-2.0157,-1.9247,-1.939,-1.8662,-1.7708,-1.7708,-1.7708,-1.7627,-1.731,-1.7229,-1.7147,-1.682,-1.673,-1.673,-1.673,-1.673,-1.6579,-1.596,-1.5817,-1.5618,-1.4927,-1.4784,-1.4752,-1.4585,-1.4569,-1.4569,-1.4569,-1.4569,-1.4569,-1.4569,-1.4569,-1.4569,-1.4569,-1.4569,-1.4569,-1.4569,-1.4569,-1.4569,-1.4569,-1.4569,-1.4569,-1.4569,-1.4569,-1.4569,-1.4569,-1.4569,-1.4569,-1.4425,-1.4425,-1.4425,-1.4425,-1.4057,-1.3615,-1.3164,-1.2365,-1.1335,-2.2433,-2.2805,-2.3001,-2.3001,-2.3001,-2.2947,-2.275,-2.2499,-2.2258,-2.204,-2.1778,0.0,-2.1592,-2.1811,0.0,0.0,0.0,0.0,-2.4137,-2.477,-2.5273,0.0,-2.5764,0.0,-2.5895,-2.5549,-2.5211,0.0,-2.358,-2.2627,-2.2176,-2.1909,-2.1919,-2.2264,-2.1909,-2.2087,-2.2794,-2.2696,-2.2862,-2.3212,-2.3212,-2.3464,-2.38,-2.38,-2.3973,-2.4241,-2.4241,-2.4413,-2.4754,-2.4754,-2.4584,-2.4241,-2.3531,-2.3096,-2.2736,-2.2069,-2.1286,-2.0587,-2.0259,-1.9651,-1.8825,-1.8193,-1.7878,-1.7716,-1.7473,-1.7229,-1.7066,-1.6738,-1.673,-1.673,-1.673,-1.673,-1.6555,-1.584,-1.5674,-1.5491,-1.4792,-1.4569,-1.4569,-1.4569,-1.4569,-1.4569,-1.4569,-1.4569,-1.4569,-1.4569,-1.4569,-1.4569,-1.4569,-1.4569,-1.4569,-1.4569,-1.4569,-1.4569,-1.4569,-1.4569,-1.4569,-1.4569,-1.4569,-1.4569,-1.4569,-1.4569,-1.4569,-1.4569,-1.4569,-1.4569,-1.4569,-1.4065,-1.3542,-1.2865,-1.1922,-1.0962,-2.275,-2.3001,-2.3001,-2.3001,-2.2957,-2.2805,-2.2411,-2.2215,-2.2007,-2.1581,0.0,-2.1396,-2.1396,-2.145,-2.1494,-2.1494,0.0,-2.2936,-2.299,-2.4203,-2.5109,-2.5164,-2.56,-2.5895,-2.5895,-2.5895,-2.5644,-2.5115,-2.3831,-2.3057,-2.2969,-2.2353,-2.1909,-2.183,-2.1909,-2.2264,-2.2794,-2.3387,-2.38,-2.3973,-2.3973,-2.3973,-2.4059,-2.4059,-2.4413,-2.5031,-2.5031,-2.538,-2.5895,-2.5895,-2.5559,-2.5031,-2.4946,-2.4509,-2.3887,-2.3076,-2.2709,-2.2309,-2.1116,-2.0504,-2.0001,-1.8585,-1.7959,-1.7635,-1.7473,-1.7229,-1.6812,-1.673,-1.673,-1.673,-1.673,-1.673,-1.6555,-1.584,-1.5674,-1.5491,-1.4792,-1.4569,-1.4569,-1.4569,-1.4569,-1.4569,-1.4569,-1.4569,-1.4569,-1.4569,-1.4569,-1.4569,-1.4569,-1.4569,-1.4569,-1.4569,-1.4569,-1.4569,-1.4569,-1.4569,-1.4569,-1.4569,-1.4569,-1.4569,-1.4569,-1.4569,-1.4569,-1.4569,-1.4569,-1.4569,-1.4569,-1.3928,-1.3331,-1.2718,-1.1248,-1.0288,-2.275,-2.3001,-2.3001,-2.3001,-2.2717,-2.2411,-2.2335,-2.1691,0.0,0.0,-2.0675,-2.0325,-2.0325,-2.0718,-2.1048,-2.1048,0.0,0.0,0.0,-2.3929,-2.4749,0.0,-2.56,-2.5895,-2.5895,-2.5895,0.0,0.0,-2.4946,-2.4251,-2.3627,-2.3541,-2.3202,-2.2618,-2.3125,-2.3202,-2.2803,-2.2882,-2.357,-2.468,-2.468,-2.5031,-2.5549,-2.5549,-2.5633,-2.5728,-2.5728,-2.5812,-2.5895,-2.5895,-2.5812,-2.5644,-2.5126,-2.4861,-2.4553,-2.3418,-2.2862,-2.2432,-2.1759,-2.0986,-2.0089,-1.9301,-1.9063,-1.8825,-1.8112,-1.7878,-1.7627,-1.6894,-1.673,-1.673,-1.673,-1.673,-1.6555,-1.584,-1.5674,-1.5491,-1.4792,-1.4569,-1.4569,-1.4569,-1.4569,-1.4569,-1.4569,-1.4569,-1.4569,-1.4569,-1.4569,-1.4569,-1.4569,-1.4569,-1.4569,-1.4569,-1.4569,-1.4569,-1.4569,-1.4569,-1.4569,-1.4569,-1.4569,-1.4569,-1.4569,-1.4569,-1.4569,-1.4569,-1.4569,-1.4569,-1.4569,-1.4353,-1.3462,-1.1896,-1.1452,-1.0421,-2.2455,-2.2652,-2.2652,-2.2652,-2.2291,-2.1876,-2.1614,0.0,0.0,0.0,-2.0303,-2.0085,-2.0085,-2.0336,0.0,-2.0489,0.0,0.0,0.0,0.0,0.0,-2.4727,-2.5229,-2.5622,0.0,-2.5895,-2.5895,-2.5895,-2.5644,-2.5115,-2.4413,-2.3973,-2.3627,-2.3299,-2.3983,-2.4251,-2.3917,-2.4262,-2.4775,-2.538,-2.538,-2.5559,-2.5895,-2.5895,-2.5895,-2.5895,-2.5895,-2.5895,-2.5895,-2.5895,-2.5895,-2.5895,-2.5549,-2.538,-2.5231,-2.4075,-2.3618,-2.3343,-2.2159,-2.1557,-2.1088,-2.0469,-1.9529,-1.8514,-1.8112,-1.7708,-1.7221,-1.682,-1.673,-1.673,-1.673,-1.673,-1.6555,-1.584,-1.5404,-1.5046,-1.4712,-1.4569,-1.4569,-1.4569,-1.4569,-1.4569,-1.4569,-1.4569,-1.4569,-1.4569,-1.4569,-1.4569,-1.4569,-1.4569,-1.4569,-1.4569,-1.4569,-1.4569,-1.4569,-1.4569,-1.4569,-1.4569,-1.4569,-1.4569,-1.4569,-1.4569,-1.4569,-1.4569,-1.4569,-1.4569,-1.4569,-1.4274,-1.3535,-1.2492,-1.1983,-1.1168,-2.2029,-2.216,-2.216,-2.216,-2.1712,-2.121,-2.0994,-2.0697,0.0,0.0,-2.0085,-2.0085,-2.0085,0.0,-2.0085,0.0,-2.0544,-2.1059,0.0,0.0,0.0,0.0,-2.476,0.0,-2.571,-2.5841,0.0,-2.5895,-2.5895,-2.5644,-2.5115,-2.4584,-2.4145,-2.4059,-2.4594,-2.4861,-2.4861,-2.538,-2.5728,-2.5895,-2.5895,-2.5895,-2.5895,-2.5895,-2.5895,-2.5895,-2.5895,-2.5895,-2.5895,-2.5895,-2.5895,-2.5895,-2.5895,-2.5895,-2.5746,-2.4634,-2.4288,-2.4241,-2.261,-2.2097,-2.2025,-2.1395,-1.9913,-1.8353,-1.8273,-1.7546,-1.6812,-1.6738,-1.673,-1.673,-1.673,-1.6675,-1.6444,-1.5737,-1.5094,-1.4569,-1.4569,-1.4569,-1.4569,-1.4569,-1.4569,-1.4569,-1.4569,-1.4569,-1.4569,-1.4569,-1.4569,-1.4569,-1.4569,-1.4569,-1.4569,-1.4569,-1.4569,-1.4569,-1.4569,-1.4569,-1.4569,-1.4569,-1.4569,-1.4569,-1.4569,-1.4569,-1.4569,-1.4569,-1.4569,-1.4569,-1.4569,-1.4201,-1.368,-1.3164,-1.2512,-1.1916,-2.1527,-2.1658,-2.1658,-2.1658,-2.0959,-2.038,-2.0773,0.0,0.0,-1.9998,-2.0085,-2.0085,-2.0085,-2.0085,-2.0085,-2.0085,0.0,-2.0939,0.0,0.0,0.0,0.0,0.0,0.0,-2.5229,-2.5644,-2.5895,-2.5895,-2.5895,-2.5895,-2.5812,-2.5728,-2.5464,-2.4861,-2.4861,-2.4861,-2.4861,-2.4946,-2.5295,-2.5895,-2.5895,-2.5895,-2.5895,-2.5895,-2.5895,-2.5895,-2.5895,-2.5895,-2.5895,-2.5895,-2.5895,-2.5895,-2.5895,-2.5895,-2.5786,-2.4799,-2.444,-2.4355,-2.3243,-2.251,-2.2025,-2.1395,-2.0382,-1.9362,-1.9045,-1.8175,-1.7229,-1.682,-1.673,-1.673,-1.673,-1.6492,-1.6079,-1.5396,-1.4927,-1.4569,-1.4569,-1.4569,-1.4569,-1.4569,-1.4569,-1.4569,-1.4569,-1.4569,-1.4569,-1.4569,-1.4569,-1.4569,-1.4569,-1.4569,-1.4569,-1.4569,-1.4569,-1.4569,-1.4569,-1.4569,-1.4569,-1.4569,-1.4569,-1.4569,-1.4569,-1.4569,-1.4569,-1.4569,-1.4569,-1.4569,-1.4569,-1.4569,-1.4049,-1.3164,-1.2938,-1.2345,-2.0227,-2.0282,-2.0282,-2.0282,-1.9768,-1.9397,-1.9878,0.0,-1.9561,-1.9976,-2.0085,-2.0085,-2.0085,-2.0085,-2.0085,-2.0085,-2.0303,0.0,-2.0817,0.0,0.0,0.0,-2.3777,0.0,0.0,0.0,-2.559,-2.5884,-2.5895,-2.5895,-2.5895,-2.5895,-2.5812,-2.5549,-2.5464,-2.5464,-2.5464,-2.5464,-2.5644,-2.5895,-2.5895,-2.5895,-2.5895,-2.5895,-2.5895,-2.5895,-2.5895,-2.5895,-2.5895,-2.5895,-2.5895,-2.5895,-2.5895,-2.5721,-2.5382,-2.4727,-2.4301,-2.3929,-2.3241,-2.2628,-2.2025,-2.1461,-2.0362,-1.9125,-1.8576,-1.77,-1.6902,-1.6738,-1.673,-1.673,-1.673,-1.6309,-1.5769,-1.53,-1.4911,-1.4569,-1.4569,-1.4569,-1.4569,-1.4569,-1.4569,-1.4569,-1.4569,-1.4569,-1.4569,-1.4569,-1.4569,-1.4569,-1.4569,-1.4569,-1.4569,-1.4569,-1.4569,-1.4569,-1.4569,-1.4569,-1.4569,-1.4569,-1.4569,-1.4569,-1.4569,-1.4569,-1.4569,-1.4569,-1.4569,-1.4569,-1.4569,-1.4569,-1.4418,-1.4049,-1.3753,-1.3382,-1.92,-1.92,-1.92,-1.92,-1.884,-1.8611,0.0,0.0,-1.9342,-1.9834,-1.9976,-2.0085,-2.0085,-2.0085,-2.0085,-2.0085,-2.0085,-2.026,-2.0598,-2.1068,0.0,0.0,0.0,-2.3897,0.0,-2.5218,-2.5524,-2.5874,-2.5895,-2.5895,-2.5895,-2.5895,-2.5895,-2.5895,-2.5895,-2.5895,-2.5895,-2.5895,-2.5895,-2.5895,-2.5895,-2.5895,-2.5895,-2.5895,-2.5895,-2.5895,-2.5895,-2.5895,-2.5895,-2.5895,-2.5895,-2.5884,-2.5742,-2.548,-2.5098,-2.4486,-2.4039,-2.3656,-2.3176,-2.2703,-2.2252,-2.1766,-2.075,-1.958,-1.8736,-1.7619,-1.673,-1.673,-1.6659,-1.6555,-1.6444,-1.5975,-1.5443,-1.511,-1.4824,-1.4569,-1.4569,-1.4569,-1.4569,-1.4569,-1.4569,-1.4569,-1.4569,-1.4569,-1.4569,-1.4569,-1.4569,-1.4569,-1.4569,-1.4569,-1.4569,-1.4569,-1.4569,-1.4569,-1.4569,-1.4569,-1.4569,-1.4569,-1.4569,-1.4569,-1.4569,-1.4569,-1.4569,-1.4569,-1.4569,-1.4569,-1.4569,-1.4569,-1.4569,-1.4497,-1.4209,-1.3912,-1.8698,-1.8698,-1.8698,-1.8698,-1.8348,-1.813,0.0,-1.8698,-1.884,-1.9321,-1.9812,-2.0085,-2.0085,-2.0085,-2.0085,-2.0085,-2.0085,0.0,-2.0085,-2.0566,0.0,0.0,0.0,-2.3394,-2.4399,-2.5349,-2.5895,-2.5895,-2.5895,0.0,-2.5895,-2.5895,-2.5895,-2.5895,-2.5895,-2.5895,-2.5895,-2.5895,-2.5895,-2.5895,-2.5895,-2.5895,-2.5895,-2.5895,-2.5895,-2.5895,-2.5895,-2.5895,-2.5895,-2.5895,-2.5895,-2.5852,-2.5371,-2.5175,-2.5054,-2.4093,-2.3733,-2.3656,-2.3176,-2.3001,-2.2927,-2.2327,-2.1766,-2.1125,-1.9982,-1.8247,-1.673,-1.673,-1.6484,-1.6134,-1.5777,-1.5443,-1.5102,-1.4728,-1.4569,-1.4569,-1.4569,-1.4569,-1.4569,-1.4569,-1.4569,-1.4569,-1.4569,-1.4569,-1.4569,-1.4569,-1.4569,-1.4569,-1.4569,-1.4569,-1.4569,-1.4569,-1.4569,-1.4569,-1.4569,-1.4569,-1.4569,-1.4569,-1.4569,-1.4569,-1.4569,-1.4569,-1.4569,-1.4569,-1.4569,-1.4569,-1.4569,-1.4569,-1.4497,-1.4425,-1.4201,-1.347,-1.7726,-1.7726,-1.7726,-1.7726,-1.7617,-1.7639,-1.8108,-1.8228,-1.8348,-1.8829,-1.931,-1.9648,-1.9648,-1.9857,-2.0085,-2.0085,-2.0085,-2.0085,0.0,0.0,0.0,-2.1527,-2.2717,-2.3755,0.0,0.0,-2.5546,-2.5874,-2.5895,-2.5895,-2.5895,-2.5895,-2.5895,-2.5895,-2.5895,-2.5895,-2.5895,-2.5895,-2.5895,-2.5895,-2.5895,-2.5895,-2.5895,-2.5895,-2.5895,-2.5895,-2.5895,-2.5895,-2.5895,-2.5895,-2.5895,-2.5852,-2.536,-2.4978,-2.4628,-2.3973,-2.3514,-2.3209,-2.3056,-2.2703,-2.2317,-2.1766,-2.1211,-2.0653,-1.9972,-1.9116,-1.8167,-1.7708,-1.7128,-1.6599,-1.6223,-1.5654,-1.5094,-1.4728,-1.4569,-1.4569,-1.4569,-1.4569,-1.4569,-1.4569,-1.4569,-1.4569,-1.4569,-1.4569,-1.4569,-1.4569,-1.4569,-1.4569,-1.4569,-1.4569,-1.4569,-1.4569,-1.4569,-1.4569,-1.4569,-1.4569,-1.4569,-1.4569,-1.4569,-1.4569,-1.4569,-1.4569,-1.4569,-1.4569,-1.4569,-1.4569,-1.4569,-1.4569,-1.4194,-1.3382,-1.3702,-1.3039,0.0,-1.7136,-1.7278,-1.7278,-1.7278,0.0,0.0,-1.7868,-1.8086,-1.837,-1.8757,-1.9149,-1.9386,-1.9606,-1.9803,-2.0053,-2.0085,0.0,0.0,0.0,0.0,-2.1505,0.0,0.0,0.0,-2.4792,-2.5295,-2.56,-2.5797,-2.5895,-2.5895,-2.5895,-2.5819,-2.5633,-2.5808,-2.5895,-2.5895,-2.5895,-2.5895,-2.5895,-2.5895,-2.5895,-2.5895,-2.5895,-2.5895,-2.5895,-2.5895,-2.5895,0.0,-2.5895,-2.5797,-2.5579,-2.5098,-2.4618,-2.4148,-2.3635,-2.3263,-2.3001,-2.3001,-2.2777,-2.2392,-2.2069,-2.1593,-2.1058,-2.0692,-1.9982,-1.9088,-1.8479,-1.7692,-1.6859,-1.6397,-1.5675,-1.4919,-1.4697,-1.4569,-1.4569,-1.4569,-1.4569,-1.4569,-1.4569,-1.4569,-1.4569,-1.4569,-1.4569,-1.4569,-1.4569,-1.4569,-1.4569,-1.4569,-1.4569,-1.4569,-1.4569,-1.4569,-1.4569,-1.4569,-1.4569,-1.4569,-1.4569,-1.4569,-1.4569,-1.4569,-1.4569,-1.4569,-1.4569,-1.4569,-1.4569,-1.4569,-1.4569,-1.4129,-1.3382,-1.3637,-1.2973,0.0,0.0,0.0,0.0,0.0,0.0,-1.7278,-1.7628,0.0,-1.7955,-1.8219,-1.8624,-1.9171,-1.9239,-1.9371,-1.9955,-2.0053,0.0,0.0,-2.014,0.0,0.0,-2.2826,0.0,-2.3722,-2.4541,-2.5087,-2.512,-2.5546,-2.5797,-2.5797,-2.5797,-2.559,-2.5131,-2.5557,-2.5797,-2.5797,-2.5797,-2.5797,-2.5797,-2.5797,-2.5797,-2.5797,-2.5797,-2.5819,-2.5852,-2.5808,-2.5819,-2.5852,-2.5808,-2.5535,-2.5076,-2.4618,-2.4148,-2.3667,-2.3176,-2.3001,-2.3001,-2.3001,-2.3001,-2.3001,-2.3001,-2.2628,-2.2101,-2.1873,-2.0779,-1.9515,-1.9019,-1.7939,-1.6807,-1.6357,-1.5404,-1.4569,-1.4569,-1.4569,-1.4569,-1.4569,-1.4569,-1.4569,-1.4569,-1.4569,-1.4569,-1.4569,-1.4569,-1.4569,-1.4569,-1.4569,-1.4569,-1.4569,-1.4569,-1.4569,-1.4569,-1.4569,-1.4569,-1.4569,-1.4569,-1.4569,-1.4569,-1.4569,-1.4569,-1.4569,-1.4569,-1.4569,-1.4569,-1.4569,-1.4569,-1.4569,-1.4497,-1.4281,-1.4057,-1.3855,-1.3266,-1.4908,0.0,-1.647,-1.6834,-1.6931,-1.692,0.0,-1.7164,-1.7307,0.0,0.0,0.0,-1.8186,-1.8754,-1.9284,-1.9371,0.0,0.0,-2.0085,0.0,0.0,-2.1559,-2.2531,-2.3318,-2.37,-2.3929,-2.4235,-2.4618,-2.476,-2.4825,-2.4825,-2.4825,-2.477,-2.465,-2.476,-2.4825,-2.4825,-2.4825,-2.4825,-2.4825,-2.4825,-2.4825,-2.4825,-2.4825,-2.5011,-2.5327,-2.4978,-2.5022,-2.5317,-2.4967,-2.4749,-2.4596,-2.4104,-2.3831,-2.3667,-2.3176,-2.3001,-2.3001,-2.3001,-2.3001,-2.3001,-2.3001,-2.2777,-2.2402,-2.169,-2.0605,-1.9515,-1.8951,-1.7711,-1.6355,-1.5996,-1.5267,-1.4569,-1.4569,-1.4569,-1.4569,-1.4569,-1.4569,-1.4569,-1.4569,-1.4569,-1.4569,-1.4569,-1.4569,-1.4569,-1.4569,-1.4569,-1.4569,-1.4569,-1.4569,-1.4569,-1.4569,-1.4569,-1.4569,-1.4569,-1.4569,-1.4569,-1.4569,-1.4569,-1.4569,-1.4569,-1.4569,-1.4569,-1.4569,-1.4569,-1.4569,-1.4569,-1.4497,-1.4057,-1.339,-1.371,-1.3032,-1.4351,-1.5237,-1.6169,-1.6424,-1.6648,-1.6807,0.0,0.0,0.0,0.0,0.0,0.0,0.0,0.0,0.0,0.0,-1.9372,0.0,0.0,0.0,-2.1592,-2.1592,-2.2422,-2.311,0.0,-2.3591,-2.3842,-2.4126,-2.4355,-2.4486,-2.4486,-2.4486,-2.4377,-2.4148,-2.4137,-2.4257,-2.4486,-2.4486,-2.4486,-2.4486,-2.4486,-2.4486,-2.4486,-2.4486,-2.4628,-2.4847,-2.4596,-2.4628,-2.4836,-2.4585,-2.4344,-2.4115,-2.3842,-2.3591,-2.3362,-2.3099,-2.3001,-2.3001,-2.3001,-2.3001,-2.3001,-2.2927,-2.2542,-2.2069,-2.1766,-2.0544,-1.9149,-1.875,-1.7645,-1.6464,-1.5934,-1.5217,-1.4569,-1.4569,-1.4569,-1.4569,-1.4569,-1.4569,-1.4569,-1.4569,-1.4569,-1.4569,-1.4569,-1.4569,-1.4569,-1.4569,-1.4569,-1.4569,-1.4569,-1.4569,-1.4569,-1.4569,-1.4569,-1.4569,-1.4569,-1.4569,-1.4569,-1.4569,-1.4569,-1.4569,-1.4569,-1.4569,-1.4569,-1.4569,-1.4569,-1.4569,-1.4569,-1.4497,-1.4274,-1.376,-1.3992,-1.3404,-1.4097,-1.4966,-1.5871,-1.6019,-1.6358,-1.6666,0.0,0.0,0.0,0.0,0.0,0.0,0.0,0.0,0.0,0.0,0.0,0.0,-2.0009,-2.0915,-2.1505,-2.1581,-2.2368,0.0,-2.299,-2.3372,-2.3613,-2.3613,-2.4017,-2.4257,-2.4257,-2.4257,-2.4061,-2.3635,-2.3613,-2.382,-2.4257,-2.4257,-2.4257,-2.4257,-2.4257,-2.4257,-2.4257,-2.4257,-2.4301,-2.4366,-2.429,-2.4301,-2.4366,-2.429,-2.4006,-2.3613,-2.3613,-2.3362,-2.3001,-2.3001,-2.3001,-2.3001,-2.3001,-2.3001,-2.3001,-2.2777,-2.2145,-2.1583,-2.178,-2.049,-1.8957,-1.8406,-1.7611,-1.6727,-1.6014,-1.5204,-1.4569,-1.4569,-1.4569,-1.4569,-1.4569,-1.4569,-1.4569,-1.4569,-1.4569,-1.4569,-1.4569,-1.4569,-1.4569,-1.4569,-1.4569,-1.4569,-1.4569,-1.4569,-1.4569,-1.4569,-1.4569,-1.4569,-1.4569,-1.4569,-1.4569,-1.4569,-1.4569,-1.4569,-1.4569,-1.4569,-1.4569,-1.4569,-1.4569,-1.4569,-1.4569,-1.4569,-1.4569,-1.4425,-1.4433,-1.4065,-1.3703,-1.4107,-1.4759,-1.5538,-1.5797,-1.5998,-1.6486,0.0,0.0,0.0,0.0,0.0,0.0,0.0,-1.7434,0.0,0.0,-1.9445,0.0,0.0,-2.1123,-2.1538,0.0,-2.2575,-2.2957,-2.3067,-2.311,-2.311,-2.3187,-2.323,-2.323,-2.323,-2.3198,-2.311,-2.311,-2.3154,-2.323,-2.323,-2.323,-2.323,-2.323,-2.323,-2.323,-2.323,-2.346,-2.382,-2.3405,-2.346,-2.3809,-2.3405,-2.3187,-2.311,-2.311,-2.3067,-2.3001,-2.3001,-2.3001,-2.3001,-2.3001,-2.3001,-2.3001,-2.2777,-2.2478,-2.2017,-2.0872,-2.0112,-1.9437,-1.7998,-1.6989,-1.6319,-1.5882,-1.5204,-1.4569,-1.4569,-1.4569,-1.4569,-1.4569,-1.4569,-1.4569,-1.4569,-1.4569,-1.4569,-1.4569,-1.4569,-1.4569,-1.4569,-1.4569,-1.4569,-1.4569,-1.4569,-1.4569,-1.4569,-1.4569,-1.4569,-1.4569,-1.4569,-1.4569,-1.4569,-1.4569,-1.4569,-1.4569,-1.4569,-1.4569,-1.4569,-1.4569,-1.4569,-1.4569,-1.4569,-1.4569,-1.4569,-1.4425,-1.4353,-1.3563,-1.3776,-1.4097,-1.4769,-1.5318,-1.586,-1.6373,0.0,0.0,0.0,0.0,0.0,0.0,0.0,-1.7249,-1.7878,0.0,-1.9403,-2.002,-2.0555,-2.1035,0.0,0.0,-2.2499,-2.2957,-2.3001,-2.3001,-2.3001,-2.3001,-2.3001,-2.3001,-2.3001,-2.3001,-2.3001,-2.3001,-2.3001,-2.3001,-2.3001,-2.3001,-2.3001,-2.3001,-2.3001,-2.3001,-2.3001,-2.3121,-2.3329,-2.3099,-2.3121,-2.3318,-2.3088,-2.3001,-2.3001,-2.3001,-2.3001,-2.3001,-2.3001,-2.3001,-2.3001,-2.3001,-2.2927,-2.2777,-2.2628,-2.1922,-2.1148,-2.0795,-1.9949,-1.9058,-1.8801,-1.7834,-1.6812,-1.6483,-1.6105,-1.5824,-1.5824,-1.5824,-1.5754,-1.5338,-1.5275,-1.5133,-1.4713,-1.4569,-1.4569,-1.4569,-1.4569,-1.4569,-1.4569,-1.4569,-1.4569,-1.4569,-1.4569,-1.4569,-1.4569,-1.4569,-1.4569,-1.4569,-1.4466,-1.4434,-1.4553,-1.4569,-1.4482,-1.4363,-1.4355,-1.4268,-1.4069,-1.426,-1.4355,-1.4355,-1.4474,-1.4569,-1.4569,-1.4569,-1.4346,-1.3515,-1.3563,-1.3676,-1.419,0.0,-1.5649,-1.6115,0.0,0.0,0.0,0.0,0.0,0.0,-1.6591,0.0,-1.8315,-1.879,-1.9295,-1.9998,-2.0456,-2.0871,-2.1363,-2.1745,-2.216,-2.263,-2.2673,-2.2673,-2.2673,-2.2673,-2.2673,-2.2673,-2.2673,-2.2673,-2.2673,-2.2783,-2.2848,-2.2848,-2.2947,-2.3001,-2.3001,-2.3001,-2.3001,-2.3001,-2.3001,-2.3001,-2.3001,-2.3001,-2.3001,-2.3001,-2.3001,-2.3001,-2.3001,-2.3001,-2.3001,-2.3001,-2.3001,-2.3001,-2.3001,-2.2927,-2.2852,-2.2606,-2.2275,-2.1383,-2.0545,-2.0709,-1.9869,-1.8944,-1.9486,-1.8815,-1.775,-1.7292,-1.7001,-1.6932,-1.6932,-1.6793,-1.6585,-1.6035,-1.5833,-1.5621,-1.4848,-1.4713,-1.4705,-1.4641,-1.4569,-1.4569,-1.4569,-1.4569,-1.4569,-1.4569,-1.4569,-1.4569,-1.4569,-1.4569,-1.4609,-1.4522,-1.4268,-1.4188,-1.4379,-1.4395,-1.4268,-1.3997,-1.3989,-1.3862,-1.3584,-1.3854,-1.4029,-1.4109,-1.4387,-1.449,-1.4569,-1.4569,-1.4346,-1.3362,-1.3409,-1.357,-1.414,0.0,0.0,-1.5628,-1.6073,0.0,-1.6384,0.0,0.0,0.0,-1.6534,-1.7058,-1.8315,-1.8509,-1.8905,-1.9955,0.0,-2.0369,-2.086,-2.1016,-2.1155,-2.1647,-2.1691,-2.1691,-2.1691,-2.1691,-2.1691,-2.1691,-2.1691,-2.1691,-2.1691,-2.2127,-2.2368,-2.2368,-2.2783,-2.3001,-2.3001,-2.3001,-2.3001,-2.3001,-2.3001,-2.3001,-2.3001,-2.3001,-2.3001,-2.3001,-2.3001,-2.3001,-2.3001,-2.3001,-2.3001,-2.3001,-2.3001,-2.3001,-2.3001,-2.2777,-2.2703,-2.2553,-2.1745,-2.1429,-2.1167,-2.018,-1.981,-1.9665,-1.9385,-1.926,-1.8972,-1.8114,-1.7413,-1.6932,-1.6932,-1.6585,-1.6306,-1.6306,-1.6035,-1.5692,-1.5275,-1.5133,-1.5062,-1.4641,-1.4569,-1.4569,-1.4569,-1.4569,-1.4569,-1.4569,-1.4569,-1.4569,-1.4569,-1.4569,-1.4435,-1.418,-1.4125,-1.3982,-1.368,-1.3656,-1.3648,-1.3624,-1.3624,-1.3608,-1.3584,-1.3608,-1.3783,-1.4109,-1.414,-1.4323,-1.4569,-1.4569,-1.4569,-1.3266,-1.3314,-1.345,-1.3682,0.0,0.0,0.0,0.0,0.0,-1.6322,-1.6431,0.0,0.0,0.0,-1.7162,-1.8173,-1.8516,-1.8975,-1.9944,-2.0085,-2.0325,-2.0873,-2.0928,-2.1046,-2.1538,-2.1592,-2.1592,-2.1592,-2.1592,-2.1592,-2.1592,-2.1592,-2.1592,-2.1592,-2.1767,-2.1865,-2.1865,-2.204,-2.2116,-2.2127,-2.2717,-2.3001,-2.3001,-2.3001,-2.3001,-2.3001,-2.3001,-2.3001,-2.3001,-2.3001,-2.3001,-2.3001,-2.3001,-2.3001,-2.3001,-2.3001,-2.3001,-2.2957,-2.26,-2.2345,-2.2174,-2.1568,-2.1083,-2.0635,-2.0218,-1.9902,-1.9638,-1.9526,-1.9483,-1.9407,-1.9065,-1.8787,-1.8509,-1.8182,-1.7978,-1.7628,-1.6811,-1.6394,-1.5965,-1.5338,-1.4991,-1.4776,-1.4641,-1.4569,-1.4569,-1.4569,-1.4569,-1.4569,-1.4569,-1.4569,-1.4569,-1.4569,-1.4442,-1.4164,-1.3815,-1.3592,-1.333,-1.2973,-1.3346,-1.3489,-1.3282,-1.3282,-1.3171,-1.2949,-1.3163,-1.3346,-1.3481,-1.368,-1.3854,-1.3982,-1.363,-1.3493,-1.318,-1.3266,-1.3362,0.0,0.0,0.0,0.0,0.0,0.0,-1.628,-1.6384,0.0,0.0,0.0,0.0,0.0,-1.8468,-1.8971,-1.9737,-1.9987,-2.0271,-2.0598,-2.0631,-2.0762,-2.1101,-2.1134,-2.1134,-2.1134,-2.1134,-2.1134,-2.1134,-2.1134,-2.1134,-2.1134,-2.1275,-2.1363,-2.1363,-2.1516,-2.1592,-2.1592,-2.2248,-2.2641,-2.2783,-2.2783,-2.2859,-2.3001,-2.3001,-2.3001,-2.3001,-2.3001,-2.3001,-2.299,-2.2848,-2.2783,-2.2772,-2.2608,-2.2553,-2.251,-2.2121,-2.1858,-2.1689,-2.1167,-2.0653,-2.0296,-2.0137,-1.986,-1.9605,-1.9671,-1.9671,-1.9671,-1.9747,-1.9539,-1.9274,-1.8875,-1.8741,-1.8405,-1.7451,-1.7088,-1.6655,-1.5754,-1.5338,-1.4982,-1.4641,-1.4569,-1.4569,-1.4569,-1.4569,-1.4569,-1.4569,-1.4569,-1.4569,-1.4569,-1.4323,-1.3966,-1.3616,-1.3282,-1.2941,-1.2645,-1.3004,-1.3163,-1.2933,-1.2925,-1.2806,-1.2629,-1.2798,-1.2981,-1.3092,-1.3322,-1.3481,-1.3584,-1.3243,-1.3035,-1.318,-1.3218,-1.3266,0.0,0.0,0.0,0.0,0.0,0.0,-1.628,0.0,-1.6545,-1.6899,-1.6909,0.0,-1.7865,-1.8392,-1.8851,-1.9353,-1.977,-2.0074,-2.0085,-2.0085,-2.0085,-2.0085,-2.0085,-2.0085,-2.0085,-2.0085,-2.0085,-2.0085,-2.0085,-2.0085,-2.0085,-2.0609,-2.0917,-2.0917,-2.133,-2.1581,-2.1581,-2.1581,-2.1832,-2.2313,-2.2313,-2.2553,-2.299,-2.299,-2.299,-2.299,-2.299,-2.299,-2.2936,-2.2488,-2.2313,-2.2248,-2.1767,-2.1592,-2.1592,-2.1371,-2.1301,-2.1226,-2.0535,-2.0318,-2.0222,-1.9754,-1.9605,-1.9671,-1.9878,-1.9868,-1.9933,-2.0085,-1.9473,-1.8808,-1.8808,-1.8539,-1.8269,-1.8008,-1.8144,-1.791,-1.6585,-1.6306,-1.5956,-1.4776,-1.4641,-1.4569,-1.4569,-1.4569,-1.4569,-1.4569,-1.4569,-1.4569,-1.4569,-1.4323,-1.3966,-1.3616,-1.3282,-1.2933,-1.2645,-1.2621,-1.2621,-1.2621,-1.2621,-1.2621,-1.2621,-1.2621,-1.2734,-1.3084,-1.3084,-1.3251,-1.3576,-1.3576,-1.3568,-1.2968,-1.3094,0.0,0.0,0.0,0.0,0.0,0.0,0.0,0.0,-1.6545,-1.6705,-1.6684,-1.6976,0.0,-1.7796,-1.806,-1.849,-1.931,-1.9539,-1.9693,-2.0042,-2.0085,-2.0085,-2.0085,-2.0085,-2.0085,-2.0085,-2.0085,-2.0085,-2.0085,-2.0085,-2.0085,-2.0085,-2.0282,-2.0358,-2.0358,-2.05,-2.0577,-2.0577,-2.0577,-2.1013,-2.1811,-2.1811,-2.1876,-2.2007,-2.2007,-2.2007,-2.2007,-2.2007,-2.2007,-2.1996,-2.1854,-2.1811,-2.1789,-2.1647,-2.1592,-2.1538,-2.112,-2.1011,-2.0924,-2.0322,-2.016,-2.0128,-1.9987,-1.9944,-1.9944,-2.0009,-2.0009,-2.0074,-2.0085,-1.955,-1.9008,-1.9008,-1.8808,-1.8539,-1.8076,-1.7442,-1.6932,-1.706,-1.6026,-1.5196,-1.5409,-1.4991,-1.4569,-1.4569,-1.4569,-1.4569,-1.4569,-1.4569,-1.4569,-1.4569,-1.4101,-1.3696,-1.3592,-1.3052,-1.2733,-1.2637,-1.2621,-1.2621,-1.2621,-1.2621,-1.2621,-1.2621,-1.2621,-1.2677,-1.2718,-1.2718,-1.2774,-1.2869,-1.2538,-1.2348,-1.3007,-1.3132,0.0,0.0,0.0,0.0,0.0,0.0,0.0,0.0,0.0,-1.6648,-1.6694,-1.6931,0.0,-1.7546,-1.7821,-1.8206,-1.8774,-1.9015,-1.931,-1.9737,-1.9791,-1.9868,-2.0064,-2.0085,-2.0085,-2.0085,-2.0085,-2.0085,-2.0085,-2.0085,-2.0085,-2.0085,-2.0085,-2.0085,-2.0085,-2.0085,-2.0085,-2.0085,-2.0085,-2.0445,-2.1024,-2.121,-2.1407,-2.1592,-2.1592,-2.1592,-2.1592,-2.1592,-2.1592,-2.157,-2.1374,-2.1297,-2.1275,-2.1079,-2.1013,-2.097,-2.0675,-2.0577,-2.0533,-2.0238,-2.0085,-2.0085,-2.0085,-2.0085,-2.0085,-2.0085,-2.0085,-2.0085,-2.0009,-1.9736,-1.933,-1.9142,-1.8942,-1.8674,-1.8279,-1.7842,-1.755,-1.7619,-1.6715,-1.6026,-1.6175,-1.5824,-1.5542,-1.5542,-1.5267,-1.4991,-1.4641,-1.4569,-1.4514,-1.445,-1.3918,-1.3529,-1.3402,-1.2885,-1.2621,-1.2621,-1.2621,-1.2621,-1.2621,-1.2621,-1.2621,-1.2621,-1.2621,-1.2621,-1.2621,-1.2621,-1.2621,-1.256,-1.2243,-1.212,-1.317,0.0,0.0,0.0,0.0,0.0,0.0,0.0,-1.5711,-1.6208,0.0,-1.6488,-1.6761,-1.6818,-1.6931,-1.7278,-1.7649,-1.7955,-1.7999,-1.8359,-1.8807,-1.9288,-1.9353,-1.9528,-2.0029,-2.0073,-2.0095,-2.0204,-2.0204,-2.0226,-2.0205,-2.0205,-2.014,-2.0085,-2.0085,-2.0085,-2.0085,-2.0085,-2.0085,-2.0085,-2.0085,-2.0085,-2.0096,-2.0598,-2.1035,-2.1461,-2.1461,-2.1461,-2.1461,-2.1461,-2.1461,-2.1417,-2.097,-2.0795,-2.074,-2.0303,-2.0085,-2.0085,-2.0085,-2.0085,-2.0085,-2.0085,-2.0085,-2.0085,-2.0085,-2.0085,-2.0085,-2.0085,-2.0085,-2.0074,-1.9944,-1.9933,-1.9802,-1.9274,-1.9008,-1.8818,-1.8617,-1.8875,-1.8998,-1.824,-1.7969,-1.7696,-1.707,-1.6932,-1.6932,-1.6932,-1.6315,-1.5621,-1.4776,-1.4681,-1.4537,-1.414,-1.3767,-1.3418,-1.3116,-1.2766,-1.2621,-1.2621,-1.2621,-1.2621,-1.2621,-1.2621,-1.2621,-1.2621,-1.2621,-1.2621,-1.2621,-1.2621,-1.2621,-1.2621,-1.2621,-1.2621,0.0,-1.319,0.0,0.0,0.0,0.0,0.0,-1.4469,-1.4842,-1.567,-1.6283,-1.6705,-1.6818,-1.7043,-1.7222,-1.7278,-1.7366,-1.7573,-1.7955,-1.8086,-1.8327,-1.8796,-1.8851,-1.9066,-1.9591,-1.9652,-2.0004,-2.0956,-2.1052,-2.0981,-2.0858,-2.088,-2.0635,-2.0151,-2.0085,-2.0085,-2.0085,-2.0085,-2.0085,-2.0085,-2.0085,-2.0085,-2.0085,-2.0183,-2.0358,-2.039,-2.039,-2.039,-2.039,-2.039,-2.039,-2.0379,-2.0347,-2.0303,-2.0293,-2.0118,-2.0085,-2.0085,-2.0085,-2.0085,-2.0085,-2.0085,-2.0085,-2.0085,-2.0085,-2.0085,-2.0085,-2.0085,-2.0085,-2.0074,-2.0074,-2.0009,-1.9802,-1.9539,-1.9341,-1.9208,-1.9152,-1.8664,-1.8385,-1.8798,-1.7901,-1.7276,-1.7687,-1.7276,-1.6932,-1.6932,-1.6793,-1.6376,-1.5621,-1.5289,-1.4794,-1.4186,-1.3561,-1.3171,-1.31,-1.2766,-1.2621,-1.2621,-1.2621,-1.2621,-1.2621,-1.2621,-1.2621,-1.2621,-1.2621,-1.2621,-1.2621,-1.2621,-1.2621,-1.2621,-1.2621,-1.2621,0.0,0.0,0.0,0.0,0.0,0.0,0.0,-1.4198,-1.4549,-1.5039,-1.5783,-1.6486,-1.6775,-1.6976,-1.7211,-1.7278,-1.7534,-1.7779,-1.8036,-1.8306,-1.8656,-1.9137,-1.9194,-1.9402,-1.9878,-1.9901,-2.0194,-2.0935,-2.0959,-2.0949,-2.0864,-2.0875,-2.0705,-2.0227,-1.9929,-1.9816,-1.9816,-1.9566,-1.9452,-1.9452,-1.9452,-1.9572,-1.9748,-1.9976,-2.0085,-2.0085,-2.0085,-2.0085,-2.0085,-2.0085,-2.0085,-2.0085,-2.0085,-2.0085,-2.0085,-2.0085,-2.0085,-2.0085,-2.0085,-2.0085,-2.0085,-2.0085,-2.0085,-2.0085,-2.0085,-2.0085,-2.0085,-2.0085,-2.0085,-2.0074,-1.9878,-1.9868,-1.9868,-1.9671,-1.9473,-1.9285,-1.9208,-1.8865,-1.8654,-1.8998,-1.8452,-1.8104,-1.8452,-1.824,-1.7901,-1.756,-1.755,-1.7073,-1.5791,-1.5377,-1.4774,-1.3723,-1.3306,-1.302,-1.2853,-1.2733,-1.2621,-1.2621,-1.2621,-1.2621,-1.2621,-1.2621,-1.2621,-1.2621,-1.2621,-1.2621,-1.2621,-1.2621,-1.2621,-1.2621,-1.2621,-1.2621,0.0,0.0,0.0,0.0,0.0,0.0,0.0,-1.4201,-1.4605,-1.4641,-1.5278,-1.6062,-1.6761,-1.7003,-1.7203,-1.7534,-1.7952,-1.8267,-1.8267,-1.8709,-1.9143,-1.9509,-1.9557,-1.9793,-2.0225,-2.033,-2.0411,-2.0778,-2.0778,-2.0758,-2.0799,-2.0811,-2.0698,-2.0423,-1.996,-1.9678,-1.9678,-1.9216,-1.8977,-1.8977,-1.8868,-1.9017,-1.931,-1.9714,-1.9922,-2.0085,-2.0085,-2.0085,-2.0085,-2.0085,-2.0085,-2.0085,-2.0085,-2.0085,-2.0085,-2.0085,-2.0085,-2.0085,-2.0085,-2.0085,-2.0085,-2.0085,-2.0085,-2.0085,-2.0085,-2.002,-1.9955,-1.9955,-1.99,-1.976,-1.9501,-1.9566,-1.962,-1.9425,-1.924,-1.9152,-1.9233,-1.9198,-1.9208,-1.9208,-1.9208,-1.9208,-1.9208,-1.9274,-1.9142,-1.8519,-1.8382,-1.7658,-1.5909,-1.5396,-1.4686,-1.3276,-1.3036,-1.2877,-1.2653,-1.2621,-1.2621,-1.2621,-1.2621,-1.2621,-1.2621,-1.2621,-1.2621,-1.2621,-1.2621,-1.2621,-1.2621,-1.2621,-1.2621,-1.2621,-1.2621,-1.2621,0.0,0.0,0.0,0.0,0.0,0.0,0.0,0.0,-1.5176,0.0,-1.538,-1.5951,-1.695,-1.7251,-1.7663,-1.8596,-1.8827,-1.8881,-1.8881,-1.8934,-1.9011,-1.9083,-1.9083,-1.932,-1.9855,-1.9855,-2.033,-2.1459,-2.1551,-2.16,-2.1652,-2.1622,-2.1331,-2.0583,-2.0526,-2.0411,-2.025,-2.0192,-2.0192,-2.0192,-1.962,-1.919,-1.8785,-1.8851,-1.9342,-2.0085,-2.0085,-2.0085,-2.0085,-2.0085,-2.0085,-2.0085,-2.0085,-2.0085,-2.0085,-2.0085,-2.0085,-2.0085,-2.0085,-2.0085,-2.0085,-2.0085,-2.0085,-2.0085,-2.0085,-1.9856,-1.9517,-1.9517,-1.9211,-1.8884,-1.8823,-1.8823,-1.8823,-1.8639,-1.8516,-1.874,-1.9619,-1.9671,-1.9539,-1.9539,-1.9539,-1.9539,-1.9539,-1.9539,-1.9539,-1.9407,-1.9059,-1.824,-1.6665,-1.5835,-1.4791,-1.3284,-1.2822,-1.2677,-1.2629,-1.2621,-1.2621,-1.2621,-1.2621,-1.2621,-1.2621,-1.2621,-1.2621,-1.2621,-1.2621,-1.2621,-1.2621,-1.2621,-1.2621,-1.2621,-1.2621,-1.2621,-1.3372,0.0,0.0,0.0,0.0,0.0,0.0,0.0,-1.504,-1.5279,-1.5543,-1.5896,-1.6593,-1.7046,-1.7564,-1.8343,-1.8724,-1.9078,-1.9399,-1.9759,-1.9926,-1.9926,-2.0042,-2.0144,-2.0283,-2.0398,-2.0666,-2.1231,-2.1257,-2.1261,-2.1303,-2.1316,-2.1146,-2.0765,-2.0461,-2.0234,-2.0192,-1.9879,-1.9538,-1.9095,-1.8567,-1.8427,-1.8742,-1.8742,-1.8955,-1.9331,-1.9331,-1.9331,-1.9331,-1.9331,-1.9331,-1.9331,-1.9331,-1.9331,-1.9331,-1.9331,-1.9331,-1.9331,-1.9331,-1.9331,-1.9331,-1.9331,-1.9331,-1.9331,-1.9331,-1.9179,-1.9004,-1.9004,-1.8851,-1.8687,-1.8566,-1.8505,-1.8505,-1.8445,-1.8384,-1.8563,-1.9109,-1.9018,-1.8913,-1.9158,-1.9424,-1.9473,-1.9208,-1.9473,-1.952,-1.8678,-1.8591,-1.8068,-1.6417,-1.5775,-1.5087,-1.3969,-1.3735,-1.3519,-1.3155,-1.3094,-1.2981,-1.2621,-1.2621,-1.2621,-1.2621,-1.2621,-1.2621,-1.2621,-1.2621,-1.2621,-1.2621,-1.2621,-1.2621,-1.2621,-1.2621,-1.2621,0.0,0.0,0.0,0.0,0.0,0.0,0.0,0.0,-1.5299,0.0,-1.5888,-1.6175,-1.6324,-1.6859,-1.7496,-1.8179,-1.8646,-1.9092,-1.9724,-2.0178,-2.0542,-2.0686,-2.0775,-2.0825,-2.0762,-2.0838,-2.0938,-2.0974,-2.0924,-2.0924,-2.0974,-2.0924,-2.0938,-2.0901,-2.0448,-2.022,-2.0156,-1.9798,-1.9226,-1.8566,-1.8018,-1.8046,-1.8611,-1.851,-1.8382,-1.8348,-1.8758,-1.8808,-1.8687,-1.8687,-1.8687,-1.8687,-1.8687,-1.8687,-1.8687,-1.8687,-1.8687,-1.8687,-1.8687,-1.8687,-1.8687,-1.8687,-1.8687,-1.8687,-1.8687,-1.8611,-1.8512,-1.8512,-1.8425,-1.8327,-1.8148,-1.8089,-1.8089,-1.8089,-1.8089,-1.8224,-1.8632,-1.8516,-1.8451,-1.8783,-1.9137,-1.9243,-1.8854,-1.9243,-1.919,-1.815,-1.8196,-1.7812,-1.6264,-1.5827,-1.5393,-1.4556,-1.4469,-1.4291,-1.3812,-1.3743,-1.3571,-1.3103,-1.292,-1.2858,-1.2858,-1.2683,-1.2621,-1.2621,-1.2621,-1.2621,-1.2621,-1.2621,-1.2621,-1.2621,-1.2621,-1.2621,0.0,0.0,0.0,0.0,0.0,0.0,0.0,0.0,-1.6504,-1.6244,-1.6565,-1.6846,-1.6541,-1.6979,-1.7688,-1.8708,-1.8904,-1.9113,-1.9712,-1.9852,-2.0048,-2.0633,-2.0712,-2.0762,-2.0888,-2.0901,-2.0974,-2.1193,-2.1095,-2.1033,-2.118,-2.1033,-2.0961,-2.0901,-2.0888,-2.0775,-2.0649,-2.0649,-2.0385,-1.9888,-1.9239,-1.8614,-1.8139,-1.7623,-1.7378,-1.7455,-1.887,-1.9157,-1.8687,-1.8687,-1.8687,-1.8687,-1.8687,-1.8687,-1.8687,-1.8687,-1.8687,-1.8687,-1.8687,-1.8687,-1.8687,-1.8687,-1.8687,-1.8687,-1.8687,-1.8392,-1.8043,-1.8043,-1.7715,-1.7355,-1.7355,-1.7355,-1.7355,-1.7355,-1.7355,-1.7595,-1.849,-1.8687,-1.8698,-1.872,-1.8742,-1.8763,-1.8703,-1.8763,-1.8753,-1.867,-1.83,-1.7702,-1.6668,-1.6165,-1.5546,-1.4588,-1.4469,-1.4469,-1.4469,-1.4469,-1.441,-1.441,-1.3812,-1.345,-1.345,-1.292,-1.2621,-1.2621,-1.2621,-1.2621,-1.2621,-1.2621,-1.2621,-1.2621,-1.2621,-1.2621,0.0,0.0,0.0,0.0,0.0,-1.5876,-1.6306,-1.6337,-1.6411,-1.665,-1.6905,-1.7073,-1.6989,-1.7157,-1.7523,-1.8252,-1.8388,-1.8584,-1.9146,-1.9224,-1.9303,-1.9512,-1.9619,-1.9824,-2.0184,-2.0356,-2.0611,-2.0997,-2.0997,-2.1033,-2.1082,-2.0961,-2.0924,-2.0961,-2.0938,-2.0888,-2.0838,-2.0347,-1.9862,-1.9344,-1.9093,-1.8881,-1.8655,-1.8869,-1.8709,-1.8422,-1.8948,-1.8667,-1.7781,-1.7781,-1.7781,-1.7781,-1.7781,-1.7781,-1.7781,-1.7781,-1.7781,-1.7781,-1.7781,-1.7781,-1.7781,-1.7781,-1.7781,-1.7781,-1.7781,-1.766,-1.754,-1.754,-1.7409,-1.7278,-1.7278,-1.7278,-1.7278,-1.7278,-1.7278,-1.7366,-1.7704,-1.8032,-1.825,-1.825,-1.849,-1.8566,-1.8251,-1.8445,-1.8408,-1.7436,-1.7438,-1.7227,-1.6389,-1.6148,-1.5941,-1.572,-1.572,-1.5546,-1.5118,-1.5059,-1.4883,-1.4529,-1.3863,-1.3511,-1.3511,-1.292,-1.2621,-1.2621,-1.2621,-1.2621,-1.2621,-1.2621,-1.2621,-1.2621,-1.2621,-1.2621,-1.5311,0.0,0.0,0.0,0.0,-1.6163,-1.659,0.0,-1.6441,-1.6905,-1.7086,-1.7157,-1.7199,-1.7199,-1.7329,-1.7735,-1.78,-1.7996,-1.8558,-1.8636,-1.8702,-1.8885,-1.8989,-1.9147,-1.9507,-1.9734,-2.0,-2.0412,-2.0425,-2.0553,-2.0801,-2.0731,-2.0775,-2.0947,-2.0924,-2.0901,-2.0901,-2.0347,-1.9978,-1.9629,-1.9408,-1.9251,-1.9291,-1.9448,-1.9239,-1.8709,-1.8934,-1.8344,-1.7278,-1.7278,-1.7278,-1.7278,-1.7278,-1.7278,-1.7278,-1.7278,-1.7278,-1.7278,-1.7278,-1.7278,-1.7278,-1.7278,-1.7278,-1.7278,-1.7278,-1.7278,-1.7278,-1.7278,-1.7278,-1.7278,-1.7278,-1.7278,-1.7278,-1.7278,-1.7278,-1.7278,-1.7278,-1.7529,-1.7759,-1.7759,-1.801,-1.8099,-1.7733,-1.797,-1.7873,-1.6919,-1.7032,-1.6985,-1.6384,-1.6285,-1.6296,-1.6374,-1.6384,-1.6202,-1.5768,-1.571,-1.5536,-1.5186,-1.4341,-1.3872,-1.3872,-1.3042,-1.2621,-1.2621,-1.2621,-1.2621,-1.2621,-1.2621,-1.2621,-1.2621,-1.2621,-1.2621,0.0,0.0,0.0,0.0,0.0,0.0,-1.6675,0.0,-1.6761,-1.696,-1.7002,-1.7044,-1.7199,-1.7199,-1.724,-1.724,-1.7199,-1.7408,-1.7996,-1.8074,-1.827,-1.8793,-1.8904,-1.895,-1.9054,-1.9099,-1.9203,-1.9467,-1.9391,-1.96,-2.0341,-2.0248,-2.0372,-2.0822,-2.0835,-2.0835,-2.0848,-2.0723,-2.0723,-2.0785,-2.0131,-1.9761,-1.9748,-1.9254,-1.8673,-1.8178,-1.8738,-1.8387,-1.7334,-1.7334,-1.7334,-1.7334,-1.7334,-1.7334,-1.7334,-1.7334,-1.7334,-1.7334,-1.7334,-1.7334,-1.7334,-1.7334,-1.7334,-1.7334,-1.7278,-1.7278,-1.7278,-1.7278,-1.7278,-1.7278,-1.7278,-1.7278,-1.7278,-1.7278,-1.7278,-1.7278,-1.7278,-1.7278,-1.7278,-1.7278,-1.7278,-1.7278,-1.7278,-1.7278,-1.7278,-1.7278,-1.7134,-1.6955,-1.6807,-1.6694,-1.6524,-1.6431,-1.6384,-1.6384,-1.6384,-1.6384,-1.6374,-1.6374,-1.5186,-1.4469,-1.4469,-1.3285,-1.2621,-1.2621,-1.2621,-1.2621,-1.2621,-1.2621,-1.2621,-1.2621,-1.2621,-1.2621,-1.6337,0.0,0.0,0.0,0.0,0.0,0.0,0.0,-1.696,-1.7475,-1.7352,-1.7157,-1.7199,-1.7434,-1.7639,-1.7639,-1.7393,-1.7251,-1.7421,-1.7686,-1.7877,-1.7797,-1.8343,-1.8617,-1.8451,-1.8795,-1.9057,-1.9189,-1.9243,-1.9368,-1.9586,-1.9482,-1.941,-1.9441,-1.9561,-1.9561,-1.9441,-1.9501,-1.9313,-1.8872,-1.905,-1.8955,-1.857,-1.8811,-1.8868,-1.8718,-1.8882,-1.8758,-1.8506,-1.8506,-1.8506,-1.8506,-1.8061,-1.7886,-1.7843,-1.7423,-1.7534,-1.7886,-1.7886,-1.817,-1.8452,-1.8007,-1.7886,-1.7788,-1.7434,-1.7278,-1.7278,-1.7278,-1.7278,-1.7278,-1.7278,-1.7278,-1.7278,-1.7278,-1.7278,-1.7278,-1.7278,-1.7278,-1.7278,-1.7278,-1.7278,-1.7278,-1.7278,-1.72,-1.7078,-1.7078,-1.6965,-1.6807,-1.6694,-1.6637,-1.6524,-1.6431,-1.6384,-1.6384,-1.6384,-1.6384,-1.6192,-1.572,-1.4942,-1.4291,-1.3812,-1.3042,-1.2621,-1.2621,-1.2621,-1.2621,-1.2621,-1.2621,-1.2621,-1.2621,-1.2621,-1.2498,0.0,0.0,0.0,0.0,0.0,0.0,-1.7612,-1.7421,-1.7323,0.0,-1.776,-1.7434,-1.7434,-1.7516,-1.7557,-1.7557,-1.7406,-1.7337,-1.7434,-1.7516,-1.7529,-1.7404,-1.7895,-1.8179,-1.7882,-1.8315,-1.8534,-1.8415,-1.8498,-1.8662,-1.8901,-1.911,-1.9139,-1.8989,-1.9048,-1.9061,-1.8911,-1.897,-1.8832,-1.8435,-1.876,-1.8714,-1.8435,-1.876,-1.8802,-1.857,-1.8798,-1.8807,-1.8643,-1.9131,-1.9199,-1.8987,-1.8602,-1.8483,-1.8429,-1.8127,-1.8236,-1.8483,-1.8483,-1.8709,-1.8881,-1.8321,-1.8267,-1.8375,-1.7788,-1.781,-1.7975,-1.7689,-1.7479,-1.7278,-1.7278,-1.7278,-1.7278,-1.7278,-1.7278,-1.7278,-1.7278,-1.7278,-1.7278,-1.7278,-1.7278,-1.7278,-1.7278,-1.72,-1.7145,-1.7145,-1.6976,-1.6853,-1.6797,-1.674,-1.6637,-1.6602,-1.6602,-1.6602,-1.6602,-1.6545,-1.6296,-1.5941,-1.5235,-1.4706,-1.4341,-1.345,-1.2981,-1.2981,-1.2744,-1.2621,-1.2621,-1.2621,-1.2621,-1.2621,-1.2621,-1.2498,0.0,0.0,0.0,0.0,-1.7625,0.0,-1.8066,-1.7894,-1.7747,0.0,-1.8187,-1.7868,-1.7868,-1.7625,-1.7434,-1.7434,-1.7529,-1.7666,-1.7801,-1.7557,-1.7406,-1.7515,-1.7814,-1.7882,-1.7515,-1.7855,-1.7908,-1.7516,-1.7475,-1.7701,-1.8262,-1.8808,-1.9057,-1.8882,-1.8882,-1.885,-1.8715,-1.8715,-1.8715,-1.8715,-1.8715,-1.8715,-1.8715,-1.8715,-1.848,-1.8125,-1.8577,-1.857,-1.8251,-1.9296,-1.9433,-1.9073,-1.9069,-1.9093,-1.9093,-1.904,-1.904,-1.9093,-1.9093,-1.9146,-1.9093,-1.8471,-1.8643,-1.8987,-1.8309,-1.8483,-1.8762,-1.8159,-1.7689,-1.7379,-1.7379,-1.7379,-1.7434,-1.749,-1.7501,-1.7501,-1.7501,-1.7434,-1.7379,-1.7379,-1.7323,-1.7278,-1.7278,-1.7278,-1.7278,-1.7278,-1.7078,-1.6955,-1.6955,-1.6864,-1.6818,-1.6818,-1.6818,-1.6807,-1.6751,-1.6694,-1.657,-1.6457,-1.5816,-1.5352,-1.5294,-1.4222,-1.3571,-1.3511,-1.292,-1.2621,-1.2621,-1.2621,-1.2621,-1.2621,-1.2621,-1.2498,0.0,0.0,0.0,0.0,-1.7987,0.0,-1.8612,-1.8447,-1.8305,0.0,-1.8669,-1.8383,-1.8422,-1.864,-1.8855,-1.8945,-1.8907,-1.8602,-1.7908,-1.8108,-1.8358,-1.8358,-1.8959,-1.8997,-1.8002,-1.824,-1.8147,-1.7323,-1.7337,-1.7431,-1.7439,-1.7668,-1.7721,-1.7568,-1.7679,-1.7679,-1.7525,-1.7636,-1.7636,-1.7525,-1.7525,-1.7525,-1.7525,-1.7525,-1.7757,-1.8124,-1.8213,-1.8461,-1.8773,-1.8982,-1.9292,-1.9654,-1.9635,-1.9656,-1.9592,-1.9146,-1.9291,-1.9656,-1.9656,-1.9965,-2.0283,-1.9643,-1.954,-1.9436,-1.8417,-1.8201,-1.8159,-1.759,-1.7689,-1.7941,-1.7941,-1.7941,-1.805,-1.856,-1.8667,-1.8667,-1.8667,-1.8278,-1.7941,-1.7941,-1.759,-1.7278,-1.7278,-1.7145,-1.7078,-1.7078,-1.6909,-1.6864,-1.6864,-1.6807,-1.6818,-1.6818,-1.6818,-1.6751,-1.6637,-1.6637,-1.6343,-1.57,-1.5468,-1.5177,-1.4706,-1.441,-1.4043,-1.3502,-1.292,-1.2621,-1.2621,-1.2621,-1.2621,-1.2621,-1.2621,-1.2436,0.0,0.0,0.0,-1.8831,-1.864,0.0,0.0,-1.8921,-1.8755,-1.9273,-1.9087,-1.8822,-1.8884,-1.8921,-1.8907,-1.9043,-1.902,-1.8921,-1.864,-1.8577,-1.8514,-1.8411,-1.9035,-1.9147,-1.8214,-1.863,-1.863,-1.7679,-1.7652,-1.7529,-1.724,-1.7253,-1.7253,-1.7199,-1.7253,-1.7253,-1.7199,-1.7253,-1.7253,-1.7199,-1.7199,-1.7199,-1.7199,-1.7199,-1.7369,-1.7643,-1.7643,-1.78,-1.8074,-1.8375,-1.8675,-1.8969,-1.9265,-1.9374,-1.9364,-1.9409,-1.956,-1.9848,-2.013,-2.0448,-2.0599,-2.0016,-2.0016,-2.0067,-1.9214,-1.8951,-1.8898,-1.8643,-1.8536,-1.8483,-1.8201,-1.8093,-1.8201,-1.8483,-1.8344,-1.8236,-1.8494,-1.8116,-1.7689,-1.7689,-1.7689,-1.759,-1.7334,-1.7211,-1.7145,-1.7145,-1.7099,-1.7043,-1.7043,-1.7043,-1.7043,-1.7043,-1.7043,-1.6987,-1.6786,-1.674,-1.6513,-1.6046,-1.5941,-1.5778,-1.5478,-1.5118,-1.4647,-1.3983,-1.37,-1.3398,-1.3033,-1.3033,-1.292,-1.2621,-1.2498,-1.2305,0.0,0.0,-1.9617,-1.9741,-1.9493,-1.9281,0.0,0.0,0.0,-1.9639,-1.9472,-1.9273,-1.9332,0.0,0.0,-1.9006,0.0,0.0,0.0,-1.9109,0.0,-1.8528,-1.8959,-1.9072,-1.8425,-1.8912,-1.886,-1.7908,-1.7948,-1.7787,-1.724,-1.7199,-1.7253,-1.7199,-1.7199,-1.7199,-1.7199,-1.7199,-1.7199,-1.7199,-1.7199,-1.7199,-1.7199,-1.7199,-1.7199,-1.7199,-1.7199,-1.7199,-1.7238,-1.7721,-1.7931,-1.7996,-1.8649,-1.8911,-1.8963,-1.946,-1.963,-1.9695,-2.0165,-2.0358,-2.026,-1.9799,-1.99,-2.0112,-1.9649,-1.9484,-1.9434,-1.9332,-1.9089,-1.875,-1.8348,-1.8265,-1.8289,-1.8555,-1.8267,-1.8073,-1.8525,-1.8159,-1.7799,-1.7799,-1.8061,-1.8104,-1.7534,-1.7545,-1.7601,-1.7479,-1.7434,-1.7434,-1.7334,-1.7278,-1.7278,-1.7278,-1.7278,-1.7211,-1.6955,-1.6864,-1.6751,-1.6581,-1.6488,-1.6384,-1.6384,-1.5768,-1.5177,-1.4706,-1.441,-1.4052,-1.3511,-1.339,-1.3103,-1.2621,-1.2367,-1.2243,-2.012,-2.0243,-2.0345,-2.0308,-2.0514,-2.0565,-1.994,0.0,-2.0054,-1.9747,0.0,-1.9762,-1.9884,0.0,0.0,0.0,0.0,0.0,-1.9995,-1.9904,-1.9777,-1.9617,-1.9654,-1.9457,-1.9026,-1.8822,-1.8305,-1.7352,-1.7814,-1.7841,-1.724,-1.7308,-1.7308,-1.7199,-1.7199,-1.7199,-1.7199,-1.7199,-1.7199,-1.7199,-1.7199,-1.7199,-1.7199,-1.7199,-1.7199,-1.7199,-1.7199,-1.7199,-1.7212,-1.7264,-1.7303,-1.7408,-1.8479,-1.8911,-1.8911,-1.8989,-1.9002,-1.9015,-1.9081,-1.9107,-1.9094,-1.9001,-1.8721,-1.8402,-1.8307,-1.8307,-1.8199,-1.7666,-1.7812,-1.8311,-1.871,-1.8834,-1.9071,-2.0155,-2.0334,-2.0334,-2.0385,-1.9965,-1.954,-1.954,-1.9186,-1.8709,-1.8104,-1.8441,-1.8614,-1.8104,-1.7995,-1.7843,-1.739,-1.7278,-1.7278,-1.7278,-1.7278,-1.7166,-1.6864,-1.6807,-1.6705,-1.6431,-1.6431,-1.6384,-1.6384,-1.5768,-1.5352,-1.5294,-1.4163,-1.3571,-1.3511,-1.2981,-1.2683,-1.2621,-1.2367,-1.2243,-2.0345,-2.0599,-2.0829,-2.078,-2.0894,-2.0959,-2.0581,-2.0599,-2.0665,-2.0499,0.0,0.0,0.0,0.0,0.0,0.0,-2.0308,-2.015,0.0,0.0,-1.9919,-1.9639,0.0,0.0,-1.9617,-1.9384,-1.8997,-1.8394,-1.8316,-1.8133,-1.7679,-1.7406,-1.7253,-1.7199,-1.7199,-1.7199,-1.7199,-1.7199,-1.7199,-1.7199,-1.7199,-1.7199,-1.7199,-1.7199,-1.7199,-1.7199,-1.7199,-1.7199,-1.7199,-1.7199,-1.7199,-1.7251,-1.7735,-1.7917,-1.7957,-1.831,-1.844,-1.8479,-1.8793,-1.8911,-1.8911,-1.8911,-1.876,-1.8575,-1.8575,-1.8575,-1.8528,-1.8235,-1.8389,-1.8533,-1.8478,-1.867,-1.9044,-1.9557,-1.9674,-1.9823,-2.0118,-1.9759,-1.9356,-1.9356,-1.9396,-1.9384,-1.9109,-1.9028,-1.8827,-1.8201,-1.8375,-1.8441,-1.7843,-1.7733,-1.7733,-1.7733,-1.749,-1.7155,-1.6818,-1.6818,-1.6705,-1.6441,-1.6384,-1.6384,-1.6384,-1.6134,-1.5778,-1.541,-1.4874,-1.4222,-1.3511,-1.3277,-1.292,-1.256,-1.2313,-1.212,-2.0797,-2.1039,-2.1306,-2.1197,-2.1323,-2.1368,-2.1086,-2.1086,-2.1118,-2.1023,-2.1023,0.0,0.0,0.0,0.0,0.0,0.0,-2.0444,0.0,-2.0392,0.0,-1.9696,-1.9889,0.0,0.0,-1.9797,-1.9566,-1.9058,-1.8831,-1.8539,-1.8147,-1.7639,-1.7352,-1.7352,-1.7282,-1.7199,-1.7199,-1.7199,-1.7199,-1.7199,-1.7199,-1.7199,-1.7199,-1.7199,-1.7199,-1.7199,-1.7199,-1.7282,-1.7352,-1.7352,-1.7434,-1.7557,-1.7557,-1.7475,-1.7404,-1.7738,-1.7938,-1.8077,-1.8341,-1.844,-1.844,-1.844,-1.844,-1.844,-1.844,-1.844,-1.844,-1.844,-1.844,-1.839,-1.8147,-1.8472,-1.8951,-1.9116,-1.9296,-1.9552,-1.9965,-1.9759,-1.946,-1.946,-1.9759,-2.0067,-2.0067,-1.9708,-1.9239,-1.8685,-1.891,-1.9028,-1.8429,-1.8375,-1.8267,-1.8093,-1.7733,-1.7312,-1.692,-1.6864,-1.6751,-1.6545,-1.6488,-1.6431,-1.6431,-1.6431,-1.6192,-1.5652,-1.5468,-1.4932,-1.4043,-1.3863,-1.3511,-1.3033,-1.2428,-1.2058,-2.1568,-2.1718,-2.184,-2.1708,-2.1961,-2.2077,-2.1259,-2.1352,-2.146,-2.1086,-2.1055,-2.1102,-2.1102,0.0,0.0,0.0,0.0,0.0,0.0,0.0,-2.0747,-2.017,-2.001,0.0,0.0,-1.9762,-1.9617,-1.8693,-1.8945,-1.8983,-1.85,-1.8028,-1.7787,-1.7787,-1.7393,-1.7199,-1.7199,-1.7199,-1.7199,-1.7199,-1.7199,-1.7199,-1.7199,-1.7199,-1.7199,-1.7199,-1.7199,-1.7434,-1.7787,-1.7787,-1.8028,-1.8461,-1.8461,-1.8187,-1.776,-1.7378,-1.7474,-1.7747,-1.7363,-1.7251,-1.7251,-1.7251,-1.7251,-1.7251,-1.7251,-1.7251,-1.7251,-1.7251,-1.7251,-1.7382,-1.7926,-1.8487,-1.9034,-1.9608,-2.0231,-2.0649,-2.0662,-2.0649,-2.0649,-2.0649,-2.0649,-2.0649,-2.0649,-2.0649,-2.0435,-1.985,-1.9747,-1.9604,-1.904,-1.8987,-1.8762,-1.8147,-1.8093,-1.7776,-1.7067,-1.7011,-1.6955,-1.6818,-1.6694,-1.6581,-1.6581,-1.6477,-1.6384,-1.6384,-1.571,-1.5352,-1.5352,-1.4765,-1.4341,-1.4145,-1.2842,-1.2305,-2.1866,-2.213,-2.2315,-2.2192,-2.2349,-2.2388,-2.2003,-2.2044,-2.213,-2.1957,-2.1957,-2.1957,-2.1957,0.0,0.0,0.0,0.0,0.0,0.0,-2.1245,-2.1119,-2.0861,-2.0478,0.0,0.0,-1.9762,-1.969,-1.942,-1.9236,-1.9072,-1.8945,-1.8539,-1.8266,-1.8266,-1.7828,-1.7598,-1.7598,-1.7323,-1.7323,-1.7598,-1.7323,-1.7516,-1.8028,-1.776,-1.7747,-1.8068,-1.8068,-1.8147,-1.8266,-1.8266,-1.8344,-1.85,-1.85,-1.8592,-1.8592,-1.7868,-1.7679,-1.7787,-1.7639,-1.7598,-1.7557,-1.7282,-1.7199,-1.7199,-1.7199,-1.7199,-1.7199,-1.7199,-1.7199,-1.7251,-1.7447,-1.7944,-1.8506,-1.9081,-1.9656,-2.0191,-2.062,-2.0699,-2.0699,-2.0699,-2.0699,-2.0699,-2.0699,-2.0699,-2.0498,-1.9901,-2.0118,-2.0182,-1.9604,-1.9552,-1.9436,-1.9267,-1.891,-1.8536,-1.819,-1.771,-1.7446,-1.7401,-1.6909,-1.657,-1.657,-1.6477,-1.6192,-1.5778,-1.5536,-1.5177,-1.4824,-1.4588,-1.4231,-1.3743,-1.3268,-1.2964,-2.2243,-2.2398,-2.2579,-2.246,-2.2579,-2.2659,-2.2432,-2.2497,-2.2615,-2.2605,-2.2497,-2.2487,-2.2651,0.0,0.0,0.0,0.0,0.0,0.0,-2.1584,-2.1477,-2.1324,-2.0926,-2.0512,0.0,-1.9995,-1.9889,-1.9797,-1.9508,-1.9347,-1.9369,-1.8808,-1.85,-1.85,-1.7908,-1.7679,-1.7787,-1.7557,-1.7639,-1.8028,-1.7787,-1.7948,-1.85,-1.8187,-1.8226,-1.85,-1.85,-1.8592,-1.8707,-1.8731,-1.8846,-1.8974,-1.8997,-1.9124,-1.9124,-1.8344,-1.8028,-1.8028,-1.8028,-1.7948,-1.7828,-1.7557,-1.7393,-1.7323,-1.7295,-1.7253,-1.7253,-1.7199,-1.724,-1.7295,-1.7406,-1.7898,-1.8515,-1.895,-1.9704,-2.0415,-2.0791,-2.1067,-2.1215,-2.1215,-2.1215,-2.1215,-2.1215,-2.1215,-2.0957,-2.022,-2.0435,-2.0549,-2.0169,-2.0118,-2.0067,-1.9798,-1.95,-1.9069,-1.8513,-1.8081,-1.771,-1.7446,-1.6965,-1.6637,-1.657,-1.6477,-1.612,-1.5538,-1.5688,-1.5458,-1.4955,-1.5109,-1.4942,-1.4529,-1.4282,-1.4034]},{"header":{"parameterUnit":"m.s-1","parameterCategory":1,"la1":30.6,"la2":29.2853,"lo1":-89.7004,"lo2":-87.6739,"dy":0.0162,"dx":0.0183,"nx":112,"ny":82,"refTime":"2023-10-06T12:00:00:Z","depth":0,"parameterNumber":3,"parameterNumberName":"V-component_of_WINDS"},"data":[0.0,0.0,0.0,0.0,0.0,0.0,0.0,0.0,0.0,0.0,0.0,0.0,0.0,0.0,0.0,0.0,0.0,0.0,0.0,0.0,0.0,0.0,0.0,0.0,0.0,0.0,0.0,0.0,0.0,0.0,0.0,0.0,0.0,0.0,0.0,0.0,0.0,0.0,0.0,0.0,0.0,0.0,0.0,0.0,0.0,0.0,0.0,0.0,0.0,0.0,0.0,0.0,0.0,0.0,0.0,0.0,0.0,0.0,0.0,0.0,0.0,0.0,0.0,0.0,0.0,0.0,0.0,0.0,0.0,0.0,0.0,0.0,0.0,0.0,0.0,0.0,0.0,0.0,0.0,0.0,0.0,0.0,0.0,0.0,0.0,0.0,0.0,0.0,0.0,0.0,-3.2964,-3.3227,-3.2344,-3.1844,-3.2067,-3.1061,-3.0516,-3.0796,0.0,0.0,0.0,0.0,0.0,0.0,0.0,0.0,0.0,0.0,0.0,0.0,0.0,0.0,0.0,0.0,0.0,0.0,0.0,0.0,0.0,0.0,0.0,0.0,0.0,0.0,0.0,0.0,0.0,0.0,0.0,0.0,0.0,0.0,0.0,0.0,0.0,0.0,0.0,0.0,0.0,0.0,0.0,0.0,0.0,0.0,0.0,0.0,0.0,0.0,0.0,0.0,0.0,0.0,0.0,0.0,0.0,0.0,0.0,0.0,0.0,0.0,0.0,0.0,0.0,0.0,0.0,0.0,0.0,0.0,0.0,0.0,0.0,0.0,0.0,0.0,0.0,0.0,0.0,0.0,0.0,0.0,0.0,0.0,0.0,0.0,0.0,0.0,0.0,0.0,0.0,0.0,0.0,0.0,0.0,0.0,0.0,0.0,0.0,0.0,0.0,0.0,0.0,0.0,-3.4059,-3.433,-3.3747,-3.3374,-3.3412,-3.2408,-3.1899,-3.2108,0.0,0.0,0.0,0.0,0.0,0.0,0.0,0.0,0.0,0.0,0.0,0.0,0.0,0.0,0.0,0.0,0.0,0.0,0.0,0.0,0.0,0.0,0.0,0.0,0.0,0.0,0.0,0.0,0.0,0.0,0.0,0.0,0.0,0.0,0.0,0.0,0.0,0.0,0.0,0.0,0.0,0.0,0.0,0.0,0.0,0.0,0.0,0.0,0.0,0.0,0.0,0.0,0.0,0.0,0.0,0.0,0.0,0.0,0.0,0.0,0.0,0.0,0.0,0.0,0.0,0.0,0.0,0.0,0.0,0.0,0.0,0.0,0.0,0.0,0.0,0.0,0.0,0.0,0.0,0.0,0.0,0.0,0.0,0.0,0.0,0.0,0.0,0.0,0.0,0.0,0.0,0.0,0.0,0.0,0.0,0.0,0.0,0.0,0.0,0.0,0.0,0.0,0.0,-3.436,-3.4628,-3.4751,-3.443,-3.4243,-3.4358,-3.3353,-3.2862,-3.3089,-3.1355,0.0,0.0,0.0,0.0,0.0,0.0,0.0,0.0,0.0,0.0,0.0,0.0,0.0,0.0,0.0,0.0,0.0,0.0,0.0,0.0,0.0,0.0,0.0,0.0,0.0,0.0,0.0,0.0,0.0,0.0,0.0,0.0,0.0,0.0,0.0,0.0,0.0,0.0,0.0,0.0,0.0,0.0,0.0,0.0,0.0,0.0,0.0,0.0,0.0,0.0,0.0,0.0,0.0,0.0,0.0,0.0,0.0,0.0,0.0,0.0,0.0,0.0,0.0,0.0,0.0,0.0,0.0,0.0,0.0,0.0,0.0,0.0,0.0,0.0,0.0,0.0,0.0,0.0,0.0,0.0,0.0,0.0,0.0,0.0,0.0,0.0,0.0,0.0,0.0,0.0,0.0,0.0,0.0,0.0,0.0,0.0,0.0,0.0,0.0,0.0,0.0,0.0,-3.4792,-3.4908,-3.4908,-3.4771,-3.473,-3.4889,-3.4147,-3.3769,-3.3961,-3.2596,0.0,0.0,0.0,0.0,0.0,0.0,0.0,0.0,0.0,0.0,0.0,0.0,0.0,0.0,0.0,0.0,0.0,0.0,0.0,0.0,0.0,0.0,0.0,0.0,0.0,0.0,0.0,0.0,0.0,0.0,0.0,0.0,0.0,0.0,0.0,0.0,0.0,0.0,0.0,0.0,0.0,0.0,0.0,0.0,0.0,0.0,0.0,0.0,0.0,0.0,0.0,0.0,0.0,0.0,0.0,0.0,0.0,0.0,0.0,0.0,0.0,0.0,0.0,0.0,0.0,0.0,0.0,0.0,0.0,0.0,0.0,0.0,0.0,0.0,0.0,0.0,0.0,0.0,0.0,0.0,0.0,0.0,0.0,0.0,0.0,0.0,0.0,0.0,0.0,0.0,0.0,0.0,0.0,0.0,0.0,0.0,0.0,0.0,0.0,0.0,0.0,0.0,-3.4908,-3.4908,-3.4908,-3.4889,-3.487,-3.4908,-3.4832,-3.4794,-3.4813,-3.3998,0.0,0.0,0.0,0.0,0.0,0.0,0.0,0.0,0.0,0.0,0.0,0.0,0.0,0.0,0.0,0.0,0.0,0.0,0.0,0.0,0.0,0.0,0.0,0.0,0.0,0.0,0.0,0.0,0.0,0.0,0.0,0.0,0.0,0.0,0.0,0.0,0.0,0.0,0.0,0.0,0.0,0.0,0.0,0.0,0.0,0.0,0.0,0.0,0.0,0.0,0.0,0.0,0.0,0.0,0.0,0.0,0.0,0.0,0.0,0.0,0.0,0.0,0.0,0.0,0.0,0.0,0.0,0.0,0.0,0.0,0.0,0.0,0.0,0.0,0.0,0.0,0.0,0.0,0.0,0.0,0.0,0.0,0.0,0.0,0.0,0.0,0.0,0.0,0.0,0.0,0.0,0.0,0.0,0.0,0.0,0.0,0.0,0.0,0.0,0.0,0.0,0.0,-3.4908,-3.4908,-3.4908,-3.4908,-3.4908,-3.4908,-3.4908,-3.4908,-3.4908,0.0,0.0,0.0,0.0,0.0,0.0,0.0,0.0,0.0,0.0,0.0,0.0,0.0,0.0,0.0,0.0,0.0,0.0,0.0,0.0,0.0,0.0,0.0,0.0,0.0,0.0,0.0,0.0,0.0,0.0,0.0,0.0,0.0,0.0,0.0,0.0,0.0,0.0,0.0,0.0,0.0,0.0,0.0,0.0,0.0,0.0,0.0,0.0,0.0,0.0,0.0,0.0,0.0,0.0,0.0,0.0,0.0,0.0,0.0,0.0,0.0,0.0,0.0,0.0,0.0,0.0,0.0,0.0,0.0,0.0,0.0,0.0,0.0,0.0,0.0,0.0,0.0,0.0,0.0,0.0,0.0,0.0,0.0,0.0,0.0,0.0,0.0,0.0,0.0,0.0,0.0,0.0,0.0,0.0,0.0,0.0,0.0,0.0,0.0,0.0,0.0,0.0,-3.4908,-3.4908,-3.4908,-3.4908,-3.4908,-3.4908,-3.4908,-3.485,-3.4831,-3.4908,0.0,0.0,0.0,0.0,0.0,0.0,0.0,0.0,0.0,0.0,0.0,0.0,0.0,0.0,0.0,0.0,0.0,0.0,0.0,0.0,0.0,0.0,0.0,0.0,0.0,0.0,0.0,0.0,0.0,0.0,0.0,0.0,0.0,0.0,0.0,0.0,0.0,0.0,0.0,0.0,0.0,0.0,0.0,0.0,0.0,0.0,0.0,0.0,0.0,0.0,0.0,0.0,0.0,0.0,0.0,0.0,0.0,0.0,0.0,0.0,0.0,0.0,0.0,0.0,0.0,0.0,0.0,0.0,0.0,0.0,0.0,0.0,0.0,0.0,0.0,0.0,0.0,0.0,0.0,0.0,0.0,0.0,0.0,0.0,0.0,0.0,0.0,0.0,0.0,0.0,0.0,0.0,0.0,0.0,0.0,0.0,0.0,0.0,0.0,0.0,0.0,0.0,-3.4908,-3.4908,-3.4908,-3.4908,-3.4908,-3.4908,-3.4908,-3.471,-3.4689,0.0,0.0,0.0,0.0,0.0,0.0,0.0,0.0,0.0,0.0,0.0,0.0,0.0,0.0,0.0,0.0,0.0,0.0,0.0,0.0,0.0,0.0,0.0,0.0,0.0,0.0,0.0,0.0,0.0,0.0,0.0,0.0,0.0,0.0,0.0,0.0,0.0,0.0,0.0,0.0,0.0,0.0,0.0,0.0,0.0,0.0,0.0,0.0,0.0,0.0,0.0,0.0,0.0,0.0,0.0,0.0,0.0,0.0,0.0,0.0,0.0,0.0,0.0,0.0,0.0,0.0,0.0,0.0,0.0,0.0,0.0,0.0,0.0,0.0,0.0,0.0,0.0,0.0,0.0,0.0,0.0,0.0,0.0,0.0,0.0,0.0,0.0,0.0,0.0,0.0,0.0,0.0,0.0,0.0,0.0,0.0,0.0,0.0,0.0,0.0,0.0,0.0,0.0,-3.4908,-3.4908,-3.4908,-3.4908,-3.4908,-3.4908,-3.4908,-3.485,-3.485,-3.4908,0.0,0.0,0.0,0.0,0.0,0.0,0.0,0.0,0.0,0.0,0.0,0.0,0.0,0.0,0.0,0.0,0.0,0.0,0.0,0.0,0.0,0.0,0.0,0.0,0.0,0.0,0.0,0.0,0.0,0.0,0.0,0.0,0.0,0.0,0.0,0.0,0.0,0.0,0.0,0.0,0.0,0.0,0.0,0.0,0.0,0.0,0.0,0.0,0.0,0.0,0.0,0.0,0.0,0.0,0.0,0.0,0.0,0.0,0.0,0.0,0.0,0.0,0.0,0.0,0.0,0.0,0.0,0.0,0.0,0.0,0.0,0.0,0.0,0.0,0.0,0.0,0.0,0.0,0.0,0.0,0.0,0.0,0.0,0.0,0.0,0.0,0.0,0.0,0.0,0.0,0.0,0.0,0.0,0.0,0.0,0.0,0.0,0.0,0.0,0.0,0.0,0.0,-3.4908,-3.4908,-3.4908,-3.4908,-3.4908,-3.4908,-3.4908,-3.4831,-3.4812,-3.4889,0.0,0.0,0.0,0.0,0.0,0.0,0.0,0.0,0.0,0.0,0.0,0.0,0.0,0.0,0.0,0.0,0.0,0.0,0.0,0.0,0.0,0.0,0.0,0.0,0.0,0.0,0.0,0.0,0.0,0.0,0.0,0.0,0.0,0.0,0.0,0.0,0.0,0.0,0.0,0.0,0.0,0.0,0.0,0.0,0.0,0.0,0.0,0.0,0.0,0.0,0.0,0.0,0.0,0.0,0.0,0.0,0.0,0.0,0.0,0.0,0.0,0.0,0.0,0.0,0.0,0.0,0.0,0.0,0.0,0.0,0.0,0.0,0.0,0.0,0.0,0.0,0.0,0.0,0.0,0.0,0.0,0.0,0.0,0.0,0.0,0.0,0.0,0.0,0.0,0.0,0.0,0.0,0.0,0.0,0.0,0.0,0.0,0.0,0.0,0.0,0.0,0.0,-3.4908,-3.4908,-3.4908,-3.4908,-3.4908,-3.4908,-3.4908,-3.471,-3.4689,-3.4889,0.0,0.0,0.0,0.0,0.0,0.0,0.0,0.0,0.0,0.0,0.0,0.0,0.0,0.0,0.0,0.0,0.0,0.0,0.0,0.0,0.0,0.0,0.0,0.0,0.0,0.0,0.0,0.0,0.0,0.0,0.0,0.0,0.0,0.0,0.0,0.0,0.0,0.0,0.0,0.0,0.0,0.0,0.0,0.0,0.0,0.0,0.0,0.0,0.0,0.0,0.0,0.0,0.0,0.0,0.0,0.0,0.0,0.0,0.0,0.0,-3.038,-3.0011,0.0,0.0,0.0,0.0,0.0,0.0,0.0,0.0,0.0,0.0,0.0,0.0,0.0,0.0,0.0,0.0,0.0,0.0,0.0,0.0,0.0,0.0,0.0,0.0,0.0,0.0,0.0,0.0,0.0,0.0,0.0,0.0,0.0,0.0,0.0,0.0,0.0,0.0,0.0,0.0,-3.4908,-3.4908,-3.4908,-3.4908,-3.4908,-3.4908,-3.4908,-3.471,-3.4689,-3.4889,-3.471,0.0,0.0,0.0,0.0,0.0,0.0,0.0,0.0,0.0,0.0,0.0,0.0,0.0,0.0,0.0,0.0,0.0,0.0,0.0,0.0,0.0,0.0,0.0,0.0,0.0,0.0,0.0,0.0,0.0,0.0,0.0,0.0,0.0,0.0,0.0,0.0,0.0,0.0,0.0,0.0,0.0,0.0,0.0,0.0,0.0,0.0,0.0,0.0,0.0,0.0,0.0,0.0,0.0,0.0,0.0,0.0,0.0,0.0,0.0,-3.1028,-3.0511,0.0,0.0,0.0,0.0,0.0,0.0,0.0,0.0,0.0,0.0,0.0,0.0,0.0,0.0,0.0,0.0,0.0,0.0,0.0,0.0,0.0,0.0,0.0,0.0,0.0,0.0,0.0,0.0,0.0,0.0,0.0,0.0,0.0,0.0,0.0,0.0,0.0,0.0,0.0,0.0,-3.4908,-3.4908,-3.4908,-3.4908,-3.4908,-3.4908,-3.4908,-3.4792,-3.4751,-3.4751,-3.4647,0.0,0.0,0.0,0.0,0.0,0.0,0.0,0.0,0.0,0.0,0.0,0.0,0.0,0.0,0.0,0.0,0.0,0.0,0.0,0.0,0.0,0.0,0.0,0.0,0.0,0.0,0.0,0.0,0.0,0.0,0.0,0.0,0.0,0.0,0.0,0.0,0.0,0.0,0.0,0.0,0.0,0.0,0.0,0.0,0.0,0.0,0.0,0.0,0.0,0.0,0.0,0.0,0.0,-3.2902,-3.3294,-3.3294,-3.3294,-3.3294,-3.3205,-3.176,-3.1064,-3.0921,-3.0921,0.0,0.0,0.0,0.0,0.0,0.0,0.0,0.0,0.0,0.0,0.0,0.0,0.0,0.0,0.0,0.0,0.0,0.0,0.0,0.0,0.0,0.0,-3.1238,-3.1415,-3.2114,-3.2614,-3.2084,0.0,0.0,0.0,0.0,0.0,0.0,0.0,0.0,0.0,0.0,0.0,-3.4772,-3.4772,-3.4772,-3.4772,-3.4812,-3.485,-3.485,-3.485,-3.4791,-3.4647,-3.4583,-3.4561,0.0,0.0,0.0,0.0,0.0,0.0,0.0,0.0,0.0,0.0,0.0,0.0,0.0,0.0,0.0,0.0,0.0,0.0,0.0,0.0,0.0,0.0,0.0,0.0,0.0,0.0,0.0,0.0,0.0,0.0,0.0,0.0,-2.6891,-2.7535,0.0,0.0,0.0,0.0,0.0,0.0,0.0,0.0,0.0,0.0,0.0,0.0,0.0,-3.2563,-3.2563,-3.3384,-3.3776,-3.3794,-3.4543,-3.49,-3.49,-3.49,-3.49,-3.4847,-3.4008,0.0,-3.2563,-3.2563,0.0,0.0,0.0,0.0,0.0,0.0,0.0,0.0,0.0,0.0,0.0,0.0,0.0,0.0,0.0,0.0,0.0,0.0,0.0,0.0,0.0,0.0,-3.2035,-3.2091,-3.269,-3.3252,-3.3172,-3.3647,-3.403,-3.403,-3.4123,-3.4269,0.0,0.0,0.0,0.0,0.0,0.0,-3.4274,-3.4274,-3.4274,-3.4274,-3.4498,-3.4626,-3.4626,-3.4626,-3.471,-3.485,-3.4498,-3.4454,-3.4831,-3.4668,0.0,0.0,0.0,0.0,0.0,0.0,0.0,0.0,0.0,0.0,0.0,0.0,0.0,0.0,0.0,0.0,0.0,0.0,0.0,0.0,0.0,0.0,0.0,0.0,0.0,0.0,0.0,0.0,0.0,-2.7621,-2.8181,-2.8899,-2.9483,-2.9786,0.0,0.0,0.0,0.0,0.0,0.0,0.0,0.0,0.0,-3.3045,-3.3794,-3.4187,-3.4187,-3.4543,-3.4722,-3.4722,-3.5061,-3.5204,-3.5204,-3.5204,-3.5204,-3.5186,-3.4865,-3.4526,-3.4133,-3.3241,-3.2702,-3.2367,0.0,0.0,0.0,0.0,-3.188,-3.1839,-3.1332,-3.1249,-3.1255,-3.0814,0.0,0.0,0.0,0.0,0.0,0.0,0.0,-3.1639,-3.2072,-3.2433,-3.2703,-3.2703,-3.3021,-3.3352,-3.3352,-3.3549,-3.3753,-3.3753,-3.3753,-3.3807,-3.3895,-3.3947,0.0,0.0,0.0,-3.4197,-3.4197,-3.4197,-3.4197,-3.4197,-3.4293,-3.4381,-3.4381,-3.4381,-3.4409,-3.4502,-3.4298,-3.4274,-3.4502,-3.4583,-3.4666,0.0,0.0,0.0,0.0,0.0,0.0,0.0,0.0,0.0,0.0,0.0,0.0,0.0,0.0,0.0,0.0,0.0,0.0,0.0,0.0,0.0,0.0,0.0,0.0,0.0,0.0,0.0,0.0,-2.8824,-2.9431,-3.0057,-3.0521,-3.0886,0.0,0.0,0.0,0.0,0.0,0.0,-3.3455,-3.4062,-3.449,-3.4686,-3.5221,-3.5614,-3.581,-3.6024,-3.6131,-3.6131,-3.6328,-3.6417,-3.6417,-3.6417,-3.6417,-3.6399,-3.5989,-3.581,-3.5685,-3.4133,-3.3473,-3.3455,-3.3277,-3.3205,-3.3169,-3.2987,-3.2916,-3.2858,-3.2237,-3.2054,-3.1977,-3.144,-3.1213,-3.1148,-3.1303,0.0,0.0,0.0,0.0,-3.2415,-3.2942,-3.3086,-3.3086,-3.3086,-3.3183,-3.3262,-3.3262,-3.3274,-3.3334,-3.3393,-3.3393,-3.3422,-3.3509,-3.3605,0.0,-3.3807,-3.3895,-3.3998,-3.3998,-3.3998,-3.3998,-3.3998,-3.4049,-3.4099,-3.4099,-3.4173,-3.4197,-3.4197,-3.4148,-3.4173,-3.4293,-3.4363,-3.4476,-3.4668,0.0,0.0,0.0,0.0,0.0,0.0,0.0,0.0,0.0,0.0,0.0,0.0,0.0,0.0,0.0,0.0,0.0,0.0,0.0,0.0,0.0,0.0,0.0,0.0,0.0,0.0,0.0,0.0,0.0,-3.0434,-3.1171,0.0,0.0,0.0,0.0,-3.4972,-3.5025,-3.5043,-3.5096,-3.5132,-3.5489,-3.6256,-3.6328,-3.6702,-3.7452,-3.8237,-3.8629,-3.8629,-3.9343,-3.9664,-3.9664,-3.9664,-3.9664,-3.9593,-3.8112,-3.747,-3.7345,-3.5757,-3.5096,-3.5025,-3.4311,-3.4044,-3.3955,-3.3169,-3.2916,-3.2916,-3.2862,-3.2844,-3.2844,-3.2809,-3.284,-3.2872,-3.2903,-3.2916,0.0,0.0,-3.3032,-3.3032,-3.3086,-3.3086,-3.3086,-3.3086,-3.3117,-3.3117,-3.3117,-3.3117,-3.3165,-3.3364,-3.3393,-3.3481,-3.3726,0.0,-3.3509,-3.378,-3.3605,-3.3452,-3.3452,-3.3452,-3.3452,-3.3452,-3.3671,-3.3815,-3.3815,-3.4049,-3.4197,-3.4197,-3.3947,-3.4049,-3.4561,-3.4099,-3.416,-3.487,-3.471,0.0,0.0,0.0,0.0,0.0,0.0,0.0,0.0,0.0,0.0,0.0,0.0,0.0,0.0,0.0,0.0,0.0,0.0,0.0,0.0,0.0,0.0,0.0,0.0,0.0,0.0,0.0,0.0,-3.2347,-3.3341,0.0,-3.4347,-3.465,-3.4936,-3.5186,-3.5685,-3.5971,-3.5971,-3.6952,-3.7648,-3.7951,-3.8415,-3.879,-3.9075,-3.9361,-3.9521,-3.9521,-3.9789,-3.9914,-3.9914,-3.9914,-3.9914,-3.9878,-3.9325,-3.9075,-3.9004,-3.7951,-3.6613,-3.5186,-3.4918,-3.4811,-3.4775,-3.449,-3.4383,-3.4311,-3.383,-3.3669,-3.358,-3.3094,-3.2916,-3.2948,-3.2948,-3.2948,-3.2961,-3.2961,-3.2961,-3.2961,-3.2961,-3.2961,-3.2961,-3.2961,-3.3011,-3.3042,-3.3042,-3.3055,-3.3117,-3.3196,-3.3274,-3.3382,-3.352,-3.3452,-3.3422,-3.352,-3.3452,-3.3393,-3.3393,-3.3393,-3.3393,-3.3393,-3.3481,-3.3549,-3.3549,-3.3633,-3.3753,-3.3921,-3.3842,-3.3972,-3.4316,-3.4316,-3.4431,-3.471,-3.4771,-3.4831,0.0,0.0,0.0,0.0,0.0,0.0,0.0,0.0,0.0,0.0,0.0,0.0,0.0,0.0,0.0,0.0,0.0,0.0,0.0,0.0,0.0,0.0,0.0,0.0,0.0,0.0,-3.2966,-3.4323,-3.4995,-3.5616,-3.6328,-3.6417,-3.6524,-3.6774,-3.7291,-3.7577,-3.7577,-3.8594,-3.9307,-3.9575,-4.0057,-4.0449,-4.0717,-4.0717,-4.0717,-4.0717,-4.0717,-4.0717,-4.0717,-4.0717,-4.0717,-4.0699,-4.0431,-4.0307,-4.0253,-3.9486,-3.8237,-3.672,-3.5917,-3.5614,-3.5578,-3.5311,-3.5204,-3.5132,-3.465,-3.4472,-3.4383,-3.3847,-3.3491,-3.3294,-3.3294,-3.3098,-3.2916,-3.2916,-3.2916,-3.2916,-3.2916,-3.2916,-3.2916,-3.2916,-3.2948,-3.2948,-3.2948,-3.3011,-3.3024,-3.3055,-3.3152,-3.3244,-3.3304,-3.3304,-3.3394,-3.3713,-3.3544,-3.3472,-3.3773,-3.3574,-3.3393,-3.3393,-3.3393,-3.3393,-3.3393,-3.3393,-3.3481,-3.3643,-3.3671,-3.3834,-3.4197,-3.4269,-3.4431,-3.4689,-3.4831,-3.4908,-3.4908,0.0,0.0,0.0,0.0,0.0,0.0,0.0,0.0,0.0,0.0,0.0,0.0,0.0,0.0,0.0,0.0,0.0,0.0,0.0,0.0,0.0,0.0,0.0,-3.2831,-3.2904,-3.3796,-3.6132,-3.6054,-3.6615,-3.8645,-3.8843,-3.9147,-3.986,-3.9932,-3.995,-3.995,-3.9968,-4.0342,-4.1109,-4.1145,-4.1502,-4.2287,-4.2287,-4.2287,-4.2287,-4.2287,-4.2287,-4.2287,-4.2287,-4.2287,-4.2251,-4.1484,-4.1145,-4.1074,-4.0271,-3.995,-3.9718,-3.738,-3.647,-3.6381,-3.5578,-3.5275,-3.5257,-3.5257,-3.5239,-3.5204,-3.5204,-3.4722,-3.4133,-3.4133,-3.358,-3.2987,-3.2987,-3.2969,-3.2952,-3.2952,-3.2934,-3.2916,-3.2916,-3.2916,-3.2916,-3.2916,-3.2916,-3.2916,-3.2979,-3.306,-3.3122,-3.3086,-3.3104,-3.344,-3.4344,-3.3833,0.0,-3.4467,-3.39,-3.3411,-3.3429,-3.3411,-3.3411,-3.3447,-3.3411,-3.3393,-3.3393,-3.3393,-3.3633,-3.4173,-3.3947,-3.4179,-3.4889,-3.4889,-3.4889,-3.4908,0.0,0.0,0.0,0.0,0.0,0.0,0.0,0.0,0.0,0.0,0.0,0.0,0.0,0.0,0.0,0.0,0.0,0.0,0.0,0.0,0.0,0.0,-3.2748,-3.2428,-3.4384,-3.5976,-3.6277,-3.7782,-3.8978,-3.9519,-3.9611,-3.97,-3.9896,-4.0449,-4.077,-4.077,-4.1324,-4.1734,-4.1948,-4.1966,-4.2073,-4.2287,-4.2287,-4.2287,-4.2287,-4.2103,-4.2103,-4.2287,-4.2103,-4.2103,-4.2269,-4.2055,-4.1966,-4.1895,-4.1092,-4.077,-4.0592,-3.8826,-3.8148,-3.8041,-3.7238,-3.656,-3.6078,-3.6078,-3.5685,-3.5204,-3.5204,-3.5079,-3.49,-3.49,-3.474,-3.4579,-3.4579,-3.4187,-3.3776,-3.3776,-3.333,-3.2916,-3.2916,-3.2916,-3.2916,-3.2916,-3.2916,-3.2916,-3.2916,-3.343,-3.3677,-3.3194,-3.3571,-3.4069,-3.4335,-3.4173,-3.4101,-3.4366,-3.3779,-3.3557,-3.4135,-3.3725,-3.3647,-3.4226,-3.3737,-3.3393,-3.3393,-3.3393,-3.3549,-3.3895,-3.4023,-3.4344,-3.4908,-3.4771,-3.4751,0.0,0.0,0.0,0.0,0.0,0.0,0.0,0.0,0.0,0.0,0.0,0.0,0.0,0.0,0.0,0.0,0.0,0.0,0.0,0.0,0.0,0.0,-3.3362,-3.4061,-3.3845,-3.5375,-3.6956,-3.7878,-3.9063,-4.01,-4.082,-4.0913,-4.0913,-4.0913,-4.1341,-4.1591,-4.1591,-4.1955,-4.2187,-4.2287,-4.2187,-4.2205,-4.2287,-4.2287,-4.2287,-4.2287,-4.2019,-4.1977,-4.2103,-4.1892,-4.1849,-4.1995,-4.1995,-4.1995,-4.2002,-4.1564,-4.1428,-4.1309,0.0,0.0,0.0,0.0,-3.7291,-3.6899,-3.6899,-3.6595,-3.6203,-3.6203,-3.5989,-3.5703,-3.5703,-3.5471,-3.5204,-3.5204,-3.49,-3.4508,-3.4187,-3.3758,-3.3312,-3.2987,-3.2916,-3.2973,-3.3312,-3.3384,-3.3491,-3.3794,-3.424,0.0,-3.4067,-3.4372,-3.4817,-3.5208,-3.4975,-3.476,-3.4792,-3.4173,-3.3772,-3.3898,-3.3593,-3.3533,-3.4021,-3.3623,0.0,0.0,0.0,-3.3549,-3.3947,-3.4221,0.0,0.0,0.0,-3.4791,-3.4908,-3.4908,0.0,0.0,-3.4207,-3.396,0.0,0.0,0.0,0.0,0.0,0.0,0.0,0.0,0.0,0.0,0.0,0.0,0.0,0.0,0.0,0.0,-3.4848,-3.5836,-3.6125,-3.6257,-3.7312,-3.9957,-4.0068,-4.0515,-4.2092,-4.2246,-4.2228,-4.2287,-4.2287,-4.2287,-4.2246,0.0,0.0,0.0,0.0,-4.2019,-4.2287,-4.2287,-4.2246,-4.2246,-4.1977,-4.1831,-4.1831,-4.1631,-4.156,-4.1604,-4.1604,-4.1604,-4.1604,-4.1805,-4.1892,-4.1775,-4.0402,-3.9468,-3.8701,-3.7898,-3.7577,-3.7577,-3.7577,0.0,0.0,-3.7577,-3.7113,-3.6542,-3.6542,-3.6042,-3.5471,-3.5471,-3.5418,-3.5168,-3.4418,-3.4169,-3.3919,-3.3205,-3.3027,-3.3241,-3.4062,-3.4222,-3.4418,-3.5079,-3.5275,-3.5346,-3.5346,-3.5346,-3.5631,-3.6433,-3.5984,-3.5482,-3.546,-3.4774,-3.402,-3.3301,-3.3268,0.0,-3.3406,-3.3316,-3.3292,-3.3364,-3.3322,-3.3549,-3.4124,-3.4381,-3.4607,-3.4851,-3.487,-3.4889,-3.4908,-3.4908,-3.4908,-3.4908,-3.4908,-3.4908,0.0,0.0,0.0,0.0,0.0,0.0,0.0,0.0,0.0,0.0,0.0,0.0,0.0,0.0,0.0,-3.4136,-3.5431,-3.6598,-3.7252,-3.7859,-3.8565,-3.9384,-4.0354,-4.1216,-4.1917,-4.177,-4.1856,-4.2287,-4.2287,-4.2205,-4.1977,-4.1917,-4.1917,-4.1977,-4.1934,-4.2019,-4.2287,-4.2103,-4.1977,-4.1977,-4.1525,0.0,-4.1648,-4.1391,-4.1408,-4.1604,-4.1604,-4.1604,-4.1604,-4.1648,-4.1762,-4.1775,-4.0402,-3.9468,-3.8701,-3.7898,-3.7577,-3.7577,-3.7577,-3.7577,-3.7577,-3.7577,-3.747,-3.7362,-3.7362,-3.7255,0.0,-3.7131,-3.6667,-3.5989,-3.5204,-3.4561,-3.4062,-3.3901,-3.3865,-3.4079,-3.4847,-3.4989,-3.5043,-3.5186,-3.5721,-3.6167,-3.6167,-3.6167,-3.6221,-3.6416,-3.6309,-3.5988,-3.5327,-3.4643,-3.4171,-3.3992,-3.3481,-3.3386,-3.4033,-3.3494,-3.3135,-3.3165,-3.3165,-3.3357,-3.3842,-3.3868,-3.4124,-3.4647,-3.4647,-3.4751,-3.4908,-3.4908,-3.4908,-3.4908,-3.4908,-3.4908,0.0,0.0,0.0,0.0,0.0,0.0,0.0,0.0,0.0,0.0,0.0,-3.1781,0.0,0.0,-3.4219,-3.5771,-3.6604,-3.7392,-3.815,-3.8668,-3.911,-3.9429,-4.0306,-4.1065,-4.1561,-4.177,-4.2002,-4.2287,-4.2205,-4.2061,-4.1934,-4.1657,-4.1657,-4.1874,-4.1805,-4.1849,-4.2103,-4.1977,-4.1849,-4.1762,-4.1391,-4.1255,-4.1408,-4.118,-4.1134,-4.1244,-4.1244,-4.1244,-4.1244,-4.1363,-4.1587,-4.181,-4.0765,-3.9921,-3.9272,-3.8487,-3.7933,-3.7577,-3.7577,-3.7577,-3.7577,-3.7577,-3.7577,-3.7577,-3.7577,-3.7577,-3.7577,-3.7577,-3.7291,-3.6809,-3.6006,-3.5543,-3.515,-3.4757,-3.465,-3.4865,-3.5632,-3.581,-3.5917,-3.6328,-3.672,-3.6988,-3.6988,-3.6988,-3.6988,-3.6988,-3.6988,-3.656,-3.5364,-3.4916,-3.4413,-3.3641,-3.3243,-3.3203,-3.3598,-3.3319,-3.3086,-3.3073,-3.3086,-3.328,-3.3616,-3.3734,-3.4005,-3.4502,-3.4626,-3.4769,-3.4908,-3.4908,-3.4908,-3.4908,-3.4908,-3.4908,0.0,0.0,0.0,0.0,0.0,0.0,0.0,0.0,-3.1092,-3.1092,-3.1817,-3.2757,-3.389,-3.4542,-3.5438,-3.7161,-3.7677,-3.8025,-3.8613,-3.8898,-3.9098,-3.9348,-4.0036,-4.072,-4.123,-4.177,-4.2103,-4.2205,-4.1977,-4.1805,-4.1744,-4.1391,-4.1391,-4.1849,-4.1631,-4.1631,-4.1892,-4.1788,-4.1657,-4.1498,-4.1255,-4.1117,-4.1117,-4.0965,-4.0888,-4.0888,-4.0888,-4.0888,-4.0935,-4.1117,-4.1436,-4.1778,-4.1244,-4.0641,-4.0039,-3.9147,-3.829,-3.7577,-3.7577,-3.7577,-3.7577,-3.7577,-3.7577,-3.7577,-3.7577,-3.7577,-3.7577,-3.7577,-3.7577,-3.7398,-3.6613,-3.6399,-3.6238,-3.5596,-3.5435,-3.565,-3.6453,-3.6631,-3.6809,-3.7452,-3.7577,-3.7577,-3.7577,-3.7577,-3.7577,-3.7577,-3.7452,-3.6827,-3.54,-3.5079,-3.4454,-3.3059,-3.2948,-3.2979,-3.2979,-3.3042,-3.3024,-3.3011,-3.3042,-3.316,-3.3419,-3.3662,-3.3961,-3.4307,-3.4586,-3.4751,-3.4792,-3.487,-3.4889,-3.4831,-3.487,-3.4908,-2.6354,-2.7008,-2.764,-2.8369,-2.9162,-2.9907,0.0,0.0,-3.1882,-3.1882,-3.2951,-3.3906,-3.4068,-3.5671,-3.7031,-3.7274,-3.7913,-3.8351,-3.8432,-3.8448,-3.8504,-3.8544,-3.9542,-4.048,-4.1146,-4.1283,-4.148,-4.1917,-4.1762,-4.1542,-4.13,-4.1255,-4.1346,-4.1648,-4.1408,-4.148,-4.1892,-4.148,-4.1255,-4.1255,-4.1041,-4.0918,-4.0918,-4.0935,-4.0888,-4.0888,-4.0888,-4.0888,-4.0935,-4.1117,-4.1346,-4.1631,-4.1743,-4.144,-4.0788,-3.9343,-3.829,-3.7577,-3.7577,-3.7577,-3.7577,-3.7577,-3.7577,-3.7577,-3.7577,-3.7577,-3.7577,-3.7577,-3.7577,-3.7398,-3.6613,-3.6399,-3.6381,-3.6292,-3.6274,-3.6488,-3.7273,-3.7452,-3.747,-3.7559,-3.7577,-3.7577,-3.7577,-3.7577,-3.7577,-3.7577,-3.6988,-3.6203,-3.5328,-3.4633,-3.3883,-3.2973,-3.2916,-3.2916,-3.2916,-3.2916,-3.2948,-3.2997,-3.2948,-3.2993,-3.3147,-3.335,-3.3616,-3.3947,-3.4284,-3.4439,-3.4454,-3.4752,-3.4811,-3.4626,-3.4831,-3.4908,-2.7049,-2.8109,0.0,0.0,-3.0263,-3.1186,-3.1494,-3.2109,-3.274,-3.3145,-3.402,-3.4991,-3.5817,-3.6707,-3.7452,0.0,-3.8197,-3.8391,-3.8391,-3.8391,-3.8464,-3.852,-3.9242,-3.9935,-4.0449,-4.0849,-4.1283,-4.1675,-4.1498,-4.13,-4.1209,-4.1088,-4.1134,-4.1363,-4.1255,-4.1283,-4.148,-4.13,-4.1117,-4.1041,-4.0918,-4.0888,-4.0888,-4.0888,-4.0888,-4.0888,-4.0888,-4.0888,-4.0935,-4.1012,-4.118,-4.1408,-4.1631,-4.1414,-4.0806,-3.9822,-3.8968,-3.8237,-3.7755,-3.7577,-3.7577,-3.7577,-3.7577,-3.7577,-3.7577,-3.7577,-3.7577,-3.7577,-3.7577,-3.7505,-3.7184,-3.7095,-3.7095,-3.7095,-3.7095,-3.7184,-3.7523,-3.7577,-3.7577,-3.7577,-3.7202,-3.6899,-3.6899,-3.6506,-3.6203,-3.6203,-3.631,-3.5953,-3.4722,-3.4294,-3.3794,-3.3005,-3.2916,-3.2916,-3.2916,-3.2916,-3.2916,-3.2948,-3.2916,-3.2916,-3.2979,-3.319,-3.3447,-3.3778,-3.4068,-3.4321,-3.4517,-3.4749,-3.479,-3.4727,-3.485,-3.4908,-2.8003,0.0,0.0,-3.0409,-3.1396,-3.2303,-3.2303,-3.2854,-3.3501,-3.4003,-3.4845,-3.5801,-3.6853,-3.7355,-3.7792,-3.8311,-3.8391,-3.8391,-3.8391,-3.8391,-3.8464,-3.8504,-3.8898,-3.9295,-3.9714,-4.0449,-4.1036,-4.1453,-4.1272,-4.1117,-4.1117,-4.0965,-4.0995,-4.1192,-4.1163,-4.1163,-4.1209,-4.1163,-4.1041,-4.0888,-4.0888,-4.0888,-4.0888,-4.0888,-4.0888,-4.0888,-4.0888,-4.0888,-4.0888,-4.0888,-4.1041,-4.1346,-4.1498,-4.1427,-4.1138,-4.0459,-3.9629,-3.8683,-3.7862,-3.7577,-3.7577,-3.7577,-3.7577,-3.7577,-3.7577,-3.7577,-3.7577,-3.7577,-3.7577,-3.7577,-3.7577,-3.7577,-3.7577,-3.7577,-3.7577,-3.7523,-3.7309,-3.7255,-3.7184,-3.697,-3.647,-3.6078,-3.6078,-3.5596,-3.5132,-3.4936,-3.54,-3.5364,-3.424,-3.3919,-3.3544,-3.2969,-3.2916,-3.2916,-3.2916,-3.2916,-3.2916,-3.2916,-3.2916,-3.2916,-3.2916,-3.3055,-3.3291,-3.3671,-3.3884,-3.4105,-3.434,-3.458,-3.4623,-3.4495,-3.473,-3.4831,-2.9464,0.0,-3.1056,-3.1769,-3.2514,-3.3064,-3.3064,-3.3582,-3.4084,-3.4101,-3.5266,-3.6287,-3.6335,-3.7452,-3.8375,-3.8391,-3.8391,-3.8391,-3.8391,-3.8391,-3.8391,-3.8408,-3.8391,-3.86,0.0,-4.0003,-4.0784,-4.1192,-4.1041,-4.0935,-4.0935,-4.0871,-4.0995,-4.1192,-4.0995,-4.0995,-4.1209,-4.1012,-4.0935,-4.0888,-4.0888,-4.0888,-4.0888,-4.0888,-4.0888,-4.0888,-4.0888,-4.0888,-4.0888,-4.0888,-4.1152,-4.1604,-4.1604,-4.1892,-4.2162,-4.1359,-4.011,-3.8683,-3.7862,-3.7577,-3.7577,-3.7577,-3.7577,-3.7577,-3.7577,-3.7577,-3.7577,-3.7577,-3.7577,-3.7577,-3.7577,-3.7577,-3.7577,-3.7577,-3.7577,-3.738,-3.6595,-3.6435,-3.6203,-3.5435,-3.5257,-3.5257,-3.5257,-3.5239,-3.4972,-3.424,-3.4151,-3.4151,-3.4115,-3.3419,-3.2952,-3.2916,-3.2916,-3.2916,-3.2916,-3.2916,-3.2916,-3.2916,-3.2916,-3.2916,-3.2916,-3.2916,-3.3117,-3.3587,-3.3671,-3.3725,-3.3726,-3.4197,-3.4173,-3.3753,-3.434,-3.4623,-3.0312,0.0,-3.2417,-3.2659,-3.3242,-3.3761,-3.3761,-3.3939,-3.423,-3.4716,-3.5202,-3.572,-3.6206,-3.6691,-3.7161,-3.7614,-3.7679,-3.7841,-3.8327,-3.8391,-3.8391,-3.8391,-3.8391,0.0,0.0,0.0,0.0,-4.0566,-4.0776,-4.0888,-4.0888,-4.0888,-4.0918,-4.1012,-4.0918,-4.0918,-4.1012,-4.0918,-4.0888,-4.0888,-4.0888,-4.0888,-4.0888,-4.0888,-4.0888,-4.0888,-4.0888,-4.0888,-4.0888,-4.0888,-4.0965,-4.1152,-4.1471,-4.1692,-4.176,-4.1109,-4.0331,-3.9432,-3.8665,-3.8041,-3.7577,-3.7577,-3.7577,-3.7577,-3.7577,-3.7577,-3.7577,-3.7577,-3.7577,-3.7577,-3.7577,-3.7577,-3.7452,-3.6916,-3.6792,-3.6577,-3.5792,-3.5614,-3.5525,-3.5257,-3.4811,-3.4472,-3.4472,-3.4026,-3.358,-3.333,-3.3294,-3.3294,-3.3294,-3.3094,-3.2916,-3.2916,-3.2916,-3.2916,-3.2916,-3.2916,-3.2916,-3.2916,-3.2916,-3.2916,-3.2916,-3.2916,-3.3024,-3.3309,-3.335,-3.3465,-3.3615,-3.3921,-3.3998,-3.3842,-3.4173,-3.4427,-3.1364,-3.2384,-3.3145,-3.3388,-3.3777,-3.4101,-3.4101,-3.4101,-3.423,-3.47,-3.5007,-3.5331,-3.5817,-3.6125,-3.6448,-3.6886,-3.7161,-3.7485,-3.7954,-3.823,-3.8391,-3.8391,-3.8391,-3.8504,0.0,0.0,0.0,-4.0238,-4.068,-4.0888,-4.0888,-4.0888,-4.0888,-4.0888,-4.0888,-4.0888,-4.0888,-4.0888,-4.0888,-4.0888,-4.0888,-4.0888,-4.0888,-4.0888,-4.0823,-4.0697,-4.0697,-4.0566,-4.0451,-4.0451,-4.0597,-4.0836,-4.11,-4.1408,-4.1552,-4.1216,-4.0477,-3.9589,-3.8904,-3.818,-3.7577,-3.7577,-3.7577,-3.7577,-3.7577,-3.7577,-3.7577,-3.7577,-3.7577,-3.7577,-3.7577,-3.7577,-3.738,-3.6577,-3.6399,-3.6114,-3.5043,-3.4811,-3.4722,-3.4436,-3.399,-3.3669,-3.3669,-3.3223,-3.2916,-3.2916,-3.2916,-3.2916,-3.2916,-3.2916,-3.2916,-3.2916,-3.2916,-3.2916,-3.2916,-3.2916,-3.2916,-3.2916,-3.2916,-3.2916,-3.2916,-3.2916,-3.2993,-3.319,-3.319,-3.328,-3.3473,-3.3671,-3.3726,-3.3606,-3.4023,-3.4293,-3.253,-3.3113,-3.3291,-3.3939,-3.4101,-3.4101,-3.4101,-3.4068,-3.4052,-3.4052,-3.457,-3.5024,0.0,0.0,-3.6157,-3.6189,-3.6772,-3.7242,-3.7307,-3.7906,-3.8359,0.0,0.0,0.0,0.0,0.0,0.0,-4.0188,0.0,-4.0888,-4.0888,-4.0888,-4.0888,-4.0888,-4.0888,-4.0888,-4.0888,-4.0888,-4.0888,-4.0888,-4.0888,-4.0871,-4.0823,-4.0823,-4.0631,-4.0238,-4.0238,-4.0003,-3.961,-3.961,-3.9986,-4.0528,-4.0577,-4.099,-4.1542,-4.156,-4.0621,-3.9199,-3.8647,-3.8046,-3.7594,-3.7594,-3.7594,-3.7577,-3.7577,-3.7577,-3.7594,-3.7594,-3.7577,-3.7577,-3.7577,-3.7577,-3.738,-3.6542,-3.6328,-3.5917,-3.4365,-3.4044,-3.3812,-3.3059,-3.2916,-3.2916,-3.2916,-3.2916,-3.2916,-3.2916,-3.2916,-3.2916,-3.2916,-3.2916,-3.2916,-3.2916,-3.2916,-3.2916,-3.2916,-3.2916,-3.2916,-3.2916,-3.2916,-3.2916,-3.2916,-3.2916,-3.2993,-3.319,-3.319,-3.319,-3.319,-3.3386,-3.3375,-3.3147,-3.385,-3.4197,-3.2789,-3.3453,-3.389,-3.4052,-3.4101,-3.4101,-3.4101,-3.3712,-3.334,-3.334,-3.3064,-3.2821,0.0,0.0,0.0,-3.4586,-3.5266,0.0,-3.7161,-3.7469,0.0,-3.8327,0.0,-3.8391,-3.8391,-3.8766,0.0,0.0,-4.002,-4.0583,-4.0871,-4.0888,-4.0776,-4.0436,-4.0728,-4.0745,-4.0453,-4.0728,-4.0745,-4.0436,-4.0436,-4.0271,-3.9919,-3.9919,-3.9885,-3.9782,-3.9782,-3.9714,-3.961,-3.961,-3.9697,-3.9885,-4.0383,-4.0672,-4.0896,-4.1192,-4.0429,-3.9245,-3.8891,-3.8053,-3.7126,-3.7126,-3.7126,-3.7164,-3.7334,-3.7372,-3.741,-3.7558,-3.7577,-3.7577,-3.7577,-3.7577,-3.7238,-3.5846,-3.5525,-3.5079,-3.3526,-3.3205,-3.3134,-3.2952,-3.2916,-3.2916,-3.2916,-3.2916,-3.2916,-3.2916,-3.2916,-3.2916,-3.2916,-3.2916,-3.2916,-3.2916,-3.2916,-3.2916,-3.2916,-3.2916,-3.2916,-3.2916,-3.2916,-3.2916,-3.2916,-3.2916,-3.2916,-3.2979,-3.2979,-3.2979,-3.2979,-3.3117,-3.328,-3.3419,-3.3743,-3.4124,-3.3259,-3.3809,-3.4101,-3.4101,-3.4101,-3.402,-3.3728,-3.3356,-3.3,-3.2676,-3.2287,0.0,-3.2012,-3.2336,0.0,0.0,0.0,0.0,-3.5785,-3.6724,-3.7469,0.0,-3.8197,0.0,-3.8391,-3.86,-3.8821,0.0,-3.9833,-4.0404,-4.0631,-4.0776,-4.0793,-4.0583,-4.0776,-4.068,-4.0288,-4.032,-4.0204,-4.0003,-4.0003,-3.9833,-3.961,-3.961,-3.9506,-3.9365,-3.9365,-3.9259,-3.9044,-3.9044,-3.9152,-3.9365,-3.9749,-4.0003,-4.0186,-4.0645,-3.9824,-3.8515,-3.8711,-3.775,-3.655,-3.6891,-3.7066,-3.7143,-3.7259,-3.7372,-3.7447,-3.7594,-3.7577,-3.7577,-3.7577,-3.7577,-3.7184,-3.5578,-3.5204,-3.4793,-3.3223,-3.2916,-3.2916,-3.2916,-3.2916,-3.2916,-3.2916,-3.2916,-3.2916,-3.2916,-3.2916,-3.2916,-3.2916,-3.2916,-3.2916,-3.2916,-3.2916,-3.2916,-3.2916,-3.2916,-3.2916,-3.2916,-3.2916,-3.2916,-3.2916,-3.2916,-3.2916,-3.2916,-3.2916,-3.2916,-3.2916,-3.3135,-3.3309,-3.3514,-3.3902,-3.4245,-3.3728,-3.4101,-3.4101,-3.4101,-3.4036,-3.3809,-3.3226,-3.2935,-3.2627,-3.1996,0.0,-3.172,-3.172,-3.1801,-3.1866,-3.1866,0.0,-3.4003,-3.4084,-3.5882,-3.7226,-3.7307,-3.7954,-3.8391,-3.8391,-3.8391,-3.856,-3.886,-3.9661,-4.0138,-4.0188,-4.0534,-4.0776,-4.084,-4.0776,-4.0583,-4.0288,-3.9901,-3.961,-3.9506,-3.9506,-3.9506,-3.9454,-3.9454,-3.9259,-3.8914,-3.8914,-3.8711,-3.8391,-3.8391,-3.8616,-3.8914,-3.8969,-3.9222,-3.9558,-3.9969,-3.894,-3.7498,-3.8094,-3.7182,-3.5898,-3.6673,-3.7027,-3.7182,-3.7259,-3.7372,-3.754,-3.7577,-3.7577,-3.7577,-3.7577,-3.7577,-3.7184,-3.5578,-3.5204,-3.4793,-3.3223,-3.2916,-3.2916,-3.2916,-3.2916,-3.2916,-3.2916,-3.2916,-3.2916,-3.2916,-3.2916,-3.2916,-3.2916,-3.2916,-3.2916,-3.2916,-3.2916,-3.2916,-3.2916,-3.2916,-3.2916,-3.2916,-3.2916,-3.2916,-3.2916,-3.2916,-3.2916,-3.2916,-3.2916,-3.2916,-3.2916,-3.3214,-3.3415,-3.357,-3.4111,-3.4454,-3.3728,-3.4101,-3.4101,-3.4101,-3.368,-3.3226,-3.3113,-3.2158,0.0,0.0,-3.0652,-3.0275,-3.0275,-3.0716,-3.1059,-3.1059,0.0,0.0,0.0,-3.5477,-3.6691,0.0,-3.7954,-3.8391,-3.8391,-3.8391,0.0,0.0,-3.8969,-3.9382,-3.9714,-3.9765,-3.9986,-4.0387,-4.0054,-3.9986,-4.0305,-4.0238,-3.9816,-3.9115,-3.9115,-3.8914,-3.86,-3.86,-3.8544,-3.8504,-3.8504,-3.8448,-3.8391,-3.8391,-3.8448,-3.856,-3.8876,-3.9023,-3.9102,-3.8974,-3.8237,-3.7334,-3.6939,-3.6349,-3.5871,-3.6301,-3.6426,-3.655,-3.693,-3.7066,-3.7164,-3.7503,-3.7577,-3.7577,-3.7577,-3.7577,-3.7184,-3.5578,-3.5204,-3.4793,-3.3223,-3.2916,-3.2916,-3.2916,-3.2916,-3.2916,-3.2916,-3.2916,-3.2916,-3.2916,-3.2916,-3.2916,-3.2916,-3.2916,-3.2916,-3.2916,-3.2916,-3.2916,-3.2916,-3.2916,-3.2916,-3.2916,-3.2916,-3.2916,-3.2916,-3.2916,-3.2916,-3.2916,-3.2916,-3.2916,-3.2916,-3.3011,-3.3321,-3.3828,-3.3981,-3.4353,-3.3291,-3.3582,-3.3582,-3.3582,-3.3048,-3.2433,-3.2044,0.0,0.0,0.0,-3.0101,-2.9918,-2.9918,-3.015,0.0,-3.0376,0.0,0.0,0.0,0.0,0.0,-3.6659,-3.7404,-3.7987,0.0,-3.8391,-3.8391,-3.8391,-3.856,-3.886,-3.9259,-3.9506,-3.9714,-3.9952,-3.9523,-3.9382,-3.9609,-3.9398,-3.9077,-3.8711,-3.8711,-3.8616,-3.8391,-3.8391,-3.8391,-3.8391,-3.8391,-3.8391,-3.8391,-3.8391,-3.8391,-3.8391,-3.86,-3.8711,-3.8668,-3.8342,-3.7614,-3.6818,-3.6517,-3.5877,-3.527,-3.5633,-3.6156,-3.6731,-3.693,-3.7126,-3.7354,-3.7558,-3.7577,-3.7577,-3.7577,-3.7577,-3.7184,-3.5578,-3.4597,-3.3794,-3.3045,-3.2916,-3.2916,-3.2916,-3.2916,-3.2916,-3.2916,-3.2916,-3.2916,-3.2916,-3.2916,-3.2916,-3.2916,-3.2916,-3.2916,-3.2916,-3.2916,-3.2916,-3.2916,-3.2916,-3.2916,-3.2916,-3.2916,-3.2916,-3.2916,-3.2916,-3.2916,-3.2916,-3.2916,-3.2916,-3.2916,-3.3024,-3.3291,-3.3634,-3.3839,-3.4117,-3.2659,-3.2854,-3.2854,-3.2854,-3.219,-3.1445,-3.0978,-3.0684,0.0,0.0,-2.9918,-2.9918,-2.9918,0.0,-2.9918,0.0,-3.0457,-3.1075,0.0,0.0,0.0,0.0,-3.6707,0.0,-3.8116,-3.8311,0.0,-3.8391,-3.8391,-3.856,-3.886,-3.9152,-3.9401,-3.9454,-3.9169,-3.9023,-3.9023,-3.8711,-3.8504,-3.8391,-3.8391,-3.8391,-3.8391,-3.8391,-3.8391,-3.8391,-3.8391,-3.8391,-3.8391,-3.8391,-3.8391,-3.8391,-3.8391,-3.8391,-3.8351,-3.7752,-3.7045,-3.6279,-3.6009,-3.5363,-3.4739,-3.5085,-3.5924,-3.6811,-3.6851,-3.7203,-3.754,-3.7594,-3.7577,-3.7577,-3.7577,-3.7452,-3.6934,-3.5346,-3.3901,-3.2916,-3.2916,-3.2916,-3.2916,-3.2916,-3.2916,-3.2916,-3.2916,-3.2916,-3.2916,-3.2916,-3.2916,-3.2916,-3.2916,-3.2916,-3.2916,-3.2916,-3.2916,-3.2916,-3.2916,-3.2916,-3.2916,-3.2916,-3.2916,-3.2916,-3.2916,-3.2916,-3.2916,-3.2916,-3.2916,-3.2916,-3.2916,-3.3055,-3.3232,-3.3419,-3.3689,-3.3884,-3.1915,-3.2109,-3.2109,-3.2109,-3.1073,-3.0214,-3.0797,0.0,0.0,-2.9789,-2.9918,-2.9918,-2.9918,-2.9918,-2.9918,-2.9918,0.0,-3.0898,0.0,0.0,0.0,0.0,0.0,0.0,-3.7404,-3.8019,-3.8391,-3.8391,-3.8391,-3.8391,-3.8448,-3.8504,-3.8655,-3.9023,-3.9023,-3.9023,-3.9023,-3.8969,-3.8766,-3.8391,-3.8391,-3.8391,-3.8391,-3.8391,-3.8391,-3.8391,-3.8391,-3.8391,-3.8391,-3.8391,-3.8391,-3.8391,-3.8391,-3.8391,-3.823,-3.694,-3.6405,-3.6108,-3.4785,-3.4497,-3.4739,-3.5085,-3.5661,-3.6224,-3.6392,-3.6856,-3.7372,-3.7558,-3.7577,-3.7577,-3.7577,-3.7041,-3.6114,-3.4579,-3.3526,-3.2916,-3.2916,-3.2916,-3.2916,-3.2916,-3.2916,-3.2916,-3.2916,-3.2916,-3.2916,-3.2916,-3.2916,-3.2916,-3.2916,-3.2916,-3.2916,-3.2916,-3.2916,-3.2916,-3.2916,-3.2916,-3.2916,-3.2916,-3.2916,-3.2916,-3.2916,-3.2916,-3.2916,-3.2916,-3.2916,-3.2916,-3.2916,-3.2916,-3.3099,-3.3419,-3.3486,-3.3688,-2.9988,-3.0069,-3.0069,-3.0069,-2.9308,-2.8757,-2.947,0.0,-2.9,-2.9756,-2.9918,-2.9918,-2.9918,-2.9918,-2.9918,-2.9918,-3.0101,0.0,-3.0862,0.0,0.0,0.0,-3.525,0.0,0.0,0.0,-3.7938,-3.8375,-3.8391,-3.8391,-3.8391,-3.8391,-3.8448,-3.86,-3.8655,-3.8655,-3.8655,-3.8655,-3.856,-3.8391,-3.8391,-3.8391,-3.8391,-3.8391,-3.8391,-3.8391,-3.8391,-3.8391,-3.8391,-3.8391,-3.8391,-3.8391,-3.8391,-3.8132,-3.763,-3.6659,-3.6027,-3.5477,-3.4457,-3.4349,-3.4739,-3.5021,-3.5627,-3.635,-3.6655,-3.7108,-3.7521,-3.7594,-3.7577,-3.7577,-3.7577,-3.6631,-3.5418,-3.4365,-3.3491,-3.2916,-3.2916,-3.2916,-3.2916,-3.2916,-3.2916,-3.2916,-3.2916,-3.2916,-3.2916,-3.2916,-3.2916,-3.2916,-3.2916,-3.2916,-3.2916,-3.2916,-3.2916,-3.2916,-3.2916,-3.2916,-3.2916,-3.2916,-3.2916,-3.2916,-3.2916,-3.2916,-3.2916,-3.2916,-3.2916,-3.2916,-3.2916,-3.2916,-3.2961,-3.3099,-3.3202,-3.3332,-2.8466,-2.8466,-2.8466,-2.8466,-2.7931,-2.7591,0.0,0.0,-2.8676,-2.9405,-2.9756,-2.9918,-2.9918,-2.9918,-2.9918,-2.9918,-2.9918,-3.0036,-3.0538,-3.1235,0.0,0.0,0.0,-3.5428,0.0,-3.7388,-3.7841,-3.8359,-3.8391,-3.8391,-3.8391,-3.8391,-3.8391,-3.8391,-3.8391,-3.8391,-3.8391,-3.8391,-3.8391,-3.8391,-3.8391,-3.8391,-3.8391,-3.8391,-3.8391,-3.8391,-3.8391,-3.8391,-3.8391,-3.8391,-3.8391,-3.8375,-3.8165,-3.7776,-3.7209,-3.6303,-3.5639,-3.5072,-3.436,-3.43,-3.4594,-3.4833,-3.5402,-3.6062,-3.6574,-3.7147,-3.7577,-3.7577,-3.7416,-3.7184,-3.6934,-3.5882,-3.4686,-3.3937,-3.3294,-3.2916,-3.2916,-3.2916,-3.2916,-3.2916,-3.2916,-3.2916,-3.2916,-3.2916,-3.2916,-3.2916,-3.2916,-3.2916,-3.2916,-3.2916,-3.2916,-3.2916,-3.2916,-3.2916,-3.2916,-3.2916,-3.2916,-3.2916,-3.2916,-3.2916,-3.2916,-3.2916,-3.2916,-3.2916,-3.2916,-3.2916,-3.2916,-3.2916,-3.2916,-3.2948,-3.3073,-3.3178,-2.7721,-2.7721,-2.7721,-2.7721,-2.7203,-2.6879,0.0,-2.7721,-2.7931,-2.8644,-2.9372,-2.9918,-2.9918,-2.9918,-2.9918,-2.9918,-2.9918,0.0,-2.9918,-3.049,0.0,0.0,0.0,-3.4683,-3.6173,-3.7582,-3.8391,-3.8391,-3.8391,0.0,-3.8391,-3.8391,-3.8391,-3.8391,-3.8391,-3.8391,-3.8391,-3.8391,-3.8391,-3.8391,-3.8391,-3.8391,-3.8391,-3.8391,-3.8391,-3.8391,-3.8391,-3.8391,-3.8391,-3.8391,-3.8391,-3.8327,-3.7614,-3.7323,-3.7145,-3.572,-3.5185,-3.5072,-3.436,-3.4101,-3.4151,-3.4546,-3.4833,-3.5157,-3.5864,-3.6799,-3.7577,-3.7577,-3.7023,-3.6238,-3.5435,-3.4686,-3.3919,-3.308,-3.2916,-3.2916,-3.2916,-3.2916,-3.2916,-3.2916,-3.2916,-3.2916,-3.2916,-3.2916,-3.2916,-3.2916,-3.2916,-3.2916,-3.2916,-3.2916,-3.2916,-3.2916,-3.2916,-3.2916,-3.2916,-3.2916,-3.2916,-3.2916,-3.2916,-3.2916,-3.2916,-3.2916,-3.2916,-3.2916,-3.2916,-3.2916,-3.2916,-3.2916,-3.2948,-3.2979,-3.3055,-3.3339,-2.628,-2.628,-2.628,-2.628,-2.6118,-2.615,-2.6847,-2.7025,-2.7203,-2.7915,-2.8628,-2.913,-2.913,-2.9578,-2.9918,-2.9918,-2.9918,-2.9918,0.0,0.0,0.0,-3.1915,-3.368,-3.5218,0.0,0.0,-3.7873,-3.8359,-3.8391,-3.8391,-3.8391,-3.8391,-3.8391,-3.8391,-3.8391,-3.8391,-3.8391,-3.8391,-3.8391,-3.8391,-3.8391,-3.8391,-3.8391,-3.8391,-3.8391,-3.8391,-3.8391,-3.8391,-3.8391,-3.8391,-3.8391,-3.8327,-3.7598,-3.7031,-3.6513,-3.5542,-3.4862,-3.4408,-3.4182,-3.43,-3.4529,-3.4833,-3.5128,-3.5414,-3.5847,-3.6333,-3.6838,-3.7126,-3.673,-3.6006,-3.519,-3.4549,-3.3901,-3.308,-3.2916,-3.2916,-3.2916,-3.2916,-3.2916,-3.2916,-3.2916,-3.2916,-3.2916,-3.2916,-3.2916,-3.2916,-3.2916,-3.2916,-3.2916,-3.2916,-3.2916,-3.2916,-3.2916,-3.2916,-3.2916,-3.2916,-3.2916,-3.2916,-3.2916,-3.2916,-3.2916,-3.2916,-3.2916,-3.2916,-3.2916,-3.2916,-3.2916,-3.2916,-3.3037,-3.3332,-3.3286,-3.353,0.0,-2.5405,-2.5616,-2.5616,-2.5616,0.0,0.0,-2.649,-2.6814,-2.7235,-2.794,-2.8524,-2.8741,-2.9205,-2.9637,-2.987,-2.9918,0.0,0.0,0.0,0.0,-3.1882,0.0,0.0,0.0,-3.6756,-3.7501,-3.7954,-3.8246,-3.8391,-3.8391,-3.8391,-3.8278,-3.8003,-3.8262,-3.8391,-3.8391,-3.8391,-3.8391,-3.8391,-3.8391,-3.8391,-3.8391,-3.8391,-3.8391,-3.8391,-3.8391,-3.8391,0.0,-3.8391,-3.8246,-3.7922,-3.7209,-3.6497,-3.5801,-3.504,-3.4489,-3.4101,-3.4101,-3.425,-3.448,-3.4642,-3.4894,-3.522,-3.5481,-3.5864,-3.6281,-3.6267,-3.5875,-3.5345,-3.457,-3.4002,-3.3508,-3.3009,-3.2916,-3.2916,-3.2916,-3.2916,-3.2916,-3.2916,-3.2916,-3.2916,-3.2916,-3.2916,-3.2916,-3.2916,-3.2916,-3.2916,-3.2916,-3.2916,-3.2916,-3.2916,-3.2916,-3.2916,-3.2916,-3.2916,-3.2916,-3.2916,-3.2916,-3.2916,-3.2916,-3.2916,-3.2916,-3.2916,-3.2916,-3.2916,-3.2916,-3.2916,-3.3086,-3.3332,-3.3334,-3.3577,0.0,0.0,0.0,0.0,0.0,0.0,-2.5616,-2.6134,0.0,-2.662,-2.7266,-2.8005,-2.8556,-2.8793,-2.9127,-2.9724,-2.987,0.0,0.0,-2.9999,0.0,0.0,-3.3841,0.0,-3.5169,-3.6384,-3.7193,-3.7242,-3.7873,-3.8246,-3.8246,-3.8246,-3.7938,-3.7258,-3.789,-3.8246,-3.8246,-3.8246,-3.8246,-3.8246,-3.8246,-3.8246,-3.8246,-3.8246,-3.8278,-3.8327,-3.8262,-3.8278,-3.8327,-3.8262,-3.7857,-3.7177,-3.6497,-3.5801,-3.5088,-3.436,-3.4101,-3.4101,-3.4101,-3.4101,-3.4101,-3.4101,-3.4349,-3.4691,-3.4835,-3.5453,-3.5942,-3.5211,-3.4831,-3.446,-3.3723,-3.3224,-3.2916,-3.2916,-3.2916,-3.2916,-3.2916,-3.2916,-3.2916,-3.2916,-3.2916,-3.2916,-3.2916,-3.2916,-3.2916,-3.2916,-3.2916,-3.2916,-3.2916,-3.2916,-3.2916,-3.2916,-3.2916,-3.2916,-3.2916,-3.2916,-3.2916,-3.2916,-3.2916,-3.2916,-3.2916,-3.2916,-3.2916,-3.2916,-3.2916,-3.2916,-3.2916,-3.2948,-3.3042,-3.3117,-3.3244,-3.3462,-2.3178,0.0,-2.5121,-2.5677,-2.5824,-2.5807,0.0,-2.581,-2.5902,0.0,0.0,0.0,-2.7218,-2.82,-2.8997,-2.9127,0.0,0.0,-2.9918,0.0,0.0,-3.1963,-3.3404,-3.457,-3.5137,-3.5477,-3.593,-3.6497,-3.6707,-3.6805,-3.6805,-3.6805,-3.6724,-3.6546,-3.6707,-3.6805,-3.6805,-3.6805,-3.6805,-3.6805,-3.6805,-3.6805,-3.6805,-3.6805,-3.708,-3.7549,-3.7031,-3.7096,-3.7533,-3.7015,-3.6691,-3.6465,-3.5736,-3.5331,-3.5088,-3.436,-3.4101,-3.4101,-3.4101,-3.4101,-3.4101,-3.4101,-3.425,-3.4497,-3.488,-3.5509,-3.5942,-3.527,-3.4948,-3.4677,-3.3917,-3.3308,-3.2916,-3.2916,-3.2916,-3.2916,-3.2916,-3.2916,-3.2916,-3.2916,-3.2916,-3.2916,-3.2916,-3.2916,-3.2916,-3.2916,-3.2916,-3.2916,-3.2916,-3.2916,-3.2916,-3.2916,-3.2916,-3.2916,-3.2916,-3.2916,-3.2916,-3.2916,-3.2916,-3.2916,-3.2916,-3.2916,-3.2916,-3.2916,-3.2916,-3.2916,-3.2916,-3.2948,-3.3117,-3.335,-3.3304,-3.3512,-2.2745,-2.3802,-2.4898,-2.5291,-2.5635,-2.5881,0.0,0.0,0.0,0.0,0.0,0.0,0.0,0.0,0.0,0.0,-2.9267,0.0,0.0,0.0,-3.2012,-3.2012,-3.3242,-3.4262,0.0,-3.4975,-3.5347,-3.5768,-3.6108,-3.6303,-3.6303,-3.6303,-3.6141,-3.5801,-3.5785,-3.5963,-3.6303,-3.6303,-3.6303,-3.6303,-3.6303,-3.6303,-3.6303,-3.6303,-3.6513,-3.6837,-3.6465,-3.6513,-3.6821,-3.6448,-3.6092,-3.5752,-3.5347,-3.4975,-3.4635,-3.4246,-3.4101,-3.4101,-3.4101,-3.4101,-3.4101,-3.4151,-3.4382,-3.4642,-3.4833,-3.5228,-3.5452,-3.4713,-3.4631,-3.4517,-3.3406,-3.3009,-3.2916,-3.2916,-3.2916,-3.2916,-3.2916,-3.2916,-3.2916,-3.2916,-3.2916,-3.2916,-3.2916,-3.2916,-3.2916,-3.2916,-3.2916,-3.2916,-3.2916,-3.2916,-3.2916,-3.2916,-3.2916,-3.2916,-3.2916,-3.2916,-3.2916,-3.2916,-3.2916,-3.2916,-3.2916,-3.2916,-3.2916,-3.2916,-3.2916,-3.2916,-3.2916,-3.2948,-3.3024,-3.322,-3.3165,-3.3386,-2.2559,-2.3605,-2.4556,-2.4786,-2.531,-2.5786,0.0,0.0,0.0,0.0,0.0,0.0,0.0,0.0,0.0,0.0,0.0,0.0,-2.9805,-3.1008,-3.1882,-3.1996,-3.3161,0.0,-3.4084,-3.4651,-3.5007,-3.5007,-3.5606,-3.5963,-3.5963,-3.5963,-3.5671,-3.504,-3.5007,-3.5315,-3.5963,-3.5963,-3.5963,-3.5963,-3.5963,-3.5963,-3.5963,-3.5963,-3.6027,-3.6125,-3.6011,-3.6027,-3.6125,-3.6011,-3.559,-3.5007,-3.5007,-3.4635,-3.4101,-3.4101,-3.4101,-3.4101,-3.4101,-3.4101,-3.4101,-3.425,-3.4593,-3.4878,-3.4686,-3.4785,-3.4734,-3.39,-3.4012,-3.4107,-3.2652,-3.2606,-3.2916,-3.2916,-3.2916,-3.2916,-3.2916,-3.2916,-3.2916,-3.2916,-3.2916,-3.2916,-3.2916,-3.2916,-3.2916,-3.2916,-3.2916,-3.2916,-3.2916,-3.2916,-3.2916,-3.2916,-3.2916,-3.2916,-3.2916,-3.2916,-3.2916,-3.2916,-3.2916,-3.2916,-3.2916,-3.2916,-3.2916,-3.2916,-3.2916,-3.2916,-3.2916,-3.2916,-3.2916,-3.2979,-3.2997,-3.3135,-2.193,-2.2576,-2.3504,-2.4745,-2.5159,-2.5355,-2.5878,0.0,0.0,0.0,0.0,0.0,0.0,0.0,-2.7104,0.0,0.0,-2.9101,0.0,0.0,-3.1316,-3.1931,0.0,-3.3469,-3.4036,-3.4198,-3.4262,-3.4262,-3.4376,-3.4441,-3.4441,-3.4441,-3.4392,-3.4262,-3.4262,-3.4327,-3.4441,-3.4441,-3.4441,-3.4441,-3.4441,-3.4441,-3.4441,-3.4441,-3.4781,-3.5315,-3.47,-3.4781,-3.5299,-3.47,-3.4376,-3.4262,-3.4262,-3.4198,-3.4101,-3.4101,-3.4101,-3.4101,-3.4101,-3.4101,-3.4101,-3.425,-3.4448,-3.4559,-3.4397,-3.4486,-3.4355,-3.3321,-3.3343,-3.3459,-3.2564,-3.2606,-3.2916,-3.2916,-3.2916,-3.2916,-3.2916,-3.2916,-3.2916,-3.2916,-3.2916,-3.2916,-3.2916,-3.2916,-3.2916,-3.2916,-3.2916,-3.2916,-3.2916,-3.2916,-3.2916,-3.2916,-3.2916,-3.2916,-3.2916,-3.2916,-3.2916,-3.2916,-3.2916,-3.2916,-3.2916,-3.2916,-3.2916,-3.2916,-3.2916,-3.2916,-3.2916,-3.2916,-3.2916,-3.2916,-3.2979,-3.3011,-2.1811,-2.2046,-2.2559,-2.3636,-2.4514,-2.5258,-2.595,0.0,0.0,0.0,0.0,0.0,0.0,0.0,-2.6688,-2.7398,0.0,-2.9176,-2.9821,-3.0474,-3.1186,0.0,0.0,-3.3356,-3.4036,-3.4101,-3.4101,-3.4101,-3.4101,-3.4101,-3.4101,-3.4101,-3.4101,-3.4101,-3.4101,-3.4101,-3.4101,-3.4101,-3.4101,-3.4101,-3.4101,-3.4101,-3.4101,-3.4101,-3.4279,-3.4586,-3.4246,-3.4279,-3.457,-3.423,-3.4101,-3.4101,-3.4101,-3.4101,-3.4101,-3.4101,-3.4101,-3.4101,-3.4101,-3.4151,-3.425,-3.4349,-3.4411,-3.4343,-3.4101,-3.3698,-3.3177,-3.2401,-3.2676,-3.2995,-3.2176,-3.2127,-3.2266,-3.2266,-3.2266,-3.23,-3.2521,-3.2573,-3.2639,-3.2852,-3.2916,-3.2916,-3.2916,-3.2916,-3.2916,-3.2916,-3.2916,-3.2916,-3.2916,-3.2916,-3.2916,-3.2916,-3.2916,-3.2916,-3.2916,-3.2491,-3.242,-3.288,-3.2916,-3.2719,-3.2259,-3.2242,-3.2045,-3.1599,-3.2028,-3.2242,-3.2242,-3.2702,-3.2916,-3.2916,-3.2916,-3.2993,-2.184,-2.1811,-2.1993,-2.2708,0.0,-2.5044,-2.5789,0.0,0.0,0.0,0.0,0.0,0.0,-2.6043,0.0,-2.7671,-2.8388,-2.9014,-2.9789,-3.0328,-3.0943,-3.1672,-3.2238,-3.2854,-3.355,-3.3615,-3.3615,-3.3615,-3.3615,-3.3615,-3.3615,-3.3615,-3.3615,-3.3615,-3.3777,-3.3874,-3.3874,-3.402,-3.4101,-3.4101,-3.4101,-3.4101,-3.4101,-3.4101,-3.4101,-3.4101,-3.4101,-3.4101,-3.4101,-3.4101,-3.4101,-3.4101,-3.4101,-3.4101,-3.4101,-3.4101,-3.4101,-3.4101,-3.4151,-3.4201,-3.4317,-3.43,-3.422,-3.4024,-3.3466,-3.2744,-3.2001,-3.149,-3.1782,-3.2188,-3.1682,-3.164,-3.1677,-3.1677,-3.175,-3.186,-3.2162,-3.2283,-3.2386,-3.277,-3.2852,-3.2834,-3.2884,-3.2916,-3.2916,-3.2916,-3.2916,-3.2916,-3.2916,-3.2916,-3.2916,-3.2916,-3.2916,-3.2813,-3.2616,-3.2045,-3.1867,-3.2295,-3.2331,-3.2045,-3.1439,-3.1421,-3.1135,-3.0511,-3.1118,-3.151,-3.1689,-3.2313,-3.2737,-3.2916,-3.2916,-3.2993,-2.1911,-2.1882,-2.2036,-2.2739,0.0,0.0,-2.5011,-2.5723,0.0,-2.622,0.0,0.0,0.0,-2.6079,-2.6393,-2.7671,-2.7964,-2.8428,-2.9724,0.0,-3.0198,-3.0927,-3.1011,-3.1364,-3.2093,-3.2158,-3.2158,-3.2158,-3.2158,-3.2158,-3.2158,-3.2158,-3.2158,-3.2158,-3.2805,-3.3161,-3.3161,-3.3777,-3.4101,-3.4101,-3.4101,-3.4101,-3.4101,-3.4101,-3.4101,-3.4101,-3.4101,-3.4101,-3.4101,-3.4101,-3.4101,-3.4101,-3.4101,-3.4101,-3.4101,-3.4101,-3.4101,-3.4101,-3.425,-3.43,-3.4235,-3.3806,-3.3637,-3.3387,-3.2139,-3.1702,-3.147,-3.0724,-3.0525,-3.0659,-3.1061,-3.1414,-3.1677,-3.1677,-3.186,-3.2003,-3.2003,-3.2162,-3.2352,-3.2573,-3.2639,-3.2672,-3.2884,-3.2916,-3.2916,-3.2916,-3.2916,-3.2916,-3.2916,-3.2916,-3.2916,-3.2916,-3.2916,-3.2612,-3.1849,-3.1724,-3.1403,-3.0725,-3.0672,-3.0654,-3.06,-3.06,-3.0564,-3.0511,-3.0564,-3.0957,-3.1689,-3.176,-3.217,-3.2916,-3.2916,-3.2916,-2.1969,-2.194,-2.1949,-2.2219,0.0,0.0,0.0,0.0,0.0,-2.612,-2.6168,0.0,0.0,0.0,-2.6302,-2.7718,-2.7843,-2.8264,-2.9708,-2.9918,-3.0134,-3.08,-3.0881,-3.1202,-3.1931,-3.2012,-3.2012,-3.2012,-3.2012,-3.2012,-3.2012,-3.2012,-3.2012,-3.2012,-3.2271,-3.2417,-3.2417,-3.2676,-3.2789,-3.2805,-3.368,-3.4101,-3.4101,-3.4101,-3.4101,-3.4101,-3.4101,-3.4101,-3.4101,-3.4101,-3.4101,-3.4101,-3.4101,-3.4101,-3.4101,-3.4101,-3.4101,-3.4036,-3.3664,-3.36,-3.3502,-3.2896,-3.2466,-3.2081,-3.1583,-3.109,-3.0678,-3.0356,-3.029,-3.0316,-3.051,-3.0658,-3.0804,-3.1021,-3.114,-3.1317,-3.1785,-3.2002,-3.2197,-3.2521,-3.2705,-3.2802,-3.2884,-3.2916,-3.2916,-3.2916,-3.2916,-3.2916,-3.2916,-3.2916,-3.2916,-3.2916,-3.2438,-3.1813,-3.1028,-3.0529,-2.994,-2.9137,-2.9976,-3.0297,-2.9833,-2.9833,-2.9583,-2.9084,-2.9565,-2.9976,-3.0279,-3.0725,-3.1118,-3.1403,-3.1536,-3.1595,-2.2044,-2.1969,-2.1911,0.0,0.0,0.0,0.0,0.0,0.0,-2.6054,-2.622,0.0,0.0,0.0,0.0,0.0,-2.764,-2.8126,-2.9399,-2.9772,-3.0053,-3.0538,-3.0587,-3.0781,-3.1283,-3.1332,-3.1332,-3.1332,-3.1332,-3.1332,-3.1332,-3.1332,-3.1332,-3.1332,-3.1542,-3.1672,-3.1672,-3.1898,-3.2012,-3.2012,-3.2983,-3.3566,-3.3777,-3.3777,-3.389,-3.4101,-3.4101,-3.4101,-3.4101,-3.4101,-3.4101,-3.4084,-3.3874,-3.3777,-3.3761,-3.3518,-3.3437,-3.3372,-3.2951,-3.2868,-3.2769,-3.2131,-3.1651,-3.1254,-3.1008,-3.0582,-3.0189,-3.0146,-3.0146,-3.0146,-3.0119,-3.0231,-3.0401,-3.0651,-3.0733,-3.0935,-3.1483,-3.1637,-3.1823,-3.23,-3.2521,-3.2687,-3.2884,-3.2916,-3.2916,-3.2916,-3.2916,-3.2916,-3.2916,-3.2916,-3.2916,-3.2916,-3.217,-3.1367,-3.0582,-2.9833,-2.9066,-2.8235,-2.9208,-2.9565,-2.9048,-2.903,-2.8762,-2.82,-2.8744,-2.9155,-2.9405,-2.9922,-3.0279,-3.0511,-3.0639,-3.0707,-2.2044,-2.1998,-2.1969,0.0,0.0,0.0,0.0,0.0,0.0,-2.6054,0.0,-2.6096,-2.5775,-2.5791,0.0,-2.661,-2.7267,-2.7948,-2.8692,-2.9448,-2.9902,-2.9918,-2.9918,-2.9918,-2.9918,-2.9918,-2.9918,-2.9918,-2.9918,-2.9918,-2.9918,-2.9918,-2.9918,-2.9918,-3.0554,-3.0865,-3.0865,-3.1623,-3.1996,-3.1996,-3.1996,-3.2368,-3.308,-3.308,-3.3437,-3.4084,-3.4084,-3.4084,-3.4084,-3.4084,-3.4084,-3.4003,-3.334,-3.308,-3.2983,-3.2271,-3.2012,-3.2012,-3.2136,-3.2183,-3.2069,-3.1471,-3.1286,-3.1139,-3.0418,-3.0189,-3.0146,-3.0033,-3.0017,-2.9973,-2.9918,-3.0274,-3.0692,-3.0692,-3.0855,-3.1015,-3.119,-3.1112,-3.1179,-3.186,-3.2003,-3.2179,-3.2802,-3.2884,-3.2916,-3.2916,-3.2916,-3.2916,-3.2916,-3.2916,-3.2916,-3.2916,-3.217,-3.1367,-3.0582,-2.9833,-2.9048,-2.8235,-2.8182,-2.8182,-2.8182,-2.8182,-2.8182,-2.8182,-2.8182,-2.8602,-2.9387,-2.9387,-2.9762,-3.0493,-3.0493,-3.0475,-2.2237,-2.2118,0.0,0.0,0.0,0.0,0.0,0.0,0.0,0.0,-2.6096,-2.597,-2.5937,-2.577,0.0,-2.6633,-2.6902,-2.7413,-2.8628,-2.8968,-2.9335,-2.9853,-2.9918,-2.9918,-2.9918,-2.9918,-2.9918,-2.9918,-2.9918,-2.9918,-2.9918,-2.9918,-2.9918,-2.9918,-3.0069,-3.0182,-3.0182,-3.0393,-3.0506,-3.0506,-3.0506,-3.1154,-3.2336,-3.2336,-3.2433,-3.2627,-3.2627,-3.2627,-3.2627,-3.2627,-3.2627,-3.2611,-3.24,-3.2336,-3.2303,-3.2093,-3.2012,-3.1931,-3.1459,-3.1297,-3.1167,-3.0559,-3.0315,-3.0266,-3.0054,-2.9989,-2.9989,-2.9946,-2.9946,-2.9902,-2.9918,-3.0248,-3.0568,-3.0568,-3.0692,-3.0855,-3.1151,-3.1466,-3.1677,-3.1585,-3.2144,-3.2588,-3.2488,-3.2705,-3.2916,-3.2916,-3.2916,-3.2916,-3.2916,-3.2916,-3.2916,-3.2916,-3.1671,-3.0761,-3.0529,-2.9315,-2.8431,-2.8217,-2.8182,-2.8182,-2.8182,-2.8182,-2.8182,-2.8182,-2.8182,-2.8307,-2.8566,-2.8566,-2.8691,-2.8905,-2.9008,-2.9089,-2.2192,-2.2073,0.0,0.0,0.0,0.0,0.0,0.0,0.0,0.0,0.0,-2.6007,-2.5954,-2.5824,0.0,-2.6259,-2.6545,-2.6992,-2.7834,-2.819,-2.8628,-2.9399,-2.948,-2.9594,-2.9886,-2.9918,-2.9918,-2.9918,-2.9918,-2.9918,-2.9918,-2.9918,-2.9918,-2.9918,-2.9918,-2.9918,-2.9918,-2.9918,-2.9918,-2.9918,-2.9918,-3.0312,-3.117,-3.1445,-3.1737,-3.2012,-3.2012,-3.2012,-3.2012,-3.2012,-3.2012,-3.1979,-3.1688,-3.1575,-3.1542,-3.1251,-3.1154,-3.1089,-3.0652,-3.0506,-3.0441,-3.0004,-2.9918,-2.9918,-2.9918,-2.9918,-2.9918,-2.9918,-2.9918,-2.9918,-2.9946,-3.0103,-3.0342,-3.0485,-3.0609,-3.0773,-3.1032,-3.1218,-3.1338,-3.13,-3.177,-3.2144,-3.2091,-3.2266,-3.2403,-3.2403,-3.2555,-3.2705,-3.2884,-3.2916,-3.2791,-3.2456,-3.126,-3.0386,-3.0101,-2.8941,-2.8182,-2.8182,-2.8182,-2.8182,-2.8182,-2.8182,-2.8182,-2.8182,-2.8182,-2.8182,-2.8182,-2.8182,-2.8182,-2.8209,-2.8327,-2.838,-2.2027,0.0,0.0,0.0,0.0,0.0,0.0,0.0,-2.5143,-2.5938,0.0,-2.6132,-2.5934,-2.5897,-2.5824,-2.5616,-2.6166,-2.662,-2.6685,-2.7219,-2.7883,-2.8595,-2.8692,-2.8951,-2.9556,-2.962,-2.9653,-2.9673,-2.9673,-2.9705,-2.9814,-2.9814,-2.9858,-2.9918,-2.9918,-2.9918,-2.9918,-2.9918,-2.9918,-2.9918,-2.9918,-2.9918,-2.9935,-3.0538,-3.1186,-3.1817,-3.1817,-3.1817,-3.1817,-3.1817,-3.1817,-3.1753,-3.1089,-3.083,-3.0749,-3.0101,-2.9918,-2.9918,-2.9918,-2.9918,-2.9918,-2.9918,-2.9918,-2.9918,-2.9918,-2.9918,-2.9918,-2.9918,-2.9918,-2.9902,-2.9989,-2.9973,-3.006,-3.0401,-3.0568,-3.0708,-3.0831,-3.0651,-3.0551,-3.0965,-3.1123,-3.1278,-3.1603,-3.1677,-3.1677,-3.1677,-3.202,-3.2386,-3.2802,-3.2781,-3.246,-3.176,-3.0921,-3.0136,-2.9458,-2.8673,-2.8182,-2.8182,-2.8182,-2.8182,-2.8182,-2.8182,-2.8182,-2.8182,-2.8182,-2.8182,-2.8182,-2.8182,-2.8182,-2.8182,-2.8182,-2.8182,0.0,-2.2061,0.0,0.0,0.0,0.0,0.0,-2.3156,-2.3752,-2.5077,-2.5683,-2.597,-2.5897,-2.5749,-2.5654,-2.5616,-2.5745,-2.6053,-2.662,-2.6814,-2.717,-2.7867,-2.7948,-2.7872,-2.7721,-2.7678,-2.7787,-2.7936,-2.7937,-2.8355,-2.9241,-2.9273,-2.947,-2.9874,-2.9918,-2.9918,-2.9918,-2.9918,-2.9918,-2.9918,-2.9918,-2.9918,-2.9918,-3.0064,-3.0182,-3.0372,-3.0372,-3.0372,-3.0372,-3.0372,-3.0372,-3.0356,-3.0166,-3.0101,-3.0085,-2.9967,-2.9918,-2.9918,-2.9918,-2.9918,-2.9918,-2.9918,-2.9918,-2.9918,-2.9918,-2.9918,-2.9918,-2.9918,-2.9918,-2.9902,-2.9902,-2.9946,-3.006,-3.0231,-3.0359,-3.0443,-3.0501,-3.0757,-3.0902,-3.0675,-3.1162,-3.149,-3.1261,-3.149,-3.1677,-3.1677,-3.175,-3.1967,-3.2386,-3.1874,-3.1547,-3.1676,-3.0457,-2.9583,-2.9423,-2.8673,-2.8182,-2.8182,-2.8182,-2.8182,-2.8182,-2.8182,-2.8182,-2.8182,-2.8182,-2.8182,-2.8182,-2.8182,-2.8182,-2.8182,-2.8182,-2.8182,0.0,0.0,0.0,0.0,0.0,0.0,0.0,-2.2611,-2.3059,-2.3836,-2.4775,-2.5507,-2.5832,-2.577,-2.5637,-2.5616,-2.5394,-2.539,-2.5758,-2.5664,-2.5797,-2.6461,-2.654,-2.6583,-2.6741,-2.6773,-2.6798,-2.6795,-2.6826,-2.7056,-2.7687,-2.7703,-2.7854,-2.8227,-2.8462,-2.8565,-2.8565,-2.8737,-2.8838,-2.8838,-2.8838,-2.9016,-2.9416,-2.9756,-2.9918,-2.9918,-2.9918,-2.9918,-2.9918,-2.9918,-2.9918,-2.9918,-2.9918,-2.9918,-2.9918,-2.9918,-2.9918,-2.9918,-2.9918,-2.9918,-2.9918,-2.9918,-2.9918,-2.9918,-2.9918,-2.9918,-2.9918,-2.9918,-2.9918,-2.9902,-3.0033,-3.0017,-3.0017,-3.0146,-3.0274,-3.0417,-3.0443,-3.0634,-3.074,-3.0551,-3.0861,-3.1044,-3.0861,-3.0965,-3.1162,-3.1355,-3.1338,-3.1445,-3.1672,-3.1354,-3.0973,-3.0642,-2.9886,-2.9244,-2.8869,-2.8431,-2.8182,-2.8182,-2.8182,-2.8182,-2.8182,-2.8182,-2.8182,-2.8182,-2.8182,-2.8182,-2.8182,-2.8182,-2.8182,-2.8182,-2.8182,-2.8182,0.0,0.0,0.0,0.0,0.0,0.0,0.0,-2.2077,-2.249,-2.2653,-2.3753,-2.4851,-2.5444,-2.5447,-2.5384,-2.5394,-2.5052,-2.4799,-2.4799,-2.4492,-2.4502,-2.5083,-2.5145,-2.5333,-2.5887,-2.5905,-2.5891,-2.5773,-2.5773,-2.5864,-2.6031,-2.6047,-2.6137,-2.6377,-2.6729,-2.6961,-2.6961,-2.7316,-2.7483,-2.7483,-2.7582,-2.793,-2.8628,-2.9227,-2.9675,-2.9918,-2.9918,-2.9918,-2.9918,-2.9918,-2.9918,-2.9918,-2.9918,-2.9918,-2.9918,-2.9918,-2.9918,-2.9918,-2.9918,-2.9918,-2.9918,-2.9918,-2.9918,-2.9918,-2.9918,-2.9821,-2.9724,-2.9724,-2.9643,-2.9572,-2.9744,-2.9701,-2.9642,-2.977,-2.9913,-3.0062,-3.0335,-3.0426,-3.0443,-3.0443,-3.0443,-3.0443,-3.0443,-3.0401,-3.0485,-3.0821,-3.0744,-3.0738,-3.089,-3.0712,-3.0279,-2.9472,-2.928,-2.8923,-2.8253,-2.8182,-2.8182,-2.8182,-2.8182,-2.8182,-2.8182,-2.8182,-2.8182,-2.8182,-2.8182,-2.8182,-2.8182,-2.8182,-2.8182,-2.8182,-2.8182,-2.8182,0.0,0.0,0.0,0.0,0.0,0.0,0.0,0.0,-2.1178,0.0,-2.3126,-2.3872,-2.4207,-2.4185,-2.42,-2.4455,-2.4426,-2.4385,-2.4385,-2.4343,-2.4333,-2.4425,-2.4425,-2.4288,-2.398,-2.398,-2.4015,-2.4043,-2.404,-2.4414,-2.5352,-2.5429,-2.5648,-2.6227,-2.6272,-2.6361,-2.651,-2.6554,-2.6554,-2.6554,-2.7004,-2.7406,-2.785,-2.7948,-2.8676,-2.9918,-2.9918,-2.9918,-2.9918,-2.9918,-2.9918,-2.9918,-2.9918,-2.9918,-2.9918,-2.9918,-2.9918,-2.9918,-2.9918,-2.9918,-2.9918,-2.9918,-2.9918,-2.9918,-2.9918,-2.9437,-2.8935,-2.8935,-2.8482,-2.7996,-2.8037,-2.8037,-2.8037,-2.816,-2.8241,-2.8584,-2.9783,-3.0146,-3.0231,-3.0231,-3.0231,-3.0231,-3.0231,-3.0231,-3.0231,-3.0316,-2.9774,-2.9619,-3.0377,-2.9317,-2.8719,-2.9318,-2.8798,-2.8307,-2.82,-2.8182,-2.8182,-2.8182,-2.8182,-2.8182,-2.8182,-2.8182,-2.8182,-2.8182,-2.8182,-2.8182,-2.8182,-2.8182,-2.8182,-2.8182,-2.8182,-2.8182,-2.1928,0.0,0.0,0.0,0.0,0.0,0.0,0.0,-2.0892,-2.1225,-2.1492,-2.208,-2.3263,-2.3248,-2.3203,-2.369,-2.3539,-2.3455,-2.3849,-2.3653,-2.3538,-2.3538,-2.3466,-2.3378,-2.3231,-2.3157,-2.3154,-2.3169,-2.3198,-2.3406,-2.3868,-2.3883,-2.4007,-2.4312,-2.4492,-2.4655,-2.4714,-2.4991,-2.5234,-2.5571,-2.6029,-2.6439,-2.6766,-2.6766,-2.7451,-2.866,-2.866,-2.866,-2.866,-2.866,-2.866,-2.866,-2.866,-2.866,-2.866,-2.866,-2.866,-2.866,-2.866,-2.866,-2.866,-2.866,-2.866,-2.866,-2.866,-2.8433,-2.8174,-2.8174,-2.7948,-2.7705,-2.7786,-2.7826,-2.7826,-2.7867,-2.7907,-2.8046,-2.8598,-2.8869,-2.9124,-2.9501,-2.991,-3.0274,-3.0443,-3.0274,-3.0058,-3.0037,-2.9608,-2.9198,-2.9017,-2.8459,-2.8078,-2.8172,-2.7852,-2.7719,-2.7893,-2.7922,-2.7996,-2.8182,-2.8182,-2.8182,-2.8182,-2.8182,-2.8182,-2.8182,-2.8182,-2.8182,-2.8182,-2.8182,-2.8182,-2.8182,-2.8182,-2.8182,0.0,0.0,0.0,0.0,0.0,0.0,0.0,0.0,-2.0581,0.0,-2.0154,-2.0426,-2.1961,-2.2071,-2.2095,-2.265,-2.2419,-2.2453,-2.3094,-2.2908,-2.2714,-2.2873,-2.2872,-2.2826,-2.2857,-2.2841,-2.2749,-2.2689,-2.2735,-2.2735,-2.2689,-2.2735,-2.2749,-2.2809,-2.3112,-2.326,-2.329,-2.3595,-2.4063,-2.4527,-2.5029,-2.5417,-2.5733,-2.583,-2.6375,-2.7203,-2.7421,-2.7623,-2.7705,-2.7705,-2.7705,-2.7705,-2.7705,-2.7705,-2.7705,-2.7705,-2.7705,-2.7705,-2.7705,-2.7705,-2.7705,-2.7705,-2.7705,-2.7705,-2.7705,-2.7591,-2.7446,-2.7446,-2.7316,-2.717,-2.729,-2.7329,-2.7329,-2.7329,-2.7329,-2.7404,-2.7624,-2.7843,-2.8143,-2.8649,-2.9188,-2.9632,-2.9881,-2.9632,-2.941,-2.933,-2.8979,-2.8506,-2.7889,-2.7691,-2.7487,-2.7233,-2.7213,-2.7307,-2.7552,-2.7565,-2.7672,-2.794,-2.8025,-2.8053,-2.8053,-2.8154,-2.8182,-2.8182,-2.8182,-2.8182,-2.8182,-2.8182,-2.8182,-2.8182,-2.8182,-2.8182,0.0,0.0,0.0,0.0,0.0,0.0,0.0,0.0,-1.9756,-1.997,-1.9654,-1.9465,-1.9801,-2.0325,-2.0801,-2.1053,-2.1087,-2.132,-2.1989,-2.2048,-2.2265,-2.2815,-2.2902,-2.2857,-2.2795,-2.2809,-2.2689,-2.2431,-2.2523,-2.2555,-2.2417,-2.2555,-2.2675,-2.2809,-2.2795,-2.2872,-2.2933,-2.2933,-2.3142,-2.3493,-2.4078,-2.4589,-2.4966,-2.5404,-2.5643,-2.5756,-2.67,-2.7358,-2.7705,-2.7705,-2.7705,-2.7705,-2.7705,-2.7705,-2.7705,-2.7705,-2.7705,-2.7705,-2.7705,-2.7705,-2.7705,-2.7705,-2.7705,-2.7705,-2.7705,-2.7267,-2.6749,-2.6749,-2.6264,-2.5729,-2.5729,-2.5729,-2.5729,-2.5729,-2.5729,-2.6085,-2.7413,-2.7705,-2.7721,-2.7753,-2.7786,-2.7818,-2.7859,-2.7818,-2.7802,-2.781,-2.7259,-2.7,-2.7467,-2.6904,-2.6657,-2.7149,-2.7213,-2.7213,-2.7213,-2.7213,-2.7244,-2.7244,-2.7552,-2.773,-2.773,-2.8025,-2.8182,-2.8182,-2.8182,-2.8182,-2.8182,-2.8182,-2.8182,-2.8182,-2.8182,-2.8182,0.0,0.0,0.0,0.0,0.0,-2.0139,-1.9869,-1.9818,-1.9732,-1.9581,-1.9362,-1.9213,-1.9288,-1.9478,-1.9806,-2.036,-2.0422,-2.064,-2.1264,-2.1351,-2.1438,-2.167,-2.1599,-2.173,-2.2221,-2.2117,-2.22,-2.2615,-2.2615,-2.2555,-2.2509,-2.2675,-2.2735,-2.2675,-2.2749,-2.2795,-2.2841,-2.3201,-2.3566,-2.3994,-2.4219,-2.4385,-2.4533,-2.4369,-2.4492,-2.4782,-2.5144,-2.5693,-2.6361,-2.6361,-2.6361,-2.6361,-2.6361,-2.6361,-2.6361,-2.6361,-2.6361,-2.6361,-2.6361,-2.6361,-2.6361,-2.6361,-2.6361,-2.6361,-2.6361,-2.6183,-2.6005,-2.6005,-2.581,-2.5616,-2.5616,-2.5616,-2.5616,-2.5616,-2.5616,-2.5745,-2.6247,-2.6733,-2.7057,-2.7057,-2.7413,-2.7786,-2.797,-2.7867,-2.768,-2.7635,-2.724,-2.6911,-2.6745,-2.648,-2.64,-2.6555,-2.6555,-2.6657,-2.6858,-2.6891,-2.6989,-2.7181,-2.7504,-2.7701,-2.7701,-2.8025,-2.8182,-2.8182,-2.8182,-2.8182,-2.8182,-2.8182,-2.8182,-2.8182,-2.8182,-2.8182,-2.0597,0.0,0.0,0.0,0.0,-1.996,-1.9683,0.0,-1.9681,-1.9362,-1.9228,-1.9139,-1.9101,-1.9101,-1.9246,-1.9696,-1.9769,-1.9986,-2.0611,-2.0698,-2.077,-2.0973,-2.0905,-2.1079,-2.157,-2.1442,-2.1541,-2.1985,-2.1999,-2.2041,-2.2209,-2.2329,-2.2474,-2.2661,-2.2735,-2.2809,-2.2809,-2.3201,-2.3494,-2.3812,-2.3967,-2.4094,-2.4036,-2.3909,-2.4078,-2.4492,-2.4343,-2.4791,-2.5616,-2.5616,-2.5616,-2.5616,-2.5616,-2.5616,-2.5616,-2.5616,-2.5616,-2.5616,-2.5616,-2.5616,-2.5616,-2.5616,-2.5616,-2.5616,-2.5616,-2.5616,-2.5616,-2.5616,-2.5616,-2.5616,-2.5616,-2.5616,-2.5616,-2.5616,-2.5616,-2.5616,-2.5616,-2.5988,-2.6328,-2.6328,-2.6701,-2.7088,-2.7306,-2.715,-2.7004,-2.6945,-2.6735,-2.6533,-2.622,-2.6189,-2.6206,-2.6203,-2.622,-2.631,-2.6504,-2.6538,-2.664,-2.6842,-2.7258,-2.7522,-2.7522,-2.7968,-2.8182,-2.8182,-2.8182,-2.8182,-2.8182,-2.8182,-2.8182,-2.8182,-2.8182,-2.8182,0.0,0.0,0.0,0.0,0.0,0.0,-1.9611,0.0,-1.9538,-1.9339,-1.9302,-1.9265,-1.9101,-1.9101,-1.9064,-1.9064,-1.9101,-1.9333,-1.9986,-2.0074,-2.0291,-2.0872,-2.0903,-2.0862,-2.0793,-2.0752,-2.0683,-2.0514,-2.0613,-2.0927,-2.1435,-2.1524,-2.1942,-2.2723,-2.2737,-2.2737,-2.2752,-2.2814,-2.2814,-2.2783,-2.326,-2.355,-2.3535,-2.3991,-2.4446,-2.4792,-2.442,-2.4735,-2.5578,-2.5578,-2.5578,-2.5578,-2.5578,-2.5578,-2.5578,-2.5578,-2.5578,-2.5578,-2.5578,-2.5578,-2.5578,-2.5578,-2.5578,-2.5578,-2.5616,-2.5616,-2.5616,-2.5616,-2.5616,-2.5616,-2.5616,-2.5616,-2.5616,-2.5616,-2.5616,-2.5616,-2.5616,-2.5616,-2.5616,-2.5616,-2.5616,-2.5616,-2.5616,-2.5616,-2.5616,-2.5616,-2.5642,-2.5738,-2.5881,-2.5954,-2.6063,-2.6168,-2.622,-2.622,-2.622,-2.622,-2.6203,-2.6203,-2.6842,-2.7213,-2.7213,-2.7853,-2.8182,-2.8182,-2.8182,-2.8182,-2.8182,-2.8182,-2.8182,-2.8182,-2.8182,-2.8182,-1.9818,0.0,0.0,0.0,0.0,0.0,0.0,0.0,-1.9339,-1.8822,-1.8936,-1.9139,-1.9101,-1.886,-1.8669,-1.8669,-1.8898,-1.9159,-1.9348,-1.9132,-1.9088,-1.9508,-1.8995,-1.9028,-2.0048,-1.9806,-1.9907,-2.0668,-2.0726,-2.0769,-2.0912,-2.0983,-2.1182,-2.1497,-2.1441,-2.1441,-2.1497,-2.1469,-2.1639,-2.1999,-2.1818,-2.1901,-2.2229,-2.2025,-2.2387,-2.3219,-2.3111,-2.3687,-2.467,-2.467,-2.467,-2.467,-2.4974,-2.5075,-2.513,-2.547,-2.5394,-2.5075,-2.5075,-2.4895,-2.471,-2.5013,-2.5075,-2.5169,-2.5486,-2.5616,-2.5616,-2.5616,-2.5616,-2.5616,-2.5616,-2.5616,-2.5616,-2.5616,-2.5616,-2.5616,-2.5616,-2.5616,-2.5616,-2.5616,-2.5616,-2.5616,-2.5616,-2.5621,-2.568,-2.568,-2.5754,-2.5881,-2.5954,-2.599,-2.6063,-2.6168,-2.622,-2.622,-2.622,-2.622,-2.6293,-2.6555,-2.6956,-2.7307,-2.7552,-2.7968,-2.8182,-2.8182,-2.8182,-2.8182,-2.8182,-2.8182,-2.8182,-2.8182,-2.8182,-2.8237,0.0,0.0,0.0,0.0,0.0,0.0,-1.864,-1.8846,-1.8988,0.0,-1.8553,-1.886,-1.886,-1.8784,-1.8745,-1.8745,-1.8912,-1.9003,-1.886,-1.8784,-1.8798,-1.8993,-1.845,-1.8418,-1.943,-1.9049,-1.9109,-1.9921,-1.9924,-2.0012,-2.0269,-2.0582,-2.0795,-2.0905,-2.0878,-2.0893,-2.1003,-2.0976,-2.1099,-2.1395,-2.1111,-2.1152,-2.1395,-2.1111,-2.1439,-2.2229,-2.201,-2.2413,-2.3229,-2.3311,-2.3709,-2.4302,-2.4574,-2.4639,-2.4679,-2.495,-2.4871,-2.4639,-2.4639,-2.4492,-2.4385,-2.4759,-2.4799,-2.4719,-2.5169,-2.5201,-2.5084,-2.5262,-2.5432,-2.5616,-2.5616,-2.5616,-2.5616,-2.5616,-2.5616,-2.5616,-2.5616,-2.5616,-2.5616,-2.5616,-2.5616,-2.5616,-2.5616,-2.5621,-2.5659,-2.5659,-2.577,-2.5828,-2.5864,-2.5901,-2.599,-2.6059,-2.6059,-2.6059,-2.6059,-2.6096,-2.6206,-2.64,-2.6791,-2.7085,-2.7258,-2.773,-2.7996,-2.7996,-2.8126,-2.8182,-2.8182,-2.8182,-2.8182,-2.8182,-2.8182,-2.8237,0.0,0.0,0.0,0.0,-1.8655,0.0,-1.8145,-1.8369,-1.8539,0.0,-1.8108,-1.8422,-1.8422,-1.8655,-1.886,-1.886,-1.8798,-1.8697,-1.8514,-1.8745,-1.8912,-1.8865,-1.8528,-1.8436,-1.8865,-1.8489,-1.8383,-1.8784,-1.8822,-1.9065,-1.9584,-2.0169,-2.0525,-2.0606,-2.0606,-2.0662,-2.0785,-2.0785,-2.0785,-2.0785,-2.0785,-2.0785,-2.0785,-2.0785,-2.1072,-2.1505,-2.109,-2.1175,-2.1655,-2.181,-2.2753,-2.4085,-2.4188,-2.4219,-2.4219,-2.4261,-2.4261,-2.4219,-2.4219,-2.4177,-2.4219,-2.4623,-2.4517,-2.4302,-2.4744,-2.4639,-2.4451,-2.4879,-2.5262,-2.5524,-2.5524,-2.5524,-2.5486,-2.5448,-2.5464,-2.5464,-2.5464,-2.5486,-2.5524,-2.5524,-2.5562,-2.5616,-2.5616,-2.5616,-2.5616,-2.5616,-2.568,-2.5738,-2.5738,-2.5844,-2.5897,-2.5897,-2.5897,-2.5881,-2.5917,-2.5954,-2.601,-2.6082,-2.6453,-2.6725,-2.6758,-2.7321,-2.7672,-2.7701,-2.8025,-2.8182,-2.8182,-2.8182,-2.8182,-2.8182,-2.8182,-2.8237,0.0,0.0,0.0,0.0,-1.8224,0.0,-1.7585,-1.7814,-1.7988,0.0,-1.7639,-1.7908,-1.7868,-1.7612,-1.7353,-1.7284,-1.7325,-1.7652,-1.8383,-1.8187,-1.7962,-1.7962,-1.7297,-1.7256,-1.8319,-1.8082,-1.8147,-1.8988,-1.9003,-1.9022,-1.9199,-1.9281,-1.9339,-1.9426,-1.9378,-1.9378,-1.9464,-1.9416,-1.9416,-1.9464,-1.9464,-1.9464,-1.9464,-1.9464,-1.9808,-2.0396,-2.0317,-2.0593,-2.1126,-2.1175,-2.171,-2.251,-2.34,-2.3739,-2.3767,-2.4177,-2.4036,-2.3739,-2.3739,-2.348,-2.3231,-2.3724,-2.3809,-2.3894,-2.4664,-2.4823,-2.4879,-2.5355,-2.5262,-2.5036,-2.5036,-2.5036,-2.4958,-2.463,-2.4549,-2.4549,-2.4549,-2.4815,-2.5036,-2.5036,-2.5355,-2.5616,-2.5616,-2.5659,-2.568,-2.568,-2.5791,-2.5844,-2.5844,-2.5881,-2.5897,-2.5897,-2.5897,-2.5917,-2.599,-2.599,-2.6154,-2.6521,-2.6657,-2.6825,-2.7085,-2.7244,-2.7413,-2.7683,-2.8025,-2.8182,-2.8182,-2.8182,-2.8182,-2.8182,-2.8182,-2.8264,0.0,0.0,0.0,-1.7407,-1.7612,0.0,0.0,-1.7338,-1.7489,-1.6976,-1.7186,-1.7475,-1.738,-1.7338,-1.7325,-1.7146,-1.7201,-1.7338,-1.7612,-1.7707,-1.7801,-1.7935,-1.7214,-1.7089,-1.8135,-1.7679,-1.7679,-1.863,-1.8683,-1.8798,-1.9064,-1.9078,-1.9078,-1.9101,-1.9078,-1.9078,-1.9101,-1.9078,-1.9078,-1.9101,-1.9101,-1.9101,-1.9101,-1.9101,-1.929,-1.9595,-1.9595,-1.9769,-2.0074,-2.0407,-2.0741,-2.116,-2.1968,-2.2287,-2.2374,-2.2927,-2.3003,-2.2833,-2.3157,-2.3112,-2.2978,-2.3436,-2.3436,-2.3392,-2.4048,-2.4256,-2.4297,-2.4517,-2.4599,-2.4639,-2.4823,-2.4902,-2.4823,-2.4639,-2.4791,-2.4871,-2.4655,-2.4934,-2.5262,-2.5262,-2.5262,-2.5355,-2.5578,-2.5637,-2.5659,-2.5659,-2.5712,-2.5749,-2.5749,-2.5749,-2.5749,-2.5749,-2.5749,-2.5787,-2.5848,-2.5901,-2.6046,-2.6314,-2.64,-2.6521,-2.6674,-2.6858,-2.7117,-2.7444,-2.763,-2.7777,-2.795,-2.795,-2.8025,-2.8182,-2.8237,-2.83,0.0,0.0,-1.6607,-1.6491,-1.6723,-1.6909,0.0,0.0,0.0,-1.6552,-1.6778,-1.6976,-1.6879,0.0,0.0,-1.7188,0.0,0.0,0.0,-1.7131,0.0,-1.7814,-1.7297,-1.7173,-1.7949,-1.7406,-1.7434,-1.8383,-1.8344,-1.85,-1.9064,-1.9101,-1.9078,-1.9101,-1.9101,-1.9101,-1.9101,-1.9101,-1.9101,-1.9101,-1.9101,-1.9101,-1.9101,-1.9101,-1.9101,-1.9101,-1.9101,-1.9101,-1.9145,-1.9682,-1.9914,-1.9986,-2.0712,-2.1003,-2.1061,-2.1612,-2.1801,-2.1873,-2.2396,-2.2511,-2.26,-2.2978,-2.2892,-2.2732,-2.3108,-2.3221,-2.3263,-2.3348,-2.3572,-2.3892,-2.4349,-2.446,-2.4491,-2.4511,-2.4799,-2.4989,-2.4583,-2.4879,-2.5185,-2.5185,-2.4974,-2.4918,-2.5394,-2.541,-2.5371,-2.5432,-2.5486,-2.5486,-2.5578,-2.5616,-2.5616,-2.5616,-2.5616,-2.5637,-2.5738,-2.5844,-2.5917,-2.6026,-2.6132,-2.622,-2.622,-2.6504,-2.6825,-2.7085,-2.7244,-2.743,-2.7701,-2.776,-2.794,-2.8182,-2.8273,-2.8327,-1.5932,-1.5744,-1.5611,-1.5724,-1.5389,-1.5287,-1.6219,0.0,-1.5952,-1.6423,0.0,-1.6436,-1.6318,0.0,0.0,0.0,0.0,0.0,-1.612,-1.6262,-1.6448,-1.6607,-1.6565,-1.6765,-1.7282,-1.7475,-1.7988,-1.8936,-1.8447,-1.8394,-1.9064,-1.9055,-1.9055,-1.9101,-1.9101,-1.9101,-1.9101,-1.9101,-1.9101,-1.9101,-1.9101,-1.9101,-1.9101,-1.9101,-1.9101,-1.9101,-1.9101,-1.9101,-1.9116,-1.9174,-1.9217,-1.9333,-2.0524,-2.1003,-2.1003,-2.109,-2.1104,-2.1119,-2.1191,-2.122,-2.1206,-2.1289,-2.1536,-2.1834,-2.1914,-2.1914,-2.1979,-2.2409,-2.2293,-2.2114,-2.2697,-2.2847,-2.293,-2.3084,-2.3187,-2.3187,-2.3142,-2.348,-2.3809,-2.3809,-2.412,-2.4492,-2.4918,-2.4695,-2.4589,-2.4918,-2.4997,-2.513,-2.554,-2.5616,-2.5616,-2.5616,-2.5616,-2.5691,-2.5844,-2.5881,-2.597,-2.6168,-2.6168,-2.622,-2.622,-2.6504,-2.6725,-2.6758,-2.7352,-2.7672,-2.7701,-2.7996,-2.8154,-2.8182,-2.8273,-2.8327,-1.5611,-1.5242,-1.4926,-1.5028,-1.4835,-1.4744,-1.5299,-1.5242,-1.5152,-1.5377,0.0,0.0,0.0,0.0,0.0,0.0,-1.5724,-1.5957,0.0,0.0,-1.6275,-1.6552,0.0,0.0,-1.6607,-1.685,-1.7256,-1.7841,-1.7921,-1.8133,-1.863,-1.8912,-1.9078,-1.9101,-1.9101,-1.9101,-1.9101,-1.9101,-1.9101,-1.9101,-1.9101,-1.9101,-1.9101,-1.9101,-1.9101,-1.9101,-1.9101,-1.9101,-1.9101,-1.9101,-1.9101,-1.9159,-1.9696,-1.9899,-1.9943,-2.0335,-2.048,-2.0524,-2.0872,-2.1003,-2.1003,-2.1003,-2.1111,-2.1274,-2.1274,-2.1274,-2.1315,-2.154,-2.1435,-2.1414,-2.1924,-2.2349,-2.2596,-2.2697,-2.324,-2.3625,-2.3348,-2.3653,-2.4009,-2.4009,-2.3952,-2.3937,-2.4131,-2.4245,-2.4426,-2.4823,-2.4719,-2.4695,-2.513,-2.5208,-2.5208,-2.5208,-2.5448,-2.5675,-2.5897,-2.5897,-2.597,-2.6184,-2.622,-2.622,-2.622,-2.6329,-2.6521,-2.6691,-2.6971,-2.7321,-2.7701,-2.7836,-2.8025,-2.8209,-2.8318,-2.838,-1.4971,-1.4595,-1.4236,-1.4433,-1.4247,-1.4143,-1.456,-1.456,-1.4514,-1.4652,-1.4652,0.0,0.0,0.0,0.0,0.0,0.0,-1.5546,0.0,-1.5647,0.0,-1.6454,-1.625,0.0,0.0,-1.6392,-1.6637,-1.716,-1.7407,-1.7747,-1.8147,-1.8669,-1.8936,-1.8936,-1.9026,-1.9101,-1.9101,-1.9101,-1.9101,-1.9101,-1.9101,-1.9101,-1.9101,-1.9101,-1.9101,-1.9101,-1.9101,-1.9026,-1.8936,-1.8936,-1.886,-1.8745,-1.8745,-1.8822,-1.8993,-1.9614,-1.9749,-1.9728,-2.028,-2.048,-2.048,-2.048,-2.048,-2.048,-2.048,-2.048,-2.048,-2.048,-2.048,-2.0604,-2.1154,-2.1724,-2.2188,-2.2381,-2.32,-2.3824,-2.348,-2.3653,-2.3925,-2.3925,-2.3653,-2.3392,-2.3392,-2.3696,-2.4078,-2.4461,-2.4313,-2.4245,-2.4679,-2.4719,-2.4799,-2.4902,-2.5208,-2.5546,-2.5807,-2.5844,-2.5917,-2.6096,-2.6132,-2.6168,-2.6168,-2.6168,-2.6293,-2.6572,-2.6657,-2.6939,-2.7413,-2.7504,-2.7701,-2.795,-2.8246,-2.8406,-1.3873,-1.3637,-1.3515,-1.3763,-1.3392,-1.32,-1.4272,-1.4133,-1.4003,-1.456,-1.4606,-1.4503,-1.4503,0.0,0.0,0.0,0.0,0.0,0.0,0.0,-1.5073,-1.5901,-1.6132,0.0,0.0,-1.6436,-1.6607,-1.7585,-1.7284,-1.7242,-1.7787,-1.8266,-1.85,-1.85,-1.8898,-1.9101,-1.9101,-1.9101,-1.9101,-1.9101,-1.9101,-1.9101,-1.9101,-1.9101,-1.9101,-1.9101,-1.9101,-1.886,-1.85,-1.85,-1.8266,-1.7828,-1.7828,-1.8108,-1.8553,-1.8965,-1.8903,-1.862,-1.9031,-1.9159,-1.9159,-1.9159,-1.9159,-1.9159,-1.9159,-1.9159,-1.9159,-1.9159,-1.9159,-1.9304,-1.9997,-2.0622,-2.1233,-2.1873,-2.2468,-2.2933,-2.2947,-2.2933,-2.2933,-2.2933,-2.2933,-2.2933,-2.2933,-2.2933,-2.3098,-2.3551,-2.3638,-2.3782,-2.4261,-2.4302,-2.4451,-2.4863,-2.4902,-2.5153,-2.5663,-2.5701,-2.5738,-2.5897,-2.5954,-2.6026,-2.6026,-2.6115,-2.622,-2.622,-2.6538,-2.6725,-2.6725,-2.7053,-2.7258,-2.7317,-2.8017,-2.83,-1.3399,-1.3035,-1.2754,-1.3007,-1.2774,-1.2666,-1.3286,-1.318,-1.3035,-1.3324,-1.3324,-1.3324,-1.3324,0.0,0.0,0.0,0.0,0.0,0.0,-1.4398,-1.4582,-1.4949,-1.5501,0.0,0.0,-1.6436,-1.6522,-1.6808,-1.7018,-1.7173,-1.7284,-1.7747,-1.8028,-1.8028,-1.8461,-1.8707,-1.8707,-1.8988,-1.8988,-1.8707,-1.8988,-1.8784,-1.8266,-1.8553,-1.8539,-1.8226,-1.8226,-1.8147,-1.8028,-1.8028,-1.7948,-1.7787,-1.7787,-1.772,-1.772,-1.8422,-1.863,-1.85,-1.8669,-1.8707,-1.8745,-1.9026,-1.9101,-1.9101,-1.9101,-1.9101,-1.9101,-1.9101,-1.9101,-1.9159,-1.9377,-1.9928,-2.0553,-2.1191,-2.183,-2.2425,-2.2801,-2.2888,-2.2888,-2.2888,-2.2888,-2.2888,-2.2888,-2.2888,-2.3068,-2.3508,-2.3348,-2.3319,-2.3782,-2.3824,-2.3894,-2.4006,-2.4313,-2.4599,-2.4808,-2.5176,-2.5384,-2.5438,-2.5791,-2.601,-2.601,-2.6115,-2.6293,-2.6521,-2.664,-2.6825,-2.7021,-2.7149,-2.7338,-2.7565,-2.7818,-2.7961,-1.2842,-1.2608,-1.2323,-1.2578,-1.2323,-1.2175,-1.2627,-1.2471,-1.2215,-1.2274,-1.2471,-1.2529,-1.2107,0.0,0.0,0.0,0.0,0.0,0.0,-1.3884,-1.4014,-1.4316,-1.4858,-1.5457,0.0,-1.612,-1.625,-1.6392,-1.6735,-1.6892,-1.6837,-1.7462,-1.7787,-1.7787,-1.8383,-1.863,-1.85,-1.8745,-1.8669,-1.8266,-1.85,-1.8344,-1.7787,-1.8108,-1.8068,-1.7787,-1.7787,-1.772,-1.7598,-1.7544,-1.7421,-1.731,-1.7256,-1.7144,-1.7144,-1.7948,-1.8266,-1.8266,-1.8266,-1.8344,-1.8461,-1.8745,-1.8898,-1.8988,-1.904,-1.9078,-1.9078,-1.9101,-1.9064,-1.904,-1.8912,-1.9362,-1.9855,-2.0144,-2.0855,-2.1607,-2.2005,-2.22,-2.2356,-2.2356,-2.2356,-2.2356,-2.2356,-2.2356,-2.2572,-2.326,-2.3098,-2.3023,-2.3304,-2.3348,-2.3392,-2.3595,-2.3867,-2.4188,-2.4567,-2.4887,-2.5176,-2.5384,-2.5754,-2.599,-2.601,-2.6115,-2.6177,-2.6118,-2.637,-2.6506,-2.6434,-2.6706,-2.6956,-2.7181,-2.7289,-2.7396]}]]